[[{"header":{"parameterUnit":"m.s-1","parameterCategory":1,"la1":30.6,"la2":29.2853,"lo1":-89.7004,"lo2":-87.6739,"dy":0.0162,"dx":0.0183,"nx":112,"ny":82,"refTime":"2024-08-19T12:00:00:Z","depth":0,"parameterNumber":2,"parameterNumberName":"U-component_of_WINDS"},"data":[0.0,0.0,0.0,0.0,0.0,0.0,0.0,0.0,0.0,0.0,0.0,0.0,0.0,0.0,0.0,0.0,0.0,0.0,0.0,0.0,0.0,0.0,0.0,0.0,0.0,0.0,0.0,0.0,0.0,0.0,0.0,0.0,0.0,0.0,0.0,0.0,0.0,0.0,0.0,0.0,0.0,0.0,0.0,0.0,0.0,0.0,0.0,0.0,0.0,0.0,0.0,0.0,0.0,0.0,0.0,0.0,0.0,0.0,0.0,0.0,0.0,0.0,0.0,0.0,0.0,0.0,0.0,0.0,0.0,0.0,0.0,0.0,0.0,0.0,0.0,0.0,0.0,0.0,0.0,0.0,0.0,0.0,0.0,0.0,0.0,0.0,0.0,0.0,0.0,0.0,3.7368,3.7485,3.7497,3.7454,3.7314,3.743,3.7113,3.617,0.0,0.0,0.0,0.0,0.0,0.0,0.0,0.0,0.0,0.0,0.0,0.0,0.0,0.0,0.0,0.0,0.0,0.0,0.0,0.0,0.0,0.0,0.0,0.0,0.0,0.0,0.0,0.0,0.0,0.0,0.0,0.0,0.0,0.0,0.0,0.0,0.0,0.0,0.0,0.0,0.0,0.0,0.0,0.0,0.0,0.0,0.0,0.0,0.0,0.0,0.0,0.0,0.0,0.0,0.0,0.0,0.0,0.0,0.0,0.0,0.0,0.0,0.0,0.0,0.0,0.0,0.0,0.0,0.0,0.0,0.0,0.0,0.0,0.0,0.0,0.0,0.0,0.0,0.0,0.0,0.0,0.0,0.0,0.0,0.0,0.0,0.0,0.0,0.0,0.0,0.0,0.0,0.0,0.0,0.0,0.0,0.0,0.0,0.0,0.0,0.0,0.0,0.0,0.0,3.673,3.7436,3.7495,3.722,3.6528,3.711,3.6833,3.5302,0.0,0.0,0.0,0.0,0.0,0.0,0.0,0.0,0.0,0.0,0.0,0.0,0.0,0.0,0.0,0.0,0.0,0.0,0.0,0.0,0.0,0.0,0.0,0.0,0.0,0.0,0.0,0.0,0.0,0.0,0.0,0.0,0.0,0.0,0.0,0.0,0.0,0.0,0.0,0.0,0.0,0.0,0.0,0.0,0.0,0.0,0.0,0.0,0.0,0.0,0.0,0.0,0.0,0.0,0.0,0.0,0.0,0.0,0.0,0.0,0.0,0.0,0.0,0.0,0.0,0.0,0.0,0.0,0.0,0.0,0.0,0.0,0.0,0.0,0.0,0.0,0.0,0.0,0.0,0.0,0.0,0.0,0.0,0.0,0.0,0.0,0.0,0.0,0.0,0.0,0.0,0.0,0.0,0.0,0.0,0.0,0.0,0.0,0.0,0.0,0.0,0.0,0.0,3.6067,3.6442,3.6813,3.6426,3.6001,3.5642,3.5929,3.5622,3.4418,3.3944,0.0,0.0,0.0,0.0,0.0,0.0,0.0,0.0,0.0,0.0,0.0,0.0,0.0,0.0,0.0,0.0,0.0,0.0,0.0,0.0,0.0,0.0,0.0,0.0,0.0,0.0,0.0,0.0,0.0,0.0,0.0,0.0,0.0,0.0,0.0,0.0,0.0,0.0,0.0,0.0,0.0,0.0,0.0,0.0,0.0,0.0,0.0,0.0,0.0,0.0,0.0,0.0,0.0,0.0,0.0,0.0,0.0,0.0,0.0,0.0,0.0,0.0,0.0,0.0,0.0,0.0,0.0,0.0,0.0,0.0,0.0,0.0,0.0,0.0,0.0,0.0,0.0,0.0,0.0,0.0,0.0,0.0,0.0,0.0,0.0,0.0,0.0,0.0,0.0,0.0,0.0,0.0,0.0,0.0,0.0,0.0,0.0,0.0,0.0,0.0,0.0,0.0,3.6842,3.6526,3.6305,3.5515,3.4934,3.4723,3.4713,3.4363,3.3584,3.276,0.0,0.0,0.0,0.0,0.0,0.0,0.0,0.0,0.0,0.0,0.0,0.0,0.0,0.0,0.0,0.0,0.0,0.0,0.0,0.0,0.0,0.0,0.0,0.0,0.0,0.0,0.0,0.0,0.0,0.0,0.0,0.0,0.0,0.0,0.0,0.0,0.0,0.0,0.0,0.0,0.0,0.0,0.0,0.0,0.0,0.0,0.0,0.0,0.0,0.0,0.0,0.0,0.0,0.0,0.0,0.0,0.0,0.0,0.0,0.0,0.0,0.0,0.0,0.0,0.0,0.0,0.0,0.0,0.0,0.0,0.0,0.0,0.0,0.0,0.0,0.0,0.0,0.0,0.0,0.0,0.0,0.0,0.0,0.0,0.0,0.0,0.0,0.0,0.0,0.0,0.0,0.0,0.0,0.0,0.0,0.0,0.0,0.0,0.0,0.0,0.0,0.0,3.6996,3.7137,3.637,3.5522,3.4705,3.3962,3.3873,3.3543,3.2748,3.1911,0.0,0.0,0.0,0.0,0.0,0.0,0.0,0.0,0.0,0.0,0.0,0.0,0.0,0.0,0.0,0.0,0.0,0.0,0.0,0.0,0.0,0.0,0.0,0.0,0.0,0.0,0.0,0.0,0.0,0.0,0.0,0.0,0.0,0.0,0.0,0.0,0.0,0.0,0.0,0.0,0.0,0.0,0.0,0.0,0.0,0.0,0.0,0.0,0.0,0.0,0.0,0.0,0.0,0.0,0.0,0.0,0.0,0.0,0.0,0.0,0.0,0.0,0.0,0.0,0.0,0.0,0.0,0.0,0.0,0.0,0.0,0.0,0.0,0.0,0.0,0.0,0.0,0.0,0.0,0.0,0.0,0.0,0.0,0.0,0.0,0.0,0.0,0.0,0.0,0.0,0.0,0.0,0.0,0.0,0.0,0.0,0.0,0.0,0.0,0.0,0.0,0.0,3.6374,3.6391,3.6761,3.5273,3.4215,3.4062,3.3899,3.325,3.1937,0.0,0.0,0.0,0.0,0.0,0.0,0.0,0.0,0.0,0.0,0.0,0.0,0.0,0.0,0.0,0.0,0.0,0.0,0.0,0.0,0.0,0.0,0.0,0.0,0.0,0.0,0.0,0.0,0.0,0.0,0.0,0.0,0.0,0.0,0.0,0.0,0.0,0.0,0.0,0.0,0.0,0.0,0.0,0.0,0.0,0.0,0.0,0.0,0.0,0.0,0.0,0.0,0.0,0.0,0.0,0.0,0.0,0.0,0.0,0.0,0.0,0.0,0.0,0.0,0.0,0.0,0.0,0.0,0.0,0.0,0.0,0.0,0.0,0.0,0.0,0.0,0.0,0.0,0.0,0.0,0.0,0.0,0.0,0.0,0.0,0.0,0.0,0.0,0.0,0.0,0.0,0.0,0.0,0.0,0.0,0.0,0.0,0.0,0.0,0.0,0.0,0.0,3.655,3.6349,3.6287,3.7033,3.5211,3.3901,3.3822,3.3352,3.2449,3.1091,0.0,0.0,0.0,0.0,0.0,0.0,0.0,0.0,0.0,0.0,0.0,0.0,0.0,0.0,0.0,0.0,0.0,0.0,0.0,0.0,0.0,0.0,0.0,0.0,0.0,0.0,0.0,0.0,0.0,0.0,0.0,0.0,0.0,0.0,0.0,0.0,0.0,0.0,0.0,0.0,0.0,0.0,0.0,0.0,0.0,0.0,0.0,0.0,0.0,0.0,0.0,0.0,0.0,0.0,0.0,0.0,0.0,0.0,0.0,0.0,0.0,0.0,0.0,0.0,0.0,0.0,0.0,0.0,0.0,0.0,0.0,0.0,0.0,0.0,0.0,0.0,0.0,0.0,0.0,0.0,0.0,0.0,0.0,0.0,0.0,0.0,0.0,0.0,0.0,0.0,0.0,0.0,0.0,0.0,0.0,0.0,0.0,0.0,0.0,0.0,0.0,0.0,3.6842,3.7112,3.7112,3.7093,3.536,3.3864,3.3063,3.2004,3.1054,0.0,0.0,0.0,0.0,0.0,0.0,0.0,0.0,0.0,0.0,0.0,0.0,0.0,0.0,0.0,0.0,0.0,0.0,0.0,0.0,0.0,0.0,0.0,0.0,0.0,0.0,0.0,0.0,0.0,0.0,0.0,0.0,0.0,0.0,0.0,0.0,0.0,0.0,0.0,0.0,0.0,0.0,0.0,0.0,0.0,0.0,0.0,0.0,0.0,0.0,0.0,0.0,0.0,0.0,0.0,0.0,0.0,0.0,0.0,0.0,0.0,0.0,0.0,0.0,0.0,0.0,0.0,0.0,0.0,0.0,0.0,0.0,0.0,0.0,0.0,0.0,0.0,0.0,0.0,0.0,0.0,0.0,0.0,0.0,0.0,0.0,0.0,0.0,0.0,0.0,0.0,0.0,0.0,0.0,0.0,0.0,0.0,0.0,0.0,0.0,0.0,0.0,0.0,3.6369,3.7072,3.7298,3.6865,3.4908,3.3534,3.3293,3.2306,3.1275,3.0246,0.0,0.0,0.0,0.0,0.0,0.0,0.0,0.0,0.0,0.0,0.0,0.0,0.0,0.0,0.0,0.0,0.0,0.0,0.0,0.0,0.0,0.0,0.0,0.0,0.0,0.0,0.0,0.0,0.0,0.0,0.0,0.0,0.0,0.0,0.0,0.0,0.0,0.0,0.0,0.0,0.0,0.0,0.0,0.0,0.0,0.0,0.0,0.0,0.0,0.0,0.0,0.0,0.0,0.0,0.0,0.0,0.0,0.0,0.0,0.0,0.0,0.0,0.0,0.0,0.0,0.0,0.0,0.0,0.0,0.0,0.0,0.0,0.0,0.0,0.0,0.0,0.0,0.0,0.0,0.0,0.0,0.0,0.0,0.0,0.0,0.0,0.0,0.0,0.0,0.0,0.0,0.0,0.0,0.0,0.0,0.0,0.0,0.0,0.0,0.0,0.0,0.0,3.6788,3.7453,3.7616,3.7262,3.5026,3.3393,3.2959,3.1929,3.0865,2.9793,0.0,0.0,0.0,0.0,0.0,0.0,0.0,0.0,0.0,0.0,0.0,0.0,0.0,0.0,0.0,0.0,0.0,0.0,0.0,0.0,0.0,0.0,0.0,0.0,0.0,0.0,0.0,0.0,0.0,0.0,0.0,0.0,0.0,0.0,0.0,0.0,0.0,0.0,0.0,0.0,0.0,0.0,0.0,0.0,0.0,0.0,0.0,0.0,0.0,0.0,0.0,0.0,0.0,0.0,0.0,0.0,0.0,0.0,0.0,0.0,0.0,0.0,0.0,0.0,0.0,0.0,0.0,0.0,0.0,0.0,0.0,0.0,0.0,0.0,0.0,0.0,0.0,0.0,0.0,0.0,0.0,0.0,0.0,0.0,0.0,0.0,0.0,0.0,0.0,0.0,0.0,0.0,0.0,0.0,0.0,0.0,0.0,0.0,0.0,0.0,0.0,0.0,3.755,3.7892,3.7911,3.7661,3.5304,3.3282,3.2183,3.1127,3.0071,2.9053,0.0,0.0,0.0,0.0,0.0,0.0,0.0,0.0,0.0,0.0,0.0,0.0,0.0,0.0,0.0,0.0,0.0,0.0,0.0,0.0,0.0,0.0,0.0,0.0,0.0,0.0,0.0,0.0,0.0,0.0,0.0,0.0,0.0,0.0,0.0,0.0,0.0,0.0,0.0,0.0,0.0,0.0,0.0,0.0,0.0,0.0,0.0,0.0,0.0,0.0,0.0,0.0,0.0,0.0,0.0,0.0,0.0,0.0,0.0,0.0,3.3417,3.2628,0.0,0.0,0.0,0.0,0.0,0.0,0.0,0.0,0.0,0.0,0.0,0.0,0.0,0.0,0.0,0.0,0.0,0.0,0.0,0.0,0.0,0.0,0.0,0.0,0.0,0.0,0.0,0.0,0.0,0.0,0.0,0.0,0.0,0.0,0.0,0.0,0.0,0.0,0.0,0.0,3.594,3.718,3.7238,3.5218,3.3865,3.2598,3.137,3.0432,2.9643,2.904,2.8246,0.0,0.0,0.0,0.0,0.0,0.0,0.0,0.0,0.0,0.0,0.0,0.0,0.0,0.0,0.0,0.0,0.0,0.0,0.0,0.0,0.0,0.0,0.0,0.0,0.0,0.0,0.0,0.0,0.0,0.0,0.0,0.0,0.0,0.0,0.0,0.0,0.0,0.0,0.0,0.0,0.0,0.0,0.0,0.0,0.0,0.0,0.0,0.0,0.0,0.0,0.0,0.0,0.0,0.0,0.0,0.0,0.0,0.0,0.0,3.5166,3.457,0.0,0.0,0.0,0.0,0.0,0.0,0.0,0.0,0.0,0.0,0.0,0.0,0.0,0.0,0.0,0.0,0.0,0.0,0.0,0.0,0.0,0.0,0.0,0.0,0.0,0.0,0.0,0.0,0.0,0.0,0.0,0.0,0.0,0.0,0.0,0.0,0.0,0.0,0.0,0.0,3.607,3.7199,3.718,3.5045,3.368,3.2374,3.1105,3.0204,2.9495,2.9021,2.8072,0.0,0.0,0.0,0.0,0.0,0.0,0.0,0.0,0.0,0.0,0.0,0.0,0.0,0.0,0.0,0.0,0.0,0.0,0.0,0.0,0.0,0.0,0.0,0.0,0.0,0.0,0.0,0.0,0.0,0.0,0.0,0.0,0.0,0.0,0.0,0.0,0.0,0.0,0.0,0.0,0.0,0.0,0.0,0.0,0.0,0.0,0.0,0.0,0.0,0.0,0.0,0.0,0.0,3.7147,3.7531,3.818,3.6647,3.6699,3.7926,3.6699,3.668,3.7348,3.5387,0.0,0.0,0.0,0.0,0.0,0.0,0.0,0.0,0.0,0.0,0.0,0.0,0.0,0.0,0.0,0.0,0.0,0.0,0.0,0.0,0.0,0.0,3.5394,3.5247,3.6395,3.6927,3.489,0.0,0.0,0.0,0.0,0.0,0.0,0.0,0.0,0.0,0.0,0.0,3.6507,3.7373,3.7238,3.5257,3.3757,3.2349,3.0949,3.0127,2.9514,2.9089,2.8093,2.7814,0.0,0.0,0.0,0.0,0.0,0.0,0.0,0.0,0.0,0.0,0.0,0.0,0.0,0.0,0.0,0.0,0.0,0.0,0.0,0.0,0.0,0.0,0.0,0.0,0.0,0.0,0.0,0.0,0.0,0.0,0.0,0.0,3.2575,3.2637,0.0,0.0,0.0,0.0,0.0,0.0,0.0,0.0,0.0,0.0,0.0,0.0,0.0,3.5942,3.7165,3.7694,3.829,3.895,3.8954,3.9016,3.9092,3.8116,3.779,3.8007,3.8266,0.0,3.7511,3.7647,0.0,0.0,0.0,0.0,0.0,0.0,0.0,0.0,0.0,0.0,0.0,0.0,0.0,0.0,0.0,0.0,0.0,0.0,0.0,0.0,0.0,0.0,3.6982,3.6285,3.6817,3.7404,3.7103,3.5891,3.4926,3.5057,3.4543,3.3877,0.0,0.0,0.0,0.0,0.0,0.0,3.5757,3.7026,3.6776,3.3583,3.3045,3.2141,3.0289,2.9872,2.9607,2.9372,2.8979,2.8968,2.9395,2.9341,0.0,0.0,0.0,0.0,0.0,0.0,0.0,0.0,0.0,0.0,0.0,0.0,0.0,0.0,0.0,0.0,0.0,0.0,0.0,0.0,0.0,0.0,0.0,0.0,0.0,0.0,0.0,0.0,0.0,3.16,3.2948,3.2779,3.3729,3.4148,0.0,0.0,0.0,0.0,0.0,0.0,0.0,0.0,0.0,3.6919,3.6416,3.6646,3.7721,3.769,3.7913,3.8359,3.8495,3.8558,3.8531,3.7674,3.754,3.7963,3.7401,3.7468,3.7953,3.8056,3.7776,3.729,0.0,0.0,0.0,0.0,3.7394,3.7063,3.8442,3.8224,3.7252,3.6867,0.0,0.0,0.0,0.0,0.0,0.0,0.0,3.6204,3.5834,3.6285,3.6725,3.6376,3.656,3.6817,3.6817,3.6597,3.6423,3.6546,3.6297,3.5721,3.4703,3.5143,0.0,0.0,0.0,3.7166,3.6295,3.6877,3.6238,3.3218,3.2891,3.2115,3.018,2.9813,2.9607,2.9394,2.8943,2.9024,2.9828,2.9483,2.9364,0.0,0.0,0.0,0.0,0.0,0.0,0.0,0.0,0.0,0.0,0.0,0.0,0.0,0.0,0.0,0.0,0.0,0.0,0.0,0.0,0.0,0.0,0.0,0.0,0.0,0.0,0.0,0.0,3.2641,3.3579,3.3375,3.442,3.4918,0.0,0.0,0.0,0.0,0.0,0.0,3.631,3.6255,3.6733,3.7765,3.7227,3.7166,3.7679,3.7312,3.7307,3.7698,3.768,3.7679,3.7632,3.6786,3.6752,3.7294,3.632,3.6576,3.7709,3.7784,3.7796,3.776,3.7381,3.7204,3.7296,3.8114,3.79,3.7473,3.9265,3.8977,3.7814,3.7812,3.7252,3.6407,3.5381,0.0,0.0,0.0,0.0,3.6597,3.6597,3.6285,3.5973,3.5973,3.5973,3.5973,3.5973,3.6597,3.7239,3.7441,3.7661,3.7419,3.6218,3.6785,0.0,3.6597,3.7414,3.7762,3.6858,3.6839,3.5955,3.3513,3.3045,3.2225,3.0576,2.9978,2.9644,2.9493,2.9108,2.9233,3.0084,2.9766,2.9754,3.0074,0.0,0.0,0.0,0.0,0.0,0.0,0.0,0.0,0.0,0.0,0.0,0.0,0.0,0.0,0.0,0.0,0.0,0.0,0.0,0.0,0.0,0.0,0.0,0.0,0.0,0.0,0.0,0.0,0.0,3.5367,3.6763,0.0,0.0,0.0,0.0,3.6955,3.6977,3.7243,3.7776,3.7544,3.7445,3.7507,3.747,3.7349,3.7144,3.7108,3.74,3.7978,3.7149,3.6769,3.675,3.5926,3.557,3.5628,3.5815,3.5951,3.6094,3.7118,3.7955,3.8652,3.8634,3.8585,3.8634,3.867,3.8652,3.8634,3.8744,3.8726,3.8652,3.8621,3.8102,3.7422,3.7349,3.7349,0.0,0.0,3.7404,3.7452,3.7452,3.6266,3.5064,3.5064,3.5064,3.5064,3.5064,3.5752,3.6578,3.7331,3.812,3.8377,3.7526,0.0,3.7973,3.7168,3.7656,3.78,3.6993,3.6897,3.621,3.4428,3.3436,3.2545,3.1686,3.0434,2.9696,2.9678,2.9953,3.0114,3.0101,3.079,3.0818,3.0108,3.0023,0.0,0.0,0.0,0.0,0.0,0.0,0.0,0.0,0.0,0.0,0.0,0.0,0.0,0.0,0.0,0.0,0.0,0.0,0.0,0.0,0.0,0.0,0.0,0.0,0.0,0.0,0.0,0.0,3.6001,3.698,0.0,3.6775,3.7341,3.7713,3.7605,3.8078,3.8156,3.7673,3.7548,3.7239,3.6725,3.6164,3.5846,3.5743,3.5619,3.5658,3.5893,3.5917,3.5926,3.5926,3.5628,3.5493,3.5474,3.5243,3.542,3.5882,3.5873,3.6227,3.6757,3.7248,3.7246,3.7044,3.7878,3.8187,3.8224,3.8566,3.8707,3.8707,3.8707,3.8505,3.8267,3.8267,3.8267,3.8157,3.7643,3.7507,3.7239,3.6174,3.5459,3.4862,3.4357,3.4229,3.4229,3.4229,3.489,3.5569,3.5844,3.6982,3.7826,3.7562,3.8406,3.8675,3.7297,3.7735,3.7905,3.7012,3.6455,3.5667,3.4436,3.3955,3.3391,3.2545,3.1267,3.0542,3.0542,3.033,3.0176,3.0101,3.0879,3.1132,3.0801,3.0345,2.96,0.0,0.0,0.0,0.0,0.0,0.0,0.0,0.0,0.0,0.0,0.0,0.0,0.0,0.0,0.0,0.0,0.0,0.0,0.0,0.0,0.0,0.0,0.0,0.0,0.0,3.5486,3.6625,3.6567,3.7376,3.7548,3.6628,3.7363,3.7742,3.7404,3.792,3.7941,3.714,3.7092,3.6707,3.5871,3.5302,3.4972,3.4899,3.4766,3.4781,3.4981,3.532,3.5493,3.5493,3.5493,3.5435,3.5339,3.4883,3.4945,3.5274,3.4797,3.4577,3.4673,3.5859,3.6054,3.5761,3.6755,3.7116,3.7186,3.7716,3.7893,3.7845,3.7723,3.7772,3.7851,3.7692,3.7772,3.7771,3.7239,3.6872,3.6395,3.5284,3.4789,3.4468,3.3935,3.3807,3.3807,3.3807,3.4229,3.4688,3.4935,3.6358,3.7507,3.7507,3.8674,3.9222,3.8109,3.8136,3.808,3.7462,3.6386,3.5471,3.4847,3.4416,3.3968,3.3391,3.2159,3.1392,3.1392,3.1166,3.0866,3.0539,3.1034,3.1288,3.1213,3.0717,3.0345,3.0129,0.0,0.0,0.0,0.0,0.0,0.0,0.0,0.0,0.0,0.0,0.0,0.0,0.0,0.0,0.0,0.0,0.0,0.0,0.0,0.0,0.0,0.0,0.0,3.5147,3.6953,3.7992,3.7222,3.8024,3.801,3.645,3.7229,3.744,3.6368,3.6552,3.656,3.6277,3.6266,3.5852,3.4981,3.4962,3.4871,3.4686,3.4676,3.497,3.5484,3.5512,3.5493,3.5493,3.5493,3.5339,3.5076,3.4817,3.451,3.4191,3.3925,3.3295,3.2693,3.4747,3.5257,3.4888,3.5363,3.558,3.5666,3.614,3.6278,3.6193,3.5737,3.5915,3.6179,3.5724,3.5915,3.6285,3.6266,3.5661,3.499,3.4981,3.4394,3.3788,3.3815,3.3807,3.3807,3.3807,3.3807,3.4027,3.4807,3.6285,3.7452,3.7477,3.8656,3.9561,3.9561,3.8859,0.0,3.8263,3.6779,3.5735,3.5701,3.4814,3.4237,3.4237,3.2999,3.2223,3.2241,3.246,3.221,3.1367,3.1402,3.141,3.128,3.1241,3.1562,3.2273,0.0,0.0,0.0,0.0,0.0,0.0,0.0,0.0,0.0,0.0,0.0,0.0,0.0,0.0,0.0,0.0,0.0,0.0,0.0,0.0,0.0,3.5292,3.6593,3.6823,3.7182,3.7472,3.7654,3.7257,3.678,3.634,3.6583,3.6619,3.6303,3.638,3.6104,3.5404,3.5357,3.4972,3.4147,3.4137,3.4192,3.4338,3.4578,3.487,3.5217,3.5405,3.5493,3.5493,3.5493,3.5339,3.51,3.4806,3.4507,3.4191,3.3925,3.3295,3.2602,3.3704,3.3675,3.3144,3.4197,3.503,3.5659,3.6153,3.6065,3.5768,3.5643,3.5465,3.5316,3.5548,3.5693,3.5708,3.5447,3.5174,3.4899,3.4518,3.4102,3.3842,3.4043,3.3935,3.3807,3.3807,3.3807,3.3862,3.41,3.4981,3.6083,3.7276,3.8189,3.8694,3.8652,3.8917,3.8651,3.7434,3.6878,3.6331,3.5713,3.5334,3.5067,3.4859,3.3768,3.2994,3.2786,3.2674,3.2464,3.2097,3.2696,3.2947,3.278,3.1809,3.1355,0.0,0.0,0.0,0.0,0.0,0.0,0.0,0.0,0.0,0.0,0.0,0.0,0.0,0.0,0.0,0.0,0.0,0.0,0.0,0.0,0.0,0.0,3.6852,3.7985,3.8223,3.7888,3.7762,3.8064,3.7044,3.6156,3.5789,3.5771,3.5624,3.5275,3.5238,3.5037,3.4523,3.4495,3.4275,3.3807,3.3807,3.3999,3.442,3.4603,3.4887,3.527,3.5417,3.5493,3.5493,3.5493,3.5282,3.4918,3.4764,3.4457,3.4017,3.3844,3.3295,3.2547,0.0,0.0,0.0,0.0,3.3808,3.4617,3.4914,3.4806,3.4555,3.4379,3.4133,3.3913,3.3981,3.4264,3.4558,3.4313,3.4375,3.4421,3.4097,3.3928,3.3842,3.4012,3.391,3.3807,3.3807,3.3807,3.3807,3.3807,3.4468,0.0,3.6762,3.7779,3.8508,3.8784,3.9147,3.9056,3.8078,3.7629,3.7204,3.6685,3.6603,3.642,3.6133,3.5401,0.0,0.0,0.0,3.3771,3.2995,3.3315,0.0,0.0,0.0,0.0,0.0,0.0,0.0,0.0,3.3084,3.3128,0.0,0.0,0.0,0.0,0.0,0.0,0.0,0.0,0.0,0.0,0.0,0.0,0.0,0.0,0.0,0.0,3.8213,3.899,3.9262,3.8633,3.8112,3.8112,3.6879,3.5716,3.4935,3.4844,3.4578,3.3844,3.3807,3.3807,3.3807,3.3807,0.0,0.0,0.0,3.4091,3.4686,3.4698,3.496,3.5493,3.5493,3.5474,3.5435,3.5435,3.5166,3.4649,3.4629,3.432,3.3807,3.3807,3.3305,3.2484,3.2383,3.1856,3.1263,3.1657,3.2319,3.3045,3.3105,0.0,0.0,3.255,3.2384,3.2282,3.1915,3.2433,3.3154,3.3184,3.3494,3.3807,3.3842,3.3815,3.3807,3.3842,3.3815,3.3807,3.3807,3.3807,3.3807,3.3807,3.4468,3.5265,3.6156,3.7461,3.8678,3.9467,3.9566,3.9492,3.9415,3.8704,3.8204,3.8089,3.8046,0.0,3.749,3.7237,3.6975,3.6656,3.6389,3.5561,3.402,3.3756,3.366,3.366,3.357,3.3855,3.4479,3.3836,3.3495,3.3447,3.2767,3.2834,0.0,0.0,0.0,0.0,0.0,0.0,0.0,0.0,0.0,0.0,0.0,0.0,0.0,0.0,0.0,3.7954,3.8534,3.8916,3.9246,3.7604,3.6375,3.6375,3.5132,3.4211,3.4045,3.4027,3.3972,3.3807,3.3807,3.3807,3.3807,3.3807,3.3807,3.3807,3.3807,3.4091,3.4686,3.4698,3.496,3.5493,3.5493,0.0,3.5185,3.5185,3.4864,3.4309,3.4288,3.4109,3.3807,3.3807,3.3278,3.2429,3.1735,3.1348,3.1252,3.1662,3.1916,3.2127,3.25,3.2366,3.2057,3.1951,3.1714,3.1487,3.1733,3.2196,0.0,3.3075,3.3494,3.3868,3.4068,3.3961,3.3868,3.4068,3.3961,3.3807,3.3807,3.3807,3.3807,3.3807,3.4468,3.5265,3.6156,3.7461,3.8678,3.9467,3.9986,4.0046,3.9392,3.9161,3.8796,3.8084,3.8007,3.7775,3.7217,3.7133,3.6883,3.6408,3.6125,3.583,3.549,3.5263,3.5182,3.5182,3.412,3.3657,3.3786,3.3145,3.2788,3.2788,3.3182,3.3419,0.0,0.0,0.0,0.0,0.0,0.0,0.0,0.0,0.0,0.0,0.0,3.338,3.37,0.0,3.6795,3.7634,3.8118,3.8306,3.8031,3.6785,3.5885,3.5885,3.4649,3.3807,3.3807,3.3807,3.3807,3.3807,3.3807,3.3807,3.3807,3.3807,3.3807,3.3807,3.3807,3.4091,3.4686,3.4698,3.496,3.5493,3.5493,3.5416,3.5306,3.5172,3.4845,3.4446,3.4266,3.4054,3.3788,3.3578,3.3091,3.2426,3.176,3.1359,3.1213,3.1418,3.1645,3.1808,3.2057,3.2004,3.1789,3.1789,3.1545,3.123,3.1449,3.1986,3.255,3.2777,3.3314,3.3842,3.3961,3.3902,3.3842,3.3961,3.3902,3.3807,3.3807,3.4119,3.4412,3.4412,3.5404,3.6395,3.6817,3.792,3.8944,3.95,4.0101,4.0335,3.995,3.9892,3.9719,3.9296,3.9238,3.9004,3.8401,3.8066,3.7784,3.7526,3.7133,3.6791,3.6571,3.6191,3.5854,3.5622,3.4971,3.4471,3.411,3.3811,3.3455,3.3069,3.3367,3.3372,0.0,0.0,0.0,0.0,0.0,0.0,0.0,0.0,3.2706,3.2844,3.3406,3.3953,3.4336,3.5465,3.6516,3.7027,3.743,3.7444,3.6781,3.6118,3.5658,3.5658,3.4556,3.3807,3.3807,3.3807,3.3807,3.3807,3.3807,3.3807,3.3807,3.3807,3.3807,3.3807,3.3807,3.4091,3.4686,3.4698,3.496,3.5493,3.5493,3.5435,3.5345,3.5122,3.4828,3.4512,3.4246,3.3999,3.377,3.3368,3.2919,3.2459,3.1987,3.1537,3.119,3.119,3.1411,3.1696,3.1696,3.1696,3.1696,3.1696,3.147,3.123,3.1291,3.1878,3.2517,3.2616,3.3196,3.3807,3.3807,3.3807,3.3807,3.3807,3.3917,3.4027,3.4027,3.4688,3.5247,3.5247,3.6468,3.7507,3.7507,3.8396,3.9212,3.9552,4.0063,4.0441,4.0489,4.0489,4.0489,4.0489,4.0489,4.0266,3.9645,3.9036,3.8707,3.8707,3.8328,3.7918,3.7441,3.705,3.6569,3.6062,3.5956,3.5575,3.4793,3.4736,3.4296,3.3499,3.3619,3.338,3.3795,3.4588,3.5624,3.6248,3.6219,3.6223,0.0,3.6326,3.5364,3.5053,3.5022,3.5021,3.4801,3.5489,3.634,3.7005,3.6768,3.6539,3.6671,3.5624,3.4826,3.4826,3.4216,3.3807,3.3807,3.3807,3.3807,3.3807,3.3807,3.3807,3.3807,3.3807,3.3807,3.3807,3.3807,3.4091,3.4686,3.4698,3.496,3.5493,3.5493,3.5243,3.4787,3.4759,3.4452,3.388,3.3844,3.3825,3.377,3.3368,3.2936,3.2453,3.1986,3.1548,3.119,3.119,3.123,3.1252,3.1252,3.1252,3.1252,3.1252,3.123,3.1252,3.1623,3.2109,3.2583,3.3014,3.3447,3.3807,3.3807,3.3807,3.3807,3.3807,3.4357,3.4862,3.4862,3.555,3.6156,3.6156,3.6872,3.7507,3.7507,3.8396,3.9212,3.9552,3.9922,4.0232,4.0473,4.0489,4.0489,4.0489,4.0489,4.0266,3.9645,3.9036,3.8707,3.8707,3.887,3.8726,3.8178,3.8342,3.8178,3.7652,3.7036,3.631,3.5582,3.4971,3.4296,3.3499,3.4098,3.4025,3.4295,3.4903,3.5395,3.6422,3.6862,3.6961,3.6772,3.6309,3.5832,3.5513,3.5147,3.4829,3.4763,3.4828,3.5073,3.5625,3.5647,3.5634,3.5736,3.5153,3.4632,3.4423,3.4463,3.4321,3.3844,3.3807,3.3807,3.3807,3.3807,3.3999,3.4475,3.4494,3.4494,3.4494,3.4494,3.4549,3.4705,3.4698,3.496,3.5493,3.5493,3.5301,3.4927,3.4756,3.4377,3.3807,3.3807,3.3807,3.3788,3.3615,3.3295,3.2847,3.2396,3.2109,3.1896,3.1406,3.119,3.119,3.119,3.1351,3.1545,3.1545,3.175,3.1986,3.2179,3.255,3.2952,3.3136,3.3494,3.3917,3.4394,3.4504,3.4633,3.5128,3.5514,3.5771,3.5771,3.6413,3.6982,3.6982,3.7643,3.8193,3.8193,3.8682,3.9212,3.9552,3.988,4.0139,4.025,4.0389,4.0441,4.0267,4.052,4.0479,4.0045,4.0059,4.0102,4.0102,4.0215,3.9878,3.9014,3.9112,3.8773,3.7905,3.8017,3.7513,3.6262,3.6451,3.5869,3.4666,3.4951,3.4921,3.4334,3.5054,3.5456,3.6557,3.733,3.7539,3.6488,3.6268,3.6124,3.5691,3.4861,3.4318,3.4637,3.4102,3.3869,3.4795,3.4866,3.4964,3.5267,3.4886,3.4561,3.4559,3.4829,3.489,3.4523,3.4284,3.4229,3.4476,3.4256,3.4494,3.5293,3.5375,3.5358,3.5358,3.5376,3.5375,3.5375,3.5361,3.5641,3.6194,3.6194,3.6001,3.5633,3.53,3.4916,3.4494,3.4494,3.4494,3.4494,3.4494,3.4246,3.3808,3.3491,3.3268,3.309,3.2468,3.1874,3.1389,3.1524,3.1677,3.1825,3.1951,3.223,3.2517,3.2648,3.3096,3.3539,3.3676,3.4089,3.4614,3.522,3.5367,3.5532,3.6156,3.6468,3.6615,3.6615,3.7257,3.7826,3.7826,3.8303,3.8707,3.8707,3.8855,3.9156,3.96,4.0049,4.0289,4.0233,4.0584,4.0754,4.0463,4.0874,4.101,4.0682,4.0929,4.1111,4.1111,4.1313,4.096,3.9851,4.0023,3.9599,3.8546,3.9022,3.8653,3.7318,3.7607,3.7115,3.5782,3.5619,3.5504,3.3428,3.4785,3.6165,3.698,3.7946,3.8396,3.7379,3.7137,3.6869,3.581,3.4455,3.3704,3.4549,3.3527,3.3198,3.515,3.4782,3.4596,3.5727,3.4929,3.4516,3.5355,3.5198,3.5302,3.6138,3.5467,3.5312,3.6149,3.5423,3.5329,3.6213,3.625,3.6251,3.6255,3.626,3.6517,3.7015,3.7032,3.7319,3.7924,3.7924,3.7602,3.7021,3.6498,3.6231,3.6213,3.6213,3.6213,3.6213,3.6213,3.5945,3.5522,3.5495,3.5227,3.4826,3.4779,3.3509,3.1861,3.2316,3.2161,3.1897,3.235,3.2484,3.2583,3.3045,3.3725,3.4431,3.4822,3.554,3.6229,3.6248,3.6266,3.6266,3.6285,3.689,3.7441,3.7441,3.8102,3.867,3.867,3.8689,3.8707,3.8707,3.8707,3.8995,3.9766,4.0464,4.0772,4.0537,4.1239,4.162,4.1302,4.1745,4.1919,4.1576,4.128,4.1111,4.1111,4.1827,4.1724,4.0624,4.1308,4.1171,4.007,4.0037,3.9629,3.8821,3.8133,3.7397,3.6554,3.5831,3.5504,3.3212,3.4744,3.62,3.7016,3.7948,3.8433,3.7451,3.719,3.6921,3.581,3.4827,3.4267,3.4637,3.4341,3.4351,3.5328,3.5243,3.5379,3.6296,3.5627,3.5293,3.5955,3.6407,3.6762,3.7055,3.6358,3.5993,3.6288,3.6028,3.6234,3.7055,3.7092,3.7106,3.7113,3.7106,3.7092,3.7092,3.7089,3.7406,3.7997,3.7593,3.7185,3.6814,3.6454,3.6307,3.6307,3.6307,3.6307,3.6307,3.6307,3.6216,3.6022,3.5705,3.5684,3.58,3.549,3.4918,3.4307,3.414,3.4211,3.4363,3.4512,3.4754,3.5054,3.5221,3.5451,3.57,3.5834,3.6064,3.6413,3.6945,3.7092,3.7221,3.7771,3.8102,3.8303,3.8303,3.8505,3.8707,3.8707,3.8707,3.8872,3.9405,3.9637,4.0123,4.1147,4.1525,4.1813,4.2189,4.2256,4.2161,4.1859,4.2269,4.2433,4.2073,4.2445,4.269,4.269,4.2947,4.2577,4.1463,4.1669,4.1241,4.0121,4.007,3.9714,3.8908,3.8133,3.7397,3.6615,3.5831,3.5504,3.3258,3.4593,3.5925,3.6587,3.7592,3.8162,3.7238,3.7127,3.6943,3.6054,3.4914,3.4218,3.4637,3.4535,3.4688,3.5633,3.5792,3.6088,3.6877,3.6284,3.6028,3.6644,3.7422,3.8028,3.8322,3.8143,3.7779,3.7192,3.7173,3.7381,3.79,3.7937,3.7937,3.7937,3.7937,3.79,3.7814,3.7921,3.8293,3.8885,3.8156,3.7791,3.7723,3.7314,3.7168,3.7168,3.7168,3.7168,3.7168,3.7168,3.7168,3.7131,3.682,3.6897,3.7136,3.6821,3.669,3.6565,3.5706,3.5497,3.5612,3.5805,3.6054,3.6303,3.6303,3.6486,3.6725,3.6725,3.6927,3.7276,3.779,3.7918,3.8046,3.8579,3.8707,3.8707,3.8707,3.8707,3.8799,3.9074,3.9129,3.9386,4.0194,4.0726,4.1293,4.2144,4.2562,4.275,4.2716,4.2745,4.2673,4.2363,4.2884,4.3107,4.276,4.3185,4.3497,4.3497,4.3497,4.2977,4.1853,4.181,4.1241,4.0121,4.007,3.985,3.9315,3.858,3.779,3.704,3.6228,3.5718,3.3565,3.444,3.5397,3.5768,3.6863,3.7675,3.6868,3.6988,3.7076,3.6522,3.4916,3.3853,3.4598,3.4301,3.4474,3.6098,3.6387,3.6633,3.7452,3.6883,3.6652,3.7489,3.8267,3.9056,3.9827,4.0664,4.0511,3.8927,3.8781,3.8762,3.8762,3.8726,3.8707,3.8707,3.8707,3.8817,3.9087,3.9445,3.99,4.0425,3.9551,3.9271,3.9534,3.8958,3.8707,3.8707,3.8707,3.8707,3.8707,3.8707,3.8707,3.8707,3.8707,3.8707,3.8707,3.8707,3.8707,3.8487,3.6945,3.6121,3.5851,3.6278,3.6413,3.6413,3.6413,3.6945,3.7551,3.7551,3.8102,3.8707,3.8707,3.8707,3.8707,3.8707,3.8726,3.8762,3.8762,3.8799,3.9056,3.9808,3.9992,4.0267,4.1038,4.1827,4.2456,4.2802,4.3483,4.3527,4.229,4.285,4.3208,4.2917,4.3539,4.3868,4.3513,4.3497,4.3497,4.3497,4.3497,4.2977,4.1853,4.181,4.1241,4.0121,4.007,4.007,4.007,3.9315,3.8525,3.7806,3.6964,3.6228,3.3597,3.4565,3.5643,3.5207,3.6348,3.7434,3.6826,3.7235,3.7468,3.6601,3.6319,3.6095,3.5676,3.6284,3.6982,3.7429,3.7312,3.7544,3.8563,3.7829,3.7477,3.8303,0.0,3.9662,3.9863,4.1158,4.1562,4.0561,3.9926,3.959,3.959,3.9032,3.8707,3.8707,3.8707,3.8817,3.9087,3.9675,3.9814,3.9469,3.947,3.9289,3.8921,3.8762,3.8707,3.8707,3.8707,3.8707,3.8707,3.8707,3.8707,3.8707,3.8707,3.8707,3.8707,3.8707,3.8707,3.8652,3.823,3.8004,3.7924,3.8053,3.8083,3.8083,3.8083,3.823,3.8395,3.8395,3.8542,3.8707,3.8707,3.8707,3.8707,3.8707,3.9166,3.9588,3.9588,4.0065,4.0561,4.0763,4.1277,4.1754,4.1956,4.2653,4.3201,4.3317,4.3483,4.3719,4.3917,4.3867,4.3789,4.3718,4.3661,4.3597,4.3532,4.3497,4.3497,4.3497,4.3497,4.2977,4.1853,4.181,4.1241,4.0121,4.007,4.007,4.007,3.9315,3.8799,3.858,3.7247,3.6492,3.4489,3.4795,3.5275,3.5257,3.6091,3.687,3.7035,3.7476,3.7739,3.7175,3.6873,3.66,3.6504,3.7397,3.8273,3.8627,3.9036,3.9515,4.0111,3.9571,3.9239,3.9698,4.0469,4.0946,4.0946,4.2099,4.265,4.2194,4.1405,4.0662,3.9933,3.9479,3.905,3.8707,3.8707,3.8817,3.9087,3.9358,3.9433,3.9331,3.9245,3.9083,3.8854,3.8744,3.8707,3.8707,3.8707,3.8707,3.8707,3.8707,3.8707,3.8707,3.8707,3.8707,3.8707,3.8707,3.8707,3.8707,3.8707,3.8707,3.8707,3.8707,3.8707,3.8707,3.8707,3.8707,3.8707,3.8707,3.8707,3.8707,3.8707,3.8964,3.9239,3.9239,3.9845,4.0432,4.0432,4.0781,4.1203,4.157,4.2286,4.2818,4.2818,4.3185,4.3497,4.3497,4.3497,4.3664,4.4065,4.3912,4.3772,4.3772,4.3612,4.3497,4.3497,4.3497,4.3497,4.3497,4.3497,4.2977,4.1853,4.181,4.1241,4.0121,4.007,4.007,4.007,3.9662,3.9262,3.8854,3.7658,3.6904,3.5504,3.5067,3.4871,3.5586,3.5971,3.6414,3.729,3.7776,3.7987,3.7915,3.7062,3.6565,3.7175,3.7994,3.8877,3.9704,4.0736,4.1493,4.1656,4.1356,4.1111,4.1111,4.1809,4.2304,4.2304,4.302,4.3497,4.3497,4.2842,4.1779,4.0307,4.0123,3.9743,3.9038,3.9019,3.9129,3.9362,3.9068,3.916,3.9637,3.9152,3.9013,3.9209,3.9068,3.9013,3.9013,3.9013,3.9013,3.9013,3.9013,3.9013,3.9013,3.9013,3.9013,3.9013,3.9013,3.9013,3.9013,3.9013,3.9013,3.8977,3.8762,3.8707,3.8707,3.8707,3.8707,3.8726,3.8836,3.8854,3.8891,3.9001,3.9533,4.0065,4.0065,4.0671,4.1277,4.1277,4.135,4.1625,4.2323,4.302,4.3497,4.3497,4.3497,4.3497,4.3497,4.3497,4.3497,4.3497,4.3497,4.3497,4.3497,4.3497,4.3497,4.3497,4.3497,4.3497,4.3497,4.3497,4.2977,4.1853,4.181,4.1241,4.0121,4.007,4.007,4.007,4.007,3.9731,3.9032,3.8302,3.7499,3.4861,3.5139,3.5551,3.5083,3.6116,3.729,3.7477,3.8059,0.0,3.7977,3.8067,3.8129,3.7845,3.8439,3.9375,4.0521,4.0613,4.0865,4.1865,4.1477,4.1111,4.1111,4.1809,4.2304,4.2304,4.302,4.3497,4.3497,4.3369,4.2876,4.1944,4.1238,4.0833,4.0708,4.0689,4.0726,4.0744,4.027,3.9974,3.9872,3.9993,3.9915,3.9786,4.04,4.0671,4.0671,4.0671,4.0671,4.0671,4.0671,4.0671,4.0671,4.0671,4.0671,4.0671,4.0671,4.0671,4.0671,4.0671,4.0671,4.0456,3.9124,3.8707,3.8707,3.8707,3.8707,3.8836,3.9496,3.968,3.9845,4.0524,4.0799,4.0891,4.0891,4.1515,4.2084,4.2084,4.2598,4.3112,4.3259,4.3387,4.3497,4.3497,4.3497,4.3497,4.3497,4.3497,4.3497,4.3497,4.3497,4.3497,4.3497,4.3497,4.3497,4.3497,4.3497,4.3497,4.3497,4.3497,4.2977,4.1853,4.181,4.1241,4.0121,4.007,4.007,4.007,4.007,4.002,3.9885,3.9086,3.8302,3.5182,3.5322,3.5668,3.5948,3.638,3.6979,3.79,0.0,0.0,3.8297,3.8511,3.867,3.8548,3.9357,4.0271,4.0989,4.1533,4.2049,4.2656,4.2525,4.2359,4.2359,4.269,4.291,4.291,4.3259,4.3497,4.3497,4.3497,4.3151,4.2333,4.1517,4.1113,4.1082,4.1097,4.1097,4.1115,4.0818,4.0638,4.0542,4.0652,4.0651,4.0551,4.0914,4.1111,4.1111,4.1111,4.1111,4.1111,4.1111,4.1111,4.1111,4.1111,4.1111,4.1111,4.1111,4.1111,4.1111,4.1111,4.1111,4.095,4.0207,3.9932,3.9955,3.9955,3.9955,4.0047,4.0414,4.0524,4.0616,4.102,4.1423,4.1735,4.1735,4.2341,4.291,4.291,4.3222,4.3497,4.3497,4.3497,4.3497,4.3497,4.3497,4.3497,4.3497,4.3497,4.3497,4.3497,4.3497,4.3497,4.3497,4.3497,4.3497,4.3497,4.3497,4.3497,4.3497,4.3497,4.2977,4.1853,4.181,4.1241,4.0121,4.007,4.007,4.007,4.007,4.007,4.007,3.9262,3.869,3.591,3.5908,3.6177,3.7203,3.693,3.6826,3.8423,3.8327,0.0,3.8438,3.8634,3.8762,3.8977,3.9841,4.0728,0.0,4.2297,4.309,4.3532,4.3545,4.3497,4.3497,4.3497,4.3497,4.3497,4.3497,4.3497,4.3497,4.3497,4.3206,4.2587,4.1969,4.1604,4.1614,4.1611,4.1592,4.1595,4.1449,4.135,4.1359,4.1359,4.1346,4.1371,4.1517,4.1624,4.1624,4.1624,4.1624,4.1624,4.1624,4.1624,4.1624,4.1624,4.1624,4.1624,4.1624,4.1624,4.1624,4.1624,4.1624,4.1624,4.1624,4.14,4.1101,4.1097,4.1097,4.1134,4.1332,4.1368,4.1405,4.1589,4.2084,4.2561,4.2561,4.3039,4.3497,4.3497,4.3497,4.3497,4.3497,4.3497,4.3497,4.3497,4.3497,4.3497,4.3497,4.3497,4.3497,4.3497,4.3497,4.3497,4.3497,4.3497,4.3497,4.3497,4.3497,4.3497,4.3497,4.3497,4.2977,4.1853,4.181,4.1241,4.0121,4.007,4.007,4.007,4.007,4.007,4.007,3.9437,3.9086,3.6857,3.7335,3.8086,3.8235,3.8025,3.7949,3.8865,0.0,3.7918,3.7955,3.8383,3.8707,3.8726,3.9032,3.9872,4.1722,0.0,4.2384,4.4229,4.3902,4.3497,4.3497,4.3497,4.3497,4.3497,4.3497,4.3497,4.3497,4.3497,4.3461,4.3387,4.3332,4.3296,4.3277,4.3277,4.3277,4.3277,4.2567,4.2203,4.2184,4.2184,4.2203,4.2223,4.2933,4.3296,4.3296,4.3296,4.3296,4.3296,4.3296,4.3296,4.3296,4.3296,4.3296,4.3296,4.3296,4.3296,4.3296,4.3296,4.3296,4.3296,4.3296,4.2278,4.1097,4.1104,4.1101,4.1247,4.1992,4.2194,4.2359,4.3075,4.3314,4.3387,4.3387,4.3442,4.3497,4.3497,4.3497,4.3497,4.3497,4.3497,4.3497,4.3497,4.3497,4.3497,4.3497,4.3497,4.3497,4.3497,4.3497,4.3497,4.3497,4.3497,4.3497,4.3497,4.3497,4.3497,4.3497,4.3497,4.2977,4.1853,4.181,4.1241,4.0121,4.007,4.007,4.007,4.007,4.007,4.007,4.002,3.961,3.7611,3.8209,3.8952,3.8625,3.8704,3.8826,3.8683,3.8105,3.7844,3.8496,3.8413,3.8475,3.9265,3.9398,3.9815,4.1152,4.181,4.2542,4.3671,4.3811,4.373,4.3495,4.3497,4.3497,4.3497,4.3497,4.3497,4.3497,4.3497,4.3497,4.3497,4.3497,4.3497,4.3497,4.3497,4.3497,4.3497,4.3169,4.3023,4.3023,4.3023,4.3023,4.3041,4.3351,4.3497,4.3497,4.3497,4.3497,4.3497,4.3497,4.3497,4.3497,4.3497,4.3497,4.3497,4.3497,4.3497,4.3497,4.3497,4.3497,4.3497,4.3497,4.3078,4.2532,4.2546,4.2527,4.2601,4.2928,4.302,4.3094,4.3406,4.3497,4.3497,4.3497,4.3497,4.3497,4.3497,4.3497,4.3497,4.3497,4.3497,4.3497,4.3497,4.3497,4.3497,4.3497,4.3497,4.3497,4.3497,4.3497,4.3497,4.3497,4.3497,4.3497,4.3497,4.3497,4.3497,4.3497,4.3956,4.3704,4.2526,4.2943,4.2393,4.0815,4.1187,4.1204,4.0747,4.0747,4.0747,4.0747,4.029,3.9952,3.8797,3.9294,3.9705,3.9311,3.9364,3.9381,3.886,3.8283,3.8105,3.9013,3.8888,3.894,4.0042,4.0141,4.039,0.0,4.2155,4.2886,4.371,4.4261,4.4408,4.4044,4.3996,4.3999,4.3881,4.3626,4.3497,4.3497,4.3497,4.3497,4.3497,4.3497,4.3497,4.3497,4.3497,4.3497,4.3497,4.3497,4.3497,4.3497,4.3497,4.3497,4.3497,4.3497,4.3497,4.3497,4.3497,4.3497,4.3497,4.3497,4.3497,4.3497,4.3497,4.3497,4.3497,4.3497,4.3497,4.3497,4.3497,4.3497,4.3497,4.3497,4.3497,4.3497,4.3497,4.3497,4.3497,4.3497,4.3497,4.3497,4.3497,4.3497,4.3497,4.3497,4.3497,4.3497,4.3497,4.3497,4.3497,4.3497,4.3497,4.3497,4.3497,4.3699,4.3846,4.3846,4.3846,4.3938,4.4176,4.3993,4.3938,4.4176,4.4195,4.4011,4.3534,4.3718,4.3846,4.3846,4.4617,4.4522,4.328,4.3811,4.3284,4.1577,4.2033,4.2033,4.1525,4.1525,4.1525,4.1508,4.0984,4.0627,4.0475,4.0618,4.0601,4.0666,4.0099,3.9564,3.972,3.917,3.8764,3.9393,3.9848,4.0366,4.0976,4.1093,4.1564,4.305,4.3015,4.3342,4.4874,4.5483,4.5613,4.5221,4.5258,4.5119,4.4726,4.3975,4.3497,4.3497,4.3497,4.3497,4.3497,4.3497,4.3497,4.3497,4.3497,4.3497,4.3497,4.3497,4.3497,4.3497,4.3497,4.3497,4.3497,4.3497,4.3497,4.3497,4.3497,4.3497,4.3497,4.3497,4.3497,4.3497,4.3497,4.3497,4.3497,4.3497,4.3497,4.3497,4.3497,4.3497,4.3497,4.3497,4.3497,4.3497,4.3497,4.3497,4.3497,4.3497,4.3497,4.3497,4.3497,4.3497,4.3497,4.3497,4.3497,4.3497,4.3497,4.3497,4.3497,4.3497,4.3497,4.3497,4.3497,4.4158,4.469,4.469,4.469,4.4984,4.5773,4.5186,4.5002,4.5792,4.5883,4.5223,4.3626,4.4232,4.469,4.469,4.5443,4.5358,4.4156,4.4112,4.3528,4.2323,4.2286,4.2286,4.2286,4.2286,4.2286,4.2286,4.2269,4.1858,4.1498,4.1765,4.1926,4.1564,4.1244,4.087,3.9981,3.9336,3.9164,4.0105,4.0006,4.0177,4.1656,4.1667,4.206,4.3894,4.4291,4.4948,4.6584,4.6934,4.6796,4.6159,4.5379,4.4847,4.4709,4.3975,4.3497,4.3497,4.3497,4.3497,4.3497,4.3497,4.3497,4.3497,4.3497,4.3497,4.3497,4.3497,4.3497,4.3497,4.3497,4.3497,4.3497,4.3497,4.3497,4.3497,4.3497,4.3497,4.3497,4.3497,4.3497,4.3497,4.3497,4.3497,4.3497,4.3497,4.3497,4.3497,4.3497,4.3497,4.3497,4.3497,4.3497,4.3497,4.3497,4.3497,4.3497,4.3497,4.3497,4.3497,4.3497,4.3497,4.3497,4.3497,4.3497,4.3497,4.3497,4.3497,4.3644,4.4213,4.4323,4.4488,4.5039,4.5351,4.5516,4.5516,4.5516,4.5608,4.5865,4.5681,4.5626,4.5865,4.5902,4.5681,4.5168,4.5369,4.5516,4.5516,4.6287,4.6176,4.489,4.5357,4.4838,4.3064,4.3589,4.3589,4.3064,4.3064,4.2794,4.2286,4.2286,4.1875,4.2523,4.2559,4.2616,4.2244,4.1979,4.1498,4.045,3.9812,3.9734,4.0873,4.0737,4.0842,4.2445,4.2625,4.2959,4.4365,4.5143,4.596,4.7157,4.7867,4.801,4.7274,4.6268,4.5388,4.4764,4.425,4.3828,4.3516,4.3497,4.3497,4.3497,4.3497,4.3497,4.3497,4.3497,4.3497,4.3497,4.3497,4.3497,4.3497,4.3497,4.3497,4.3497,4.3497,4.3497,4.3497,4.3497,4.3497,0.0,4.3497,4.3497,4.3497,4.3497,4.3497,4.3497,4.3497,4.3497,4.3497,4.3497,4.3497,4.3497,4.3497,4.3497,4.3497,4.3497,4.3497,4.3497,4.3497,4.3497,4.3497,4.3497,4.3497,4.3497,4.3497,4.3497,4.3497,4.3497,4.3736,4.4103,4.4617,4.4947,4.5314,4.581,4.6159,4.6361,4.6361,4.6361,4.6471,4.6764,4.6544,4.6471,4.6764,4.6819,4.6819,4.6819,4.6526,4.6361,4.6361,4.7113,4.6953,4.5705,4.6118,4.5588,4.3859,4.4333,4.4333,4.3859,4.3859,4.3623,4.3149,4.3149,4.2913,0.0,4.3142,4.275,4.275,4.2302,4.1725,4.1087,4.0546,0.0,4.1508,4.175,4.2162,4.3305,4.3777,4.4154,4.4678,4.5675,4.6541,4.7011,4.8414,4.9149,4.8464,4.7608,4.6507,4.4947,4.4745,4.4378,4.3552,4.3497,4.3497,4.3497,4.3497,4.3497,4.3497,4.3497,4.3497,4.3497,4.3497,4.3497,4.3497,4.3497,4.3497,4.3497,4.3497,4.3497,4.3497,4.3497,4.3497,4.3497,4.3497,4.3497,4.3497,4.3497,4.3497,4.3497,4.3497,4.3497,4.3497,4.3497,4.3497,4.3497,4.3497,4.3497,4.3497,4.3497,4.3497,4.3497,4.3497,4.3497,4.3497,4.3497,4.3497,4.3497,4.3497,4.3534,4.3589,4.3589,4.4213,4.4819,4.4874,4.548,4.5993,4.6067,4.6691,4.7205,4.7205,4.7205,4.748,4.8214,4.7664,4.748,4.8233,4.8306,4.8306,4.8306,4.7627,4.7205,4.7205,4.7902,4.7738,4.6478,4.6383,4.5815,4.4626,4.4587,4.4587,4.4587,4.4587,4.4587,4.4587,4.4587,4.4587,4.3497,0.0,4.3286,4.3286,4.2884,4.2342,0.0,4.1133,4.078,0.0,0.0,4.2199,4.3547,4.391,4.4528,4.6166,4.6928,4.7652,4.8664,4.9205,4.9416,4.9249,4.7961,4.6728,4.5718,4.5057,4.4378,4.3552,4.3497,4.3497,4.3497,4.3497,4.3497,4.3497,4.3497,4.3497,4.3497,4.3497,4.3497,4.3497,4.3497,4.3497,4.3497,4.3497,4.3497,4.3497,4.3497,4.3497,4.3497,4.3497,4.3497,4.3497,4.3497,4.3497,4.3497,4.3497,4.3497,4.3497,4.3497,4.3497,4.3497,4.3497,4.3497,4.3497,4.3497,4.3497,4.3497,4.3497,4.3497,4.3497,4.3497,4.3497,4.3497,4.3497,4.3975,4.4415,4.4415,4.5057,4.581,4.6434,4.6709,4.7021,4.7627,4.7902,4.8031,4.8031,4.8031,4.8104,4.8288,4.8141,4.8104,4.8288,4.8306,4.8306,4.8306,4.8141,4.8031,4.8031,4.8214,4.7738,4.6478,4.6383,4.5815,4.4626,4.4587,4.4587,4.4587,4.4587,4.4587,4.4587,4.4587,4.4587,4.3497,4.3497,4.3497,4.3497,4.3105,4.2519,4.1937,0.0,0.0,0.0,0.0,0.0,4.3156,4.4007,0.0,4.6242,4.7422,4.8586,4.9817,4.9873,4.9719,4.9504,4.8572,4.7554,4.6526,4.6067,4.548,4.4654,4.4599,4.4433,4.4066,4.4048,4.4048,4.4048,4.4048,4.3864,4.3497,4.3497,4.3497,4.3497,4.3497,4.3497,4.3497,4.3497,4.3497,4.3497,4.3497,4.3497,4.3497,4.3497,4.3497,4.3497,4.3497,4.3497,4.3497,4.3497,4.3497,4.3497,4.3497,4.3497,4.3497,4.3497,4.3497,4.3497,4.3497,4.3497,4.3497,4.3497,4.3497,4.3589,4.3956,4.4048,4.414,4.4507,4.4929,4.5259,4.5259,4.5883,4.6581,4.704,4.7407,4.781,4.8233,4.8306,4.8306,4.8306,4.8306,4.8306,4.8306,4.8306,4.8306,4.8306,4.8306,4.8306,4.8306,4.8306,4.8306,4.8306,4.8306,4.7738,4.6478,4.6383,4.5815,4.4626,4.4587,4.4587,4.4587,4.4587,4.4587,4.4587,4.4587,4.4587,4.3497,4.3589,4.3644,4.3516,4.3178,4.2655,4.2062,0.0,0.0,0.0,0.0,0.0,0.0,4.4389,0.0,0.0,4.7903,4.951,5.0721,5.0435,4.9974,4.9617,4.9171,4.8463,4.7298,4.715,4.6783,4.5957,4.5902,4.5608,4.4929,4.4892,4.4892,4.4892,4.4892,4.4562,4.3864,4.3864,4.3846,4.3881,4.3881,4.3862,4.3879,4.3879,4.3879,4.3879,4.3879,4.3879,4.3879,4.3879,4.3879,4.3826,4.3734,4.3679,4.3679,4.3534,4.3497,4.3497,4.3497,4.3571,4.3681,4.3681,4.3754,4.3864,4.3864,4.3864,4.3864,4.3864,4.3773,4.3864,4.4672,4.4892,4.5057,4.5736,4.5993,4.6085,4.6085,4.6728,4.7297,4.7297,4.7847,4.8306,4.8306,4.8306,4.8306,4.8306,4.8306,4.8306,4.8306,4.8306,4.8306,4.8306,4.8306,4.8306,4.8306,4.8306,4.8306,4.8306,4.8306,4.7738,4.6478,4.624,4.5648,4.4626,4.4587,4.4587,4.4587,4.4587,4.4587,4.4587,4.4587,4.4587,4.3497,4.3993,4.436,4.3663,4.3444,4.325,0.0,0.0,0.0,0.0,0.0,0.0,0.0,4.5875,4.7269,0.0,4.9754,5.072,5.1586,5.0776,5.0068,5.0019,4.9337,4.8546,4.7679,4.7278,4.6783,4.5957,4.5902,4.5847,4.5718,4.5718,4.5718,4.5718,4.5718,4.5663,4.5535,4.5535,4.5534,4.5515,4.5515,4.553,4.5542,4.5542,4.5542,4.5542,4.5542,4.5542,4.5542,4.5542,4.5542,4.5469,4.4791,4.4536,4.441,4.3752,4.3497,4.3497,4.3497,4.3956,4.4525,4.4525,4.4984,4.5535,4.5535,4.5535,4.5535,4.5535,4.5039,4.4709,4.5516,4.5718,4.5755,4.5865,4.6434,4.6929,4.6929,4.7553,4.8122,4.8122,4.8233,4.8306,4.8306,4.8306,4.8306,4.8306,4.8306,4.8306,4.8306,4.8306,4.8306,4.8306,4.8306,4.8306,4.8306,4.8306,4.8306,4.8306,4.8306,4.7738,4.6478,4.5407,4.4759,4.457,4.4587,4.4587,4.4587,4.4587,4.4587,4.4587,4.4587,4.4587,4.3369,4.3754,4.4066,4.4121,4.447,4.4546,0.0,0.0,0.0,0.0,0.0,0.0,0.0,0.0,4.8096,5.0134,5.0964,5.1491,5.1856,5.1062,5.0336,5.0135,4.9589,4.899,4.8408,4.7996,4.7609,4.7223,4.7205,4.7021,4.6581,4.6562,4.6562,4.6562,4.6562,4.6764,4.7186,4.7205,4.6746,4.5883,4.5883,4.592,4.5901,4.5883,4.5883,4.5883,4.5883,4.5883,4.5883,4.5883,4.5883,4.5847,4.548,4.5333,4.5312,4.4946,4.48,4.48,4.48,4.5039,4.5351,4.5351,4.5608,4.5902,4.5902,4.5902,4.5993,4.6434,4.5975,4.5535,4.6342,4.6562,4.6673,4.7095,4.748,4.7755,4.7755,4.8049,4.8306,4.8306,4.8306,4.8306,4.8306,4.8306,4.8306,4.8306,4.8306,4.8306,4.8306,4.8306,4.8306,4.8306,4.8306,4.8306,4.8306,4.8728,4.8648,4.7875,4.7452,4.6847,4.5965,4.5089,4.4587,4.4587,4.4587,4.4773,4.5179,4.5179,4.5399,4.5771,4.5771,4.5771,4.3039,4.3479,4.3883,0.0,0.0,0.0,0.0,0.0,0.0,0.0,0.0,0.0,0.0,4.7481,4.9238,5.1419,5.1826,5.1914,5.1914,5.1202,5.0604,5.0272,4.98,4.9386,4.9075,4.8604,4.8306,4.8306,4.8306,4.8031,4.7425,4.7388,4.7388,4.7388,4.7388,4.77,4.8306,4.8306,4.7682,4.6452,4.647,4.6451,4.647,4.6448,4.6464,4.6464,4.6464,4.6464,4.6464,4.6464,4.6464,4.6446,4.6243,4.6065,4.5902,4.5902,4.5902,4.5902,4.5902,4.6012,4.6177,4.6177,4.6305,4.6452,4.6452,4.6452,4.6599,4.7223,4.6948,4.6599,4.7241,4.7388,4.7553,4.8159,4.8306,4.8306,4.8306,4.8306,4.8306,4.8306,4.8306,4.8306,4.8306,4.8306,4.8379,4.8563,4.86,4.8673,4.8857,4.8893,4.8893,4.8893,4.8893,4.8893,4.8893,4.9499,4.9255,4.7831,4.7262,4.6688,4.6031,4.5435,4.5094,4.5094,4.5094,4.5382,4.5957,4.5957,4.6244,4.6786,4.6786,4.6786,4.2378,4.3479,4.4452,4.3754,0.0,0.0,0.0,0.0,0.0,0.0,0.0,0.0,0.0,4.9476,5.1476,5.2831,5.2413,5.1914,5.1914,5.1202,5.0683,5.0663,4.9974,4.9475,4.9445,4.8763,4.8306,4.8306,4.8306,4.8269,4.8233,4.8214,4.8214,4.8214,4.8214,4.8251,4.8306,4.8306,4.8251,4.8141,4.8141,4.8141,4.8141,4.8121,4.8121,4.8121,4.8121,4.8121,4.8121,4.8121,4.8121,4.8047,4.7311,4.658,4.5902,4.5902,4.5902,4.5902,4.5902,4.6397,4.7021,4.7021,4.7535,4.8141,4.8141,4.8141,4.8141,4.8214,4.8177,4.8141,4.8214,4.8214,4.8233,4.8306,4.8306,4.8306,4.8306,4.8306,4.8306,4.8306,4.8306,4.8306,4.8306,4.8306,4.8563,4.937,4.9499,4.9774,5.0527,5.0618,5.0618,5.0618,5.0618,5.0618,5.0618,5.0674,5.0144,4.8755,4.8657,4.8307,4.7553,4.6971,4.6633,4.6633,4.6633,4.6667,4.6718,4.6718,4.6735,4.6786,4.6786,4.6786,4.2158,4.3479,4.4635,4.4323,0.0,0.0,0.0,0.0,0.0,0.0,0.0,0.0,0.0,0.0,5.1828,5.2317,5.2125,5.1914,5.1914,5.1202,5.0604,5.0358,4.9827,4.9416,4.9139,4.864,4.8306,4.8306,4.8306,4.8306,4.8306,4.8306,4.8306,4.8306,4.8306,4.8306,4.8306,4.8306,4.8306,4.8306,4.8306,4.8306,4.8306,4.8306,4.8306,4.8306,4.8306,4.8306,4.8306,4.8306,4.8306,4.8288,4.7974,4.7662,4.7388,4.7388,4.7388,4.7388,4.7388,4.759,4.7865,4.7865,4.8067,4.8306,4.8306,4.8306,4.8306,4.8306,4.8306,4.8306,4.8306,4.8306,4.8306,4.8306,4.8306,4.8306,4.8306,4.8306,4.8306,4.8306,4.8728,4.9095,4.9095,4.9517,4.9976,5.0306,5.0343,5.0453,5.0765,5.0802,5.0802,5.0802,5.0802,5.1004,5.1499,5.111,5.0705,5.0234,4.9316,4.8277,4.7182,4.6944,4.6786,4.6786,4.6786,4.7022,4.7496,4.7496,4.7716,4.8173,4.8173,4.7894,4.2451,4.3663,4.4764,0.0,0.0,0.0,0.0,0.0,0.0,0.0,0.0,0.0,0.0,0.0,5.1529,5.1529,5.1529,5.1529,5.1529,5.1048,5.0544,5.0159,4.9746,4.9356,4.893,4.855,4.8306,4.8306,4.8306,4.8306,4.8306,4.8306,4.8306,4.8306,4.8306,4.8306,4.8306,4.8306,4.8306,4.8306,4.8306,4.8306,4.8306,4.8306,4.8306,4.8306,4.8306,4.8306,4.8306,4.8306,4.8306,4.8306,4.8306,4.8306,4.8306,4.8306,4.8306,4.8306,4.8306,4.8306,4.8306,4.8306,4.8306,4.8306,4.8306,4.8306,4.8306,4.8306,4.8306,4.8306,4.8306,4.8306,4.8306,4.8306,4.8306,4.8379,4.8655,4.871,4.8783,4.904,4.9572,4.9976,4.9976,5.0435,5.0894,5.1132,5.1187,5.1261,5.1536,5.1573,5.1573,5.1573,5.1573,5.1692,5.1999,5.1565,5.1119,5.0788,4.9785,4.8638,4.7539,4.7479,4.7479,4.7479,4.7479,4.775,4.8257,4.8257,4.8528,4.9001,4.8719,4.8225,4.3259,4.4085,0.0,0.0,0.0,0.0,0.0,0.0,0.0,0.0,0.0,4.8786,4.9378,5.0159,5.0702,5.0702,5.0702,5.0702,5.0702,5.0702,5.0544,5.0159,4.9746,4.9326,4.893,4.8532,4.8306,4.8306,4.8306,4.8306,4.8306,4.8306,4.8306,4.8306,4.8306,4.8306,4.8324,4.8324,4.8324,4.8324,4.8324,4.8324,4.8324,4.8324,4.8324,4.8324,4.8324,4.8324,4.8324,4.8324,4.8324,4.8324,4.8306,4.8306,4.8306,4.8306,4.8306,4.8306,4.8306,4.8306,4.8306,4.8306,4.8306,4.8306,4.8306,4.8306,4.8306,4.8306,4.8324,4.8324,4.8324,4.8324,4.8324,4.8324,4.8324,4.8563,4.9426,4.9591,4.9829,5.0655,5.082,5.082,5.082,5.082,5.1096,5.1885,5.1995,5.2289,5.3115,5.3206,5.3206,5.3206,5.3206,5.2875,5.2159,5.2094,5.1476,5.0072,4.9976,4.9664,4.9001,4.9001,4.9001,4.9001,4.9001,4.9001,4.9001,4.9001,4.9001,4.894,4.8015,4.7589,4.2745,4.3663,0.0,0.0,0.0,0.0,0.0,0.0,0.0,0.0,4.7561,4.8954,4.9397,4.9924,5.0358,5.0663,5.0702,5.0702,5.0702,5.0702,5.0462,4.9746,4.9561,4.9234,4.8532,4.8364,4.8306,4.8306,4.8306,4.8306,4.8306,4.8306,4.8306,4.8306,4.8306,4.86,4.9205,4.9205,4.9499,5.0068,5.0068,4.9756,4.9205,4.9209,4.9504,5.0073,5.0059,5.0061,5.0006,4.9432,4.9229,4.9136,4.8565,4.8306,4.8306,4.8306,4.8306,4.8306,4.8306,4.8306,4.8306,4.8306,4.8306,4.8306,4.8306,4.8306,4.8306,4.8306,4.8746,4.9205,4.9205,4.9627,4.9921,4.9334,4.9646,5.0123,5.038,5.0435,5.0508,5.0747,5.1261,5.1628,5.1628,5.2105,5.2582,5.2821,5.2839,5.2931,5.3188,5.3206,5.2999,5.249,5.2445,5.2131,5.1444,5.0911,5.0445,5.0033,4.9563,4.9212,4.9001,4.9001,4.9001,4.9001,4.9001,4.9001,4.9001,4.837,4.8015,4.8015,4.702,4.626,4.4085,0.0,0.0,0.0,0.0,0.0,0.0,0.0,0.0,0.0,4.7682,4.8917,4.9397,4.9949,5.0421,5.0663,5.0702,5.0702,5.0702,5.0565,5.0206,4.958,4.9356,4.8996,4.8364,4.8306,4.8306,4.8306,4.8306,4.8306,4.8306,4.8306,4.8471,4.8802,4.882,4.9224,5.0068,5.0068,5.0306,5.0802,5.0802,5.071,5.0527,5.0239,5.0349,5.0787,5.0787,5.0787,5.075,5.0288,5.0092,5.0024,4.9483,4.9297,4.9297,4.9297,4.9297,4.9297,4.9297,4.9297,4.9297,4.9297,4.9297,4.9297,4.9297,4.9297,4.9297,4.9297,4.9664,5.0068,5.0068,5.0674,5.1059,5.027,5.0453,5.0894,5.1206,5.1279,5.1371,5.1701,5.2142,5.2472,5.2472,5.2894,5.3206,5.3206,5.2937,5.2769,5.2769,5.2527,5.2196,5.1759,5.1692,5.1444,5.0716,5.0258,4.9896,4.9622,4.9212,4.9001,4.9001,4.9001,4.9001,4.9001,4.9001,4.8798,4.8433,4.7868,4.7373,4.702,4.6048,4.5358,0.0,0.0,0.0,0.0,0.0,0.0,0.0,0.0,4.5833,4.6383,0.0,4.8772,4.9378,5.0092,5.0604,5.0683,5.0702,5.0683,5.0663,5.0336,4.9949,4.9504,4.9108,4.8744,4.8344,4.8306,4.8306,4.8306,4.8306,4.8306,4.8306,4.8379,4.8783,4.9554,4.9646,5.0086,5.0894,5.0912,5.0949,5.1022,5.1022,5.1408,5.2068,5.1279,5.0949,5.1041,5.0999,5.1006,5.0988,5.0933,5.0904,5.0911,5.0824,5.078,5.078,5.082,5.0802,5.0802,5.0802,5.0802,5.0802,5.0802,5.0802,5.0802,5.0802,5.0802,5.0802,5.0802,5.0857,5.0912,5.0912,5.1499,5.1922,5.1187,5.1022,5.1224,5.194,5.2105,5.2325,5.3078,5.3206,5.3206,5.3206,5.3206,5.3164,5.3103,5.2554,5.2065,5.2,5.1494,5.1086,5.1051,5.0981,5.0716,4.9976,4.9971,4.9715,4.9063,4.9001,4.9001,4.9001,4.9001,4.9001,4.9001,4.894,4.8433,4.7589,4.7456,4.6884,4.6048,4.5079,4.4662,0.0,0.0,0.0,0.0,0.0,0.0,0.0,0.0,4.7017,4.715,4.7806,4.8584,4.9356,4.9645,4.9949,5.0604,5.0702,5.0604,5.0272,5.0159,4.9827,4.9108,4.8963,4.8744,4.8344,4.8306,4.8306,4.8306,4.8306,4.8306,4.8306,4.8948,4.9389,4.9572,5.0196,5.093,5.172,5.1738,5.2068,5.2692,5.2692,5.2784,5.2913,5.2087,5.2068,5.2692,5.2687,5.2663,5.2627,5.1993,5.1742,5.1674,5.1036,5.0793,5.0817,5.079,5.0817,5.0802,5.0802,5.0802,5.0802,5.0802,5.0802,5.0802,5.0802,5.0802,5.0802,5.0802,5.1242,5.1738,5.1738,5.2344,5.2913,5.2729,5.2692,5.2747,5.2913,5.2949,5.3004,5.3188,5.3206,5.3206,5.3206,5.3206,5.2999,5.2427,5.2224,5.1904,5.1393,5.1189,5.0894,5.0349,5.0276,4.9993,4.9256,4.9212,4.9168,4.9001,4.9001,4.9001,4.9001,4.9001,4.9001,4.9001,4.8289,4.7803,4.7589,4.6134,4.53,4.5079,4.4066,4.363,0.0,0.0,0.0,0.0,0.0,0.0,0.0,4.7838,4.7838,4.7838,4.8214,4.8779,4.9386,4.9664,4.9974,5.0604,5.0702,5.0565,5.0159,4.9924,4.9589,4.8978,4.8709,4.855,4.8306,4.8306,4.8306,4.8306,4.8691,4.8912,4.8912,4.9719,5.0343,5.0729,5.1151,5.1756,5.2564,5.2564,5.2803,5.3206,5.3206,5.3206,5.3206,5.2766,5.2803,5.3206,5.3206,5.3206,5.3188,5.2736,5.2572,5.2535,5.2126,5.1938,5.1938,5.1949,5.1954,5.1899,5.1529,5.1406,5.1406,5.1406,5.1406,5.1406,5.1406,5.1676,5.1857,5.1529,5.1987,5.2564,5.2564,5.2894,5.3206,5.3206,5.3206,5.3206,5.3206,5.3206,5.3206,5.3206,5.3206,5.3206,5.3206,5.2893,5.2445,5.171,5.1325,5.0964,5.0608,5.0297,4.9953,4.9615,4.9521,4.9359,4.9063,4.9001,4.9001,4.9001,4.9001,4.9001,4.9001,4.8576,4.8306,4.8306,4.7868,4.7172,4.6276,4.53,4.451,4.4066,4.3551,4.3329,0.0,0.0,0.0,0.0,0.0,0.0,4.8391,4.832,4.8267,4.8172,4.8477,4.893,4.9416,4.9773,5.0159,5.0624,5.0624,5.0462,5.0043,4.9645,4.929,4.9033,4.8735,4.8581,4.8728,4.8746,4.8746,4.8746,4.9389,4.9793,4.9793,5.0563,5.1316,5.1977,5.2123,5.2527,5.3206,5.3206,5.3206,5.3206,5.3206,5.3206,5.3206,5.3206,5.3206,5.3206,5.3206,5.3206,5.3206,5.3206,5.3206,5.3206,5.3054,5.2999,5.3017,5.2857,5.2857,5.274,5.2159,5.1904,5.1904,5.1904,5.1904,5.1904,5.1904,5.2335,5.2725,5.2224,5.2554,5.3042,5.3164,5.3206,5.3206,5.3206,5.3103,5.3042,5.3164,5.3206,5.3206,5.3206,5.3103,5.298,5.285,5.2335,5.1692,5.1034,5.039,5.0028,4.9993,4.9445,4.9052,4.9187,4.9086,4.9001,4.9001,4.9001,4.9001,4.9001,4.9001,4.9001,4.9001,4.808,4.7588,4.757,4.7237,4.6346,4.4812,4.4662,4.4143,4.3329,4.3329,4.3329,0.0,0.0,0.0,0.0,0.0,0.0,0.0,0.0,4.8172,4.7614,4.7959,4.8604,4.9356,4.9532,4.9827,5.0584,5.0399,5.0043,4.9636,4.9234,4.9126,4.9471,4.9446,4.9682,5.0398,5.0472,5.0472,5.0472,5.0563,5.0637,5.0637,5.1389,5.1885,5.1995,5.2674,5.3096,5.3206,5.3206,5.3206,5.3206,5.3206,5.3206,5.3206,5.3206,5.3206,5.3206,5.3206,5.3206,5.3206,5.3206,5.3206,5.3151,5.2517,5.2254,5.2163,5.158,5.1397,5.1377,5.1286,5.1241,5.1241,5.1241,5.1241,5.1241,5.1241,5.1292,5.1462,5.1952,5.2159,5.2381,5.3042,5.3206,5.3206,5.3206,5.2707,5.2445,5.306,5.3206,5.3206,5.3206,5.2662,5.2065,5.1462,5.1292,5.0981,5.0241,5.0072,5.0004,5.0079,4.9436,4.9238,4.9864,4.9373,4.9001,4.9001,4.9001,4.9001,4.9001,4.9001,4.9001,4.9001,4.808,4.7466,4.7261,4.5892,4.502,4.4812,4.3927,4.3394,4.3329,4.3329,4.3329,0.0,0.0,0.0,0.0,0.0,4.9533,4.9236,4.9084,4.8797,4.8046,4.8132,4.8495,4.9062,4.9171,4.9506,5.0532,5.0556,5.044,5.0515,5.0359,5.0266,5.0276,5.027,5.0398,5.0765,5.0802,5.0802,5.0802,5.1224,5.1463,5.1463,5.2234,5.2674,5.2674,5.3023,5.3206,5.3206,5.3206,5.3206,5.3206,5.3206,5.3206,5.3206,5.3206,5.3206,5.3206,5.3206,5.3206,5.3188,5.2736,5.2572,5.2517,5.1828,5.1524,5.1493,5.1224,5.1094,5.1053,5.062,5.05,5.05,5.05,5.05,5.05,5.05,5.077,5.1086,5.0964,5.1223,5.1593,5.194,5.2036,5.2036,5.2036,5.1777,5.1661,5.194,5.2036,5.2036,5.2036,5.1759,5.1325,5.0608,5.05,5.0241,4.958,4.9462,4.9572,5.0045,4.9813,4.9898,5.0642,5.0439,5.0236,5.0236,4.9754,4.9393,4.9393,4.8791,4.8322,4.8029,4.7419,4.6871,4.6363,4.5363,4.471,4.4552,4.3732,4.3329,4.3344,4.3718,4.3883,0.0,0.0,0.0,0.0,0.0,4.9683,0.0,0.0,4.9446,4.8824,4.8833,4.9027,4.9323,4.9312,4.9533,5.0546,5.0779,5.0946,5.1244,5.1231,5.1176,5.1099,5.1096,5.1187,5.1389,5.1408,5.1408,5.1408,5.1977,5.2307,5.2307,5.2876,5.3206,5.3206,5.3206,5.3206,5.3206,5.3206,5.3206,5.3206,5.3206,5.3103,5.2937,5.2937,5.2831,5.268,5.2831,5.2831,5.2626,5.2072,5.1821,5.1801,5.1063,5.0823,5.0793,5.0611,5.056,5.0486,4.9973,4.978,4.978,4.978,4.978,4.978,4.978,5.0146,5.0462,5.009,5.0407,5.0876,5.1034,5.1086,5.1086,5.1086,5.0981,5.0876,5.1034,5.1086,5.1034,5.0876,5.0823,5.0608,4.9879,4.978,4.9563,4.9046,4.9001,4.934,5.0253,5.0202,5.0375,5.1026,5.0959,5.0709,5.0409,4.9747,4.9311,4.9311,4.8546,4.7882,4.7476,4.6964,4.6547,4.6206,4.5341,4.4737,4.4317,4.3823,4.3584,4.3599,4.4257,4.4556,0.0,0.0,0.0,4.9169,0.0,0.0,0.0,5.0263,4.9721,4.973,5.0253,5.0674,5.0714,5.0343,5.0187,5.064,5.1012,5.1281,5.1301,5.1044,5.1118,5.1848,5.194,5.2234,5.3004,5.3096,5.3096,5.3096,5.3115,5.3151,5.3151,5.3188,5.3206,5.3206,5.3206,5.3206,5.3206,5.3206,5.3206,5.3206,5.3206,5.2831,5.2159,5.2159,5.1808,5.1241,5.1856,5.1808,5.1221,5.1167,5.1148,5.1104,5.0321,5.0066,4.9994,4.9317,4.9086,4.9069,4.908,4.9063,4.9063,4.9063,4.9063,4.9063,4.9063,4.9046,4.9195,4.9821,5.0033,5.0241,5.0929,5.1086,5.1086,5.1086,5.0554,5.0241,5.0929,5.1086,5.0876,5.0185,5.009,4.9821,4.9152,4.9063,4.9063,4.9001,4.9001,4.9526,5.098,5.0541,5.0287,5.076,5.0175,4.9382,4.8327,4.8179,4.8179,4.8179,4.8105,4.8089,4.8057,4.7199,4.6995,4.7599,4.6046,4.4982,4.4317,4.4272,4.4272,4.4272,4.4945,4.5244,0.0,0.0,0.0,4.8233,4.8773,4.9013,4.9893,5.0258,5.0276,4.9766,5.0277,5.0802,5.0802,5.0667,5.0766,5.1436,5.1674,5.1946,5.2441,5.243,5.2454,5.2747,5.2766,5.2894,5.3188,5.3206,5.3206,5.3206,5.3206,5.3206,5.3206,5.3206,5.3206,5.3206,5.3206,5.3206,5.3206,5.3206,5.2937,5.249,5.249,5.2131,5.1444,5.1444,5.1086,5.0407,5.0662,5.0858,5.1085,5.0588,5.04,5.0312,4.9649,4.9334,4.9317,4.9069,4.9001,4.9001,4.9001,4.9001,4.9001,4.9001,4.9001,4.9001,4.9001,4.9001,4.9063,4.9316,4.9359,4.9419,4.9681,4.9739,4.9739,4.9739,4.958,4.9419,4.9681,4.9739,4.9681,4.9419,4.9359,4.9256,4.9063,4.9001,4.9001,4.9001,4.9001,4.9543,5.1031,5.0409,5.0289,5.1378,5.0701,5.0021,4.9629,4.8937,4.8545,4.8545,4.7951,4.7375,4.6946,4.7045,4.7031,4.6849,4.6221,4.5843,4.5603,4.5155,4.4945,4.496,4.5633,4.5495,4.4158,0.0,0.0,0.0,4.773,4.8072,4.9955,5.0401,5.0483,5.0762,5.1224,5.161,5.161,5.161,5.1683,5.1958,5.2215,5.2601,5.3133,5.3206,5.3206,5.3206,5.3206,5.3206,5.3206,5.3206,5.3206,5.3206,5.3206,5.3206,5.3206,5.3206,5.3206,5.3206,5.3206,5.3206,5.3206,5.3206,5.2831,5.2112,5.2112,5.1643,5.0716,5.0716,5.0352,4.9664,4.9664,4.9936,5.039,4.9878,4.9667,4.9608,4.9163,4.9001,4.9001,4.9001,4.9001,4.9001,4.9001,4.9001,4.9001,4.9001,4.9001,4.9001,4.9001,4.9001,4.9001,4.9001,4.9001,4.9001,4.9001,4.8781,4.8513,4.8513,4.8289,4.808,4.808,4.8576,4.9001,4.9001,4.9001,4.9001,4.9001,4.9001,4.9001,4.9001,4.9204,4.9813,5.1065,5.0559,5.0429,5.1337,5.0474,4.971,4.9392,4.8692,4.8293,4.8293,4.7694,4.7115,4.6666,4.707,4.71,4.6666,4.6651,4.6651,4.6651,4.5978,4.5648,4.5663,4.5865,4.5066,0.0,0.0,0.0,0.0,4.6561,4.7072,5.0973,5.0732,5.0325,5.2639,5.317,5.3188,5.3206,5.3206,5.2949,5.216,5.2692,5.3206,5.3206,5.3206,5.3206,5.3206,5.3206,5.3206,5.3206,5.3206,5.3206,5.3206,5.3206,5.3206,5.3206,5.3206,5.3206,5.3206,5.3206,5.3206,5.3206,5.3164,5.2787,5.2065,5.2047,5.1325,4.9976,4.9976,4.9622,4.9001,4.9001,4.9001,4.9001,4.9001,4.9001,4.9001,4.9001,4.9001,4.9001,4.9001,4.9001,4.9001,4.9001,4.9001,4.9001,4.9001,4.9001,4.9001,4.9001,4.9001,4.9001,4.9001,4.9001,4.9001,4.894,4.8289,4.7589,4.7589,4.6884,4.6189,4.6205,4.7671,4.894,4.894,4.9018,4.9035,4.9035,4.9052,4.9069,4.9069,4.9661,5.0388,5.115,5.0975,5.0651,5.041,4.9376,4.8361,4.7381,4.7309,4.7309,4.7309,4.7309,4.7309,4.7309,4.7309,4.7309,4.7309,4.7309,4.7309,4.7207,4.6565,4.6267,4.6282,4.5592,4.3975,4.3497,0.0,0.0,0.0,0.0,0.0,4.7956,4.8593,4.9208,5.1073,5.1922,5.2509,5.3096,5.3206,5.3133,5.2913,5.3059,5.3206,5.3206,5.3206,5.3206,5.3206,5.3206,5.3206,5.3206,5.3206,5.3206,5.3206,5.3206,5.3206,5.3206,5.3206,5.3206,5.3206,5.3206,5.3206,5.3206,5.2662,5.2065,5.1393,5.0823,5.0129,4.9256,4.9256,4.9152,4.9001,4.9001,4.9001,4.9001,4.9001,4.9001,4.9001,4.9001,4.9001,4.9001,4.9001,4.9001,4.9001,4.9001,4.9001,4.9001,4.9001,4.9001,4.9001,4.9001,4.9001,4.9001,4.9001,4.9001,4.8861,4.8144,4.7803,4.744,4.6747,4.6384,4.6317,4.6789,4.698,4.7172,4.7868,4.8996,4.9796,4.9796,5.0253,5.0608,5.0608,5.0777,5.1166,5.1911,5.0702,4.9914,5.0333,4.8774,4.7609,4.7309,4.7309,4.7309,4.7309,4.7309,4.7309,4.7309,4.7309,4.7309,4.7309,4.7309,4.6829,4.5973,4.5709,4.5607,4.5621,4.361,4.2266,4.3444,4.3497,4.3681,4.4507,0.0,0.0,4.7095,4.7719,4.8379,5.0398,5.1169,5.1756,5.2546,5.2711,5.2821,5.317,5.3206,5.3335,5.3665,5.3702,5.383,5.4161,5.3904,5.3702,5.3702,5.3408,5.3206,5.3206,5.3206,5.3206,5.3206,5.3206,5.3206,5.3206,5.3206,5.3206,5.3206,5.249,5.1741,5.1086,5.0335,4.9664,4.9001,4.9001,4.9001,4.9001,4.9001,4.9001,4.9001,4.9001,4.9001,4.9001,4.9001,4.9001,4.9001,4.9001,4.9001,4.9001,4.9001,4.9001,4.9001,4.9001,4.9001,4.9001,4.9001,4.9001,4.894,4.8513,4.8144,4.7737,4.7172,4.6747,4.626,4.5778,4.5269,4.5161,4.5861,4.5975,4.6342,4.7556,4.8712,4.9622,4.9858,5.0637,5.1217,5.1217,5.1471,5.1678,5.1648,5.0562,4.978,4.9726,4.8225,4.7309,4.7309,4.7309,4.7309,4.7309,4.7309,4.7309,4.7309,4.7309,4.7309,4.7309,4.6741,4.5584,4.3787,4.4918,4.4826,4.3787,4.2266,4.1319,4.3304,4.3518,4.3773,4.4415,4.4158,0.0,4.7278,4.7425,4.7627,4.9921,5.0472,5.0765,5.1573,5.1793,5.2087,5.2821,5.3096,5.3482,5.4289,5.4399,5.4693,5.5482,5.4968,5.4528,5.4528,5.3812,5.3335,5.3335,5.3158,5.306,5.2955,5.2962,5.3005,5.3078,5.2993,5.2975,5.3078,5.229,5.1585,5.0981,5.0241,4.9563,4.9001,4.9001,4.9001,4.9001,4.9001,4.9001,4.9001,4.9001,4.9001,4.9001,4.9001,4.9001,4.9001,4.9001,4.9001,4.9001,4.9001,4.9001,4.9001,4.9001,4.9001,4.9001,4.9001,4.9001,4.8798,4.7868,4.702,4.6314,4.6103,4.5431,4.4737,4.4662,4.3988,4.3629,4.4287,4.5084,4.6098,4.7675,4.8456,4.8984,4.9555,5.0542,5.1258,5.1258,5.1864,5.1916,5.102,5.0526,4.9852,4.8907,4.7919,4.7309,4.7309,4.7309,4.7309,4.7309,4.7309,4.7309,4.7309,4.7309,4.7207,4.7106,4.5689,4.3882,4.1604,4.3882,4.3787,4.1406,4.1406,4.0743,4.2989,4.3652,4.436,4.3864,4.458,0.0,4.5424,4.5792,4.6471,4.7609,4.8343,4.9058,4.9903,5.06,5.1096,5.1242,5.2362,5.3482,5.4289,5.4399,5.4693,5.5482,5.5445,5.5354,5.5354,5.4638,5.4179,5.4179,5.3026,5.2083,5.1512,5.152,5.1766,5.2329,5.1781,5.177,5.2329,5.1042,5.034,5.0185,4.9521,4.9107,4.9001,4.9001,4.9001,4.9001,4.9001,4.9001,4.9001,4.9001,4.9001,4.9001,4.9001,4.9001,4.9001,4.9001,4.9001,4.9001,4.9001,4.9001,4.9001,4.9001,4.9001,4.9001,4.9001,4.9001,4.8798,4.7868,4.7456,4.6952,4.5431,4.4946,4.4586,4.3771,4.3878,4.4302,4.496,4.5259,4.5755,4.7213,4.8435,4.9196,4.9341,5.0723,5.1794,5.1794,5.191,5.1938,5.1707,5.0208,4.9054,4.8825,4.7919,4.7309,4.7309,4.7309,4.7309,4.7309,4.7309,4.7309,4.7309,4.7309,4.6829,4.5779,4.3504,4.207,4.1604,4.207,4.1604,4.0083,4.0083,3.9981,4.2753,4.3253,4.3779,4.3686,4.458,0.0,0.0,4.5991,4.6856,4.8086,4.8012,4.8104,4.9352,4.9572,4.9829,5.0655,5.1811,5.2876,5.3702,5.484,5.5904,5.6693,5.6436,5.6198,5.6198,5.5464,5.4836,5.4482,5.3351,5.257,5.2216,5.1844,5.1812,5.2122,5.147,5.1257,5.1619,5.0545,4.9994,5.0008,4.9325,4.9001,4.9001,4.9001,4.9001,4.9001,4.9001,4.9238,4.9548,4.9537,4.9548,4.9514,4.9103,4.9001,4.9001,4.9001,4.9001,4.9001,4.9001,4.9001,4.9001,4.9001,4.9001,4.9001,4.9001,4.8703,4.8219,4.7704,4.69,4.5992,4.502,4.445,4.3927,4.3409,4.3838,4.4496,4.5155,4.5559,4.6112,4.7115,4.7798,4.8491,4.8938,5.0233,5.1155,5.1155,5.1155,5.093,5.0442,4.944,4.8594,4.8141,4.7609,4.7309,4.7309,4.7309,4.7309,4.7309,4.7309,4.7309,4.7309,4.6726,4.5494,4.3504,4.2266,4.1319,4.0642,4.0642,4.0364,3.9697,3.9697,3.9697,4.2347,4.2739,4.3225,4.3524,4.4438,4.5378,0.0,0.0,0.0,4.8636,4.7939,4.7517,4.8857,4.8545,4.8563,5.0068,5.1004,5.1811,5.2637,5.4569,5.6228,5.7015,5.6674,5.6361,5.6361,5.5678,5.4934,5.4313,5.3439,5.287,5.2907,5.2348,5.208,5.2224,5.1349,5.0963,5.1122,5.0258,4.98,4.98,4.9257,4.9001,4.9001,4.9001,4.9001,4.9018,4.9182,4.9543,5.0135,5.0283,5.0243,5.0028,4.9463,4.9103,4.9001,4.9001,4.8855,4.8737,4.8737,4.8591,4.8506,4.8703,4.8838,4.9001,4.9001,4.8489,4.7809,4.7441,4.626,4.502,4.4586,4.3927,4.3359,4.3494,4.4018,4.4691,4.5349,4.6037,4.6666,4.7204,4.7309,4.7538,4.8377,4.9376,5.0087,5.0087,5.0087,4.9773,4.8907,4.8594,4.8225,4.7381,4.7309,4.7309,4.7309,4.7309,4.7309,4.7309,4.7309,4.7309,4.7309,4.5869,4.3975,4.1703,4.1319,4.0743,3.9697,3.9697,3.9697,3.9697,3.9697,3.9697,4.1441,4.25,4.3811,4.3164,4.4644,4.6059,4.533,0.0,4.6309,4.6341,0.0,4.7186,4.737,0.0,0.0,4.8453,4.9297,5.0141,5.0967,5.2007,5.3023,5.3754,5.4466,5.4884,5.4884,5.4118,5.362,5.3513,5.2232,5.1425,5.1464,5.1354,5.1583,5.2248,5.0927,5.0532,5.1184,4.982,4.911,4.911,4.9029,4.9001,4.9001,4.9001,4.9001,4.9035,4.9712,5.0045,5.0164,5.0827,5.0707,5.0079,5.0011,4.9565,4.9001,4.9001,4.8489,4.7765,4.7765,4.7178,4.6653,4.7502,4.831,4.9001,4.9001,4.8951,4.8476,4.6867,4.6189,4.5618,4.3912,4.3409,4.3479,4.4062,4.4706,4.5364,4.6052,4.6726,4.7219,4.7294,4.7309,4.7309,4.7452,4.8293,4.8988,4.8988,4.8988,4.8907,4.8825,4.7988,4.7467,4.7294,4.7309,4.7309,4.7309,4.7309,4.7309,4.7309,4.7309,4.7309,4.7309,4.5024,4.3026,4.1604,4.0453,3.989,3.9697,3.9697,3.9697,3.9697,3.9697,3.9697,4.1009,4.1933,4.3039,4.3097,4.4502,4.5856,4.5846,4.6029,4.6535,4.7769,0.0,0.0,0.0,0.0,0.0,0.0,4.9022,4.9585,4.9531,4.9946,5.0976,5.3069,5.3294,5.3673,5.4504,5.3879,5.3609,5.4046,5.2701,5.206,5.2503,5.2083,5.1997,5.2261,5.1305,5.071,5.056,4.996,4.9447,4.9001,4.9001,4.9001,4.9001,4.9001,4.9232,4.9678,4.9977,5.0572,5.1371,5.1702,5.1383,5.0686,5.0159,4.9548,4.8951,4.836,4.7962,4.755,4.7017,4.6518,4.6287,4.664,4.7077,4.7355,4.7414,4.7411,4.7209,4.6394,4.5834,4.5305,4.4803,4.4252,4.4062,4.4721,4.5394,4.5978,4.6262,4.6845,4.7309,4.7309,4.7309,4.7309,4.7309,4.7694,4.7919,4.7919,4.7919,4.7919,4.7919,4.7538,4.7309,4.7309,4.7309,4.7309,4.7309,4.7309,4.7309,4.7309,4.6638,4.5869,4.5115,4.3409,4.1789,4.0554,3.9981,3.9697,3.9697,3.9697,3.9697,3.9697,3.9697,3.9697,4.0883,4.175,4.2698,4.3134,4.4251,4.5407,4.5975,4.6167,4.6765,4.8556,4.7664,0.0,0.0,0.0,4.737,4.8177,0.0,4.8553,4.832,4.8063,4.8876,5.1472,5.1741,5.2403,5.4095,5.3223,5.3028,5.4208,5.2887,5.2452,5.345,5.296,5.2657,5.2657,5.1917,5.1228,5.0718,5.0487,5.0096,4.9582,4.9582,4.9582,4.9582,4.9582,4.9926,5.0396,5.0629,5.118,5.2044,5.2465,5.179,5.0443,4.997,4.9295,4.8382,4.7538,4.7038,4.6741,4.605,4.5795,4.58,4.5818,4.5984,4.6199,4.6171,4.6171,4.6158,4.5929,4.5358,4.4892,4.5233,4.4819,4.4526,4.5379,4.5963,4.6367,4.6546,4.698,4.7309,4.7309,4.7309,4.7309,4.7309,4.7309,4.7309,4.7309,4.7309,4.7309,4.7309,4.7309,4.7309,4.7309,4.7309,4.7309,4.7309,4.7309,4.7121,4.6829,4.5584,4.4349,4.3026,4.207,4.1032,3.9697,3.9697,3.9697,3.9697,3.9697,3.9697,3.9697,3.9697,3.9697,4.1214,4.2178,4.3386,4.3386,4.4033,4.4773,4.5145,4.5864,4.6569,4.7067,4.7755,4.8251,4.8306,4.7645,4.737,4.8177,4.7179,0.0,0.0,4.6358,4.6152,4.7694,4.9257,5.1047,5.3243,5.1459,5.1106,5.335,5.2135,5.1911,5.3416,5.3484,5.3467,5.3467,5.2691,5.2219,5.2253,5.1524,5.1128,5.111,5.111,5.111,5.111,5.111,5.1128,5.1196,5.1896,5.185,5.1346,5.2859,5.1615,4.8878,4.9506,4.8751,4.7154,4.652,4.564,4.4886,4.4868,4.4804,4.4883,4.4838,4.5479,4.6176,4.6192,4.6183,4.5992,4.5095,4.4812,4.474,4.4444,4.4317,4.4646,4.5978,4.6307,4.6501,4.713,4.7294,4.7309,4.7309,4.7309,4.7309,4.7309,4.7309,4.7309,4.7309,4.7309,4.7309,4.7309,4.7309,4.7309,4.7309,4.7309,4.7309,4.7309,4.7309,4.6741,4.5494,4.4256,4.3026,4.169,4.1604,4.1032,3.9697,3.9697,3.9697,3.9697,3.9697,3.9697,3.9697,3.9697,3.9697,4.0785,4.1815,4.2756,4.3238,4.3606,4.398,4.4553,4.4488,4.4718,4.6259,4.6753,4.7179,4.8119,4.8086,4.786,4.772,4.7295,4.6801,0.0,4.5857,4.6367,4.8257,4.9034,5.0042,5.1777,5.0849,5.0617,5.1855,5.1464,5.1657,5.2655,5.3213,5.3501,5.3501,5.3247,5.2809,5.2287,5.2032,5.1693,5.1208,5.1208,5.1208,5.1208,5.1208,5.1203,5.124,5.1488,5.1442,5.1176,5.1092,5.0408,4.927,4.829,4.7497,4.6727,4.569,4.5354,4.5206,4.4172,4.3788,4.3788,4.3788,4.4028,4.4249,4.4249,4.4297,4.419,4.3927,4.4089,4.4588,4.4862,4.5304,4.5873,4.6756,4.698,4.704,4.7249,4.7309,4.7309,4.7309,4.7309,4.7309,4.7309,4.7309,4.7309,4.7309,4.7309,4.7309,4.7309,4.7309,4.7309,4.7309,4.6535,4.6062,4.6062,4.5298,4.4642,4.4163,4.293,4.207,4.1604,4.0743,4.0173,3.9697,3.9697,3.9697,3.9697,3.9697,3.9697,3.9697,3.8687,3.8243,4.0622,4.1529,4.2266,4.2758,4.2875,4.3063,4.3731,4.37,4.4004,4.5588,4.6111,4.6557,4.7464,4.7596,4.7512,4.7106,4.6864,4.6353,0.0,4.5461,4.6418,4.8293,4.8587,4.9274,5.0993,5.03,5.0016,5.076,5.1065,5.1539,5.2266,5.3061,5.3501,5.3501,5.3501,5.3247,5.2724,5.2724,5.2489,5.2001,5.2001,5.2001,5.2001,5.2001,5.1865,5.1569,5.1562,5.1119,5.0276,4.9944,4.9222,4.8166,4.7296,4.678,4.6425,4.5116,4.4735,4.4758,4.3933,4.3474,4.3374,4.3599,4.3524,4.3329,4.3329,4.3329,4.3329,4.3329,4.3808,4.4466,4.5125,4.5813,4.6486,4.7145,4.7309,4.7309,4.7309,4.7309,4.7309,4.7309,4.7309,4.7309,4.7309,4.7309,4.7309,4.7309,4.7309,4.7309,4.7309,4.7309,4.7121,4.6638,4.5869,4.5207,4.4734,4.3598,4.2834,4.2834,4.1604,4.0932,4.0932,4.0173,3.9697,3.9697,3.9697,3.9697,3.9697,3.9697,3.9465,3.8908,3.7914,3.6918]},{"header":{"parameterUnit":"m.s-1","parameterCategory":1,"la1":30.6,"la2":29.2853,"lo1":-89.7004,"lo2":-87.6739,"dy":0.0162,"dx":0.0183,"nx":112,"ny":82,"refTime":"2024-08-19T12:00:00:Z","depth":0,"parameterNumber":3,"parameterNumberName":"V-component_of_WINDS"},"data":[0.0,0.0,0.0,0.0,0.0,0.0,0.0,0.0,0.0,0.0,0.0,0.0,0.0,0.0,0.0,0.0,0.0,0.0,0.0,0.0,0.0,0.0,0.0,0.0,0.0,0.0,0.0,0.0,0.0,0.0,0.0,0.0,0.0,0.0,0.0,0.0,0.0,0.0,0.0,0.0,0.0,0.0,0.0,0.0,0.0,0.0,0.0,0.0,0.0,0.0,0.0,0.0,0.0,0.0,0.0,0.0,0.0,0.0,0.0,0.0,0.0,0.0,0.0,0.0,0.0,0.0,0.0,0.0,0.0,0.0,0.0,0.0,0.0,0.0,0.0,0.0,0.0,0.0,0.0,0.0,0.0,0.0,0.0,0.0,0.0,0.0,0.0,0.0,0.0,0.0,-1.2958,-1.4015,-1.3926,-1.3818,-1.3858,-1.3995,-1.4061,-1.4066,0.0,0.0,0.0,0.0,0.0,0.0,0.0,0.0,0.0,0.0,0.0,0.0,0.0,0.0,0.0,0.0,0.0,0.0,0.0,0.0,0.0,0.0,0.0,0.0,0.0,0.0,0.0,0.0,0.0,0.0,0.0,0.0,0.0,0.0,0.0,0.0,0.0,0.0,0.0,0.0,0.0,0.0,0.0,0.0,0.0,0.0,0.0,0.0,0.0,0.0,0.0,0.0,0.0,0.0,0.0,0.0,0.0,0.0,0.0,0.0,0.0,0.0,0.0,0.0,0.0,0.0,0.0,0.0,0.0,0.0,0.0,0.0,0.0,0.0,0.0,0.0,0.0,0.0,0.0,0.0,0.0,0.0,0.0,0.0,0.0,0.0,0.0,0.0,0.0,0.0,0.0,0.0,0.0,0.0,0.0,0.0,0.0,0.0,0.0,0.0,0.0,0.0,0.0,0.0,-1.3916,-1.409,-1.3186,-1.2544,-1.2578,-1.3507,-1.4139,-1.4084,0.0,0.0,0.0,0.0,0.0,0.0,0.0,0.0,0.0,0.0,0.0,0.0,0.0,0.0,0.0,0.0,0.0,0.0,0.0,0.0,0.0,0.0,0.0,0.0,0.0,0.0,0.0,0.0,0.0,0.0,0.0,0.0,0.0,0.0,0.0,0.0,0.0,0.0,0.0,0.0,0.0,0.0,0.0,0.0,0.0,0.0,0.0,0.0,0.0,0.0,0.0,0.0,0.0,0.0,0.0,0.0,0.0,0.0,0.0,0.0,0.0,0.0,0.0,0.0,0.0,0.0,0.0,0.0,0.0,0.0,0.0,0.0,0.0,0.0,0.0,0.0,0.0,0.0,0.0,0.0,0.0,0.0,0.0,0.0,0.0,0.0,0.0,0.0,0.0,0.0,0.0,0.0,0.0,0.0,0.0,0.0,0.0,0.0,0.0,0.0,0.0,0.0,0.0,-1.3845,-1.3625,-1.3581,-1.281,-1.2308,-1.2272,-1.2811,-1.3142,-1.3126,-1.2271,0.0,0.0,0.0,0.0,0.0,0.0,0.0,0.0,0.0,0.0,0.0,0.0,0.0,0.0,0.0,0.0,0.0,0.0,0.0,0.0,0.0,0.0,0.0,0.0,0.0,0.0,0.0,0.0,0.0,0.0,0.0,0.0,0.0,0.0,0.0,0.0,0.0,0.0,0.0,0.0,0.0,0.0,0.0,0.0,0.0,0.0,0.0,0.0,0.0,0.0,0.0,0.0,0.0,0.0,0.0,0.0,0.0,0.0,0.0,0.0,0.0,0.0,0.0,0.0,0.0,0.0,0.0,0.0,0.0,0.0,0.0,0.0,0.0,0.0,0.0,0.0,0.0,0.0,0.0,0.0,0.0,0.0,0.0,0.0,0.0,0.0,0.0,0.0,0.0,0.0,0.0,0.0,0.0,0.0,0.0,0.0,0.0,0.0,0.0,0.0,0.0,0.0,-1.3501,-1.3114,-1.3035,-1.2576,-1.2285,-1.2296,-1.2207,-1.2084,-1.2058,-1.152,0.0,0.0,0.0,0.0,0.0,0.0,0.0,0.0,0.0,0.0,0.0,0.0,0.0,0.0,0.0,0.0,0.0,0.0,0.0,0.0,0.0,0.0,0.0,0.0,0.0,0.0,0.0,0.0,0.0,0.0,0.0,0.0,0.0,0.0,0.0,0.0,0.0,0.0,0.0,0.0,0.0,0.0,0.0,0.0,0.0,0.0,0.0,0.0,0.0,0.0,0.0,0.0,0.0,0.0,0.0,0.0,0.0,0.0,0.0,0.0,0.0,0.0,0.0,0.0,0.0,0.0,0.0,0.0,0.0,0.0,0.0,0.0,0.0,0.0,0.0,0.0,0.0,0.0,0.0,0.0,0.0,0.0,0.0,0.0,0.0,0.0,0.0,0.0,0.0,0.0,0.0,0.0,0.0,0.0,0.0,0.0,0.0,0.0,0.0,0.0,0.0,0.0,-1.3192,-1.2969,-1.2435,-1.2318,-1.229,-1.2277,-1.1829,-1.1468,-1.1436,-1.0988,0.0,0.0,0.0,0.0,0.0,0.0,0.0,0.0,0.0,0.0,0.0,0.0,0.0,0.0,0.0,0.0,0.0,0.0,0.0,0.0,0.0,0.0,0.0,0.0,0.0,0.0,0.0,0.0,0.0,0.0,0.0,0.0,0.0,0.0,0.0,0.0,0.0,0.0,0.0,0.0,0.0,0.0,0.0,0.0,0.0,0.0,0.0,0.0,0.0,0.0,0.0,0.0,0.0,0.0,0.0,0.0,0.0,0.0,0.0,0.0,0.0,0.0,0.0,0.0,0.0,0.0,0.0,0.0,0.0,0.0,0.0,0.0,0.0,0.0,0.0,0.0,0.0,0.0,0.0,0.0,0.0,0.0,0.0,0.0,0.0,0.0,0.0,0.0,0.0,0.0,0.0,0.0,0.0,0.0,0.0,0.0,0.0,0.0,0.0,0.0,0.0,0.0,-1.1994,-1.1561,-1.0889,-1.1717,-1.2032,-1.1397,-1.1755,-1.1774,-1.1388,0.0,0.0,0.0,0.0,0.0,0.0,0.0,0.0,0.0,0.0,0.0,0.0,0.0,0.0,0.0,0.0,0.0,0.0,0.0,0.0,0.0,0.0,0.0,0.0,0.0,0.0,0.0,0.0,0.0,0.0,0.0,0.0,0.0,0.0,0.0,0.0,0.0,0.0,0.0,0.0,0.0,0.0,0.0,0.0,0.0,0.0,0.0,0.0,0.0,0.0,0.0,0.0,0.0,0.0,0.0,0.0,0.0,0.0,0.0,0.0,0.0,0.0,0.0,0.0,0.0,0.0,0.0,0.0,0.0,0.0,0.0,0.0,0.0,0.0,0.0,0.0,0.0,0.0,0.0,0.0,0.0,0.0,0.0,0.0,0.0,0.0,0.0,0.0,0.0,0.0,0.0,0.0,0.0,0.0,0.0,0.0,0.0,0.0,0.0,0.0,0.0,0.0,-1.0913,-1.0767,-1.0491,-0.9923,-1.1018,-1.1508,-1.0745,-1.1484,-1.181,-1.1316,0.0,0.0,0.0,0.0,0.0,0.0,0.0,0.0,0.0,0.0,0.0,0.0,0.0,0.0,0.0,0.0,0.0,0.0,0.0,0.0,0.0,0.0,0.0,0.0,0.0,0.0,0.0,0.0,0.0,0.0,0.0,0.0,0.0,0.0,0.0,0.0,0.0,0.0,0.0,0.0,0.0,0.0,0.0,0.0,0.0,0.0,0.0,0.0,0.0,0.0,0.0,0.0,0.0,0.0,0.0,0.0,0.0,0.0,0.0,0.0,0.0,0.0,0.0,0.0,0.0,0.0,0.0,0.0,0.0,0.0,0.0,0.0,0.0,0.0,0.0,0.0,0.0,0.0,0.0,0.0,0.0,0.0,0.0,0.0,0.0,0.0,0.0,0.0,0.0,0.0,0.0,0.0,0.0,0.0,0.0,0.0,0.0,0.0,0.0,0.0,0.0,0.0,-0.9958,-0.9857,-0.9857,-0.9852,-1.039,-1.0677,-1.0425,-1.102,-1.1303,0.0,0.0,0.0,0.0,0.0,0.0,0.0,0.0,0.0,0.0,0.0,0.0,0.0,0.0,0.0,0.0,0.0,0.0,0.0,0.0,0.0,0.0,0.0,0.0,0.0,0.0,0.0,0.0,0.0,0.0,0.0,0.0,0.0,0.0,0.0,0.0,0.0,0.0,0.0,0.0,0.0,0.0,0.0,0.0,0.0,0.0,0.0,0.0,0.0,0.0,0.0,0.0,0.0,0.0,0.0,0.0,0.0,0.0,0.0,0.0,0.0,0.0,0.0,0.0,0.0,0.0,0.0,0.0,0.0,0.0,0.0,0.0,0.0,0.0,0.0,0.0,0.0,0.0,0.0,0.0,0.0,0.0,0.0,0.0,0.0,0.0,0.0,0.0,0.0,0.0,0.0,0.0,0.0,0.0,0.0,0.0,0.0,0.0,0.0,0.0,0.0,0.0,0.0,-0.8648,-0.8644,-0.8354,-0.7584,-0.8784,-0.9536,-0.9311,-1.0031,-1.0616,-1.1009,0.0,0.0,0.0,0.0,0.0,0.0,0.0,0.0,0.0,0.0,0.0,0.0,0.0,0.0,0.0,0.0,0.0,0.0,0.0,0.0,0.0,0.0,0.0,0.0,0.0,0.0,0.0,0.0,0.0,0.0,0.0,0.0,0.0,0.0,0.0,0.0,0.0,0.0,0.0,0.0,0.0,0.0,0.0,0.0,0.0,0.0,0.0,0.0,0.0,0.0,0.0,0.0,0.0,0.0,0.0,0.0,0.0,0.0,0.0,0.0,0.0,0.0,0.0,0.0,0.0,0.0,0.0,0.0,0.0,0.0,0.0,0.0,0.0,0.0,0.0,0.0,0.0,0.0,0.0,0.0,0.0,0.0,0.0,0.0,0.0,0.0,0.0,0.0,0.0,0.0,0.0,0.0,0.0,0.0,0.0,0.0,0.0,0.0,0.0,0.0,0.0,0.0,-0.7568,-0.7535,-0.7312,-0.6654,-0.7685,-0.8481,-0.86,-0.9458,-1.0178,-1.077,0.0,0.0,0.0,0.0,0.0,0.0,0.0,0.0,0.0,0.0,0.0,0.0,0.0,0.0,0.0,0.0,0.0,0.0,0.0,0.0,0.0,0.0,0.0,0.0,0.0,0.0,0.0,0.0,0.0,0.0,0.0,0.0,0.0,0.0,0.0,0.0,0.0,0.0,0.0,0.0,0.0,0.0,0.0,0.0,0.0,0.0,0.0,0.0,0.0,0.0,0.0,0.0,0.0,0.0,0.0,0.0,0.0,0.0,0.0,0.0,0.0,0.0,0.0,0.0,0.0,0.0,0.0,0.0,0.0,0.0,0.0,0.0,0.0,0.0,0.0,0.0,0.0,0.0,0.0,0.0,0.0,0.0,0.0,0.0,0.0,0.0,0.0,0.0,0.0,0.0,0.0,0.0,0.0,0.0,0.0,0.0,0.0,0.0,0.0,0.0,0.0,0.0,-0.6706,-0.6681,-0.6685,-0.6641,-0.7022,-0.7607,-0.8323,-0.9073,-0.9843,-1.0575,0.0,0.0,0.0,0.0,0.0,0.0,0.0,0.0,0.0,0.0,0.0,0.0,0.0,0.0,0.0,0.0,0.0,0.0,0.0,0.0,0.0,0.0,0.0,0.0,0.0,0.0,0.0,0.0,0.0,0.0,0.0,0.0,0.0,0.0,0.0,0.0,0.0,0.0,0.0,0.0,0.0,0.0,0.0,0.0,0.0,0.0,0.0,0.0,0.0,0.0,0.0,0.0,0.0,0.0,0.0,0.0,0.0,0.0,0.0,0.0,-0.5967,-0.5827,0.0,0.0,0.0,0.0,0.0,0.0,0.0,0.0,0.0,0.0,0.0,0.0,0.0,0.0,0.0,0.0,0.0,0.0,0.0,0.0,0.0,0.0,0.0,0.0,0.0,0.0,0.0,0.0,0.0,0.0,0.0,0.0,0.0,0.0,0.0,0.0,0.0,0.0,0.0,0.0,-0.6499,-0.6556,-0.6566,-0.621,-0.6124,-0.6706,-0.8113,-0.8297,-0.8992,-1.0498,-1.0281,0.0,0.0,0.0,0.0,0.0,0.0,0.0,0.0,0.0,0.0,0.0,0.0,0.0,0.0,0.0,0.0,0.0,0.0,0.0,0.0,0.0,0.0,0.0,0.0,0.0,0.0,0.0,0.0,0.0,0.0,0.0,0.0,0.0,0.0,0.0,0.0,0.0,0.0,0.0,0.0,0.0,0.0,0.0,0.0,0.0,0.0,0.0,0.0,0.0,0.0,0.0,0.0,0.0,0.0,0.0,0.0,0.0,0.0,0.0,-0.628,-0.6173,0.0,0.0,0.0,0.0,0.0,0.0,0.0,0.0,0.0,0.0,0.0,0.0,0.0,0.0,0.0,0.0,0.0,0.0,0.0,0.0,0.0,0.0,0.0,0.0,0.0,0.0,0.0,0.0,0.0,0.0,0.0,0.0,0.0,0.0,0.0,0.0,0.0,0.0,0.0,0.0,-0.6441,-0.6559,-0.6556,-0.6179,-0.5939,-0.6439,-0.8044,-0.8093,-0.8737,-1.0491,-1.0636,0.0,0.0,0.0,0.0,0.0,0.0,0.0,0.0,0.0,0.0,0.0,0.0,0.0,0.0,0.0,0.0,0.0,0.0,0.0,0.0,0.0,0.0,0.0,0.0,0.0,0.0,0.0,0.0,0.0,0.0,0.0,0.0,0.0,0.0,0.0,0.0,0.0,0.0,0.0,0.0,0.0,0.0,0.0,0.0,0.0,0.0,0.0,0.0,0.0,0.0,0.0,0.0,0.0,-0.6634,-0.6702,-0.6732,-0.6544,-0.6471,-0.6602,-0.6471,-0.6468,-0.6502,-0.5922,0.0,0.0,0.0,0.0,0.0,0.0,0.0,0.0,0.0,0.0,0.0,0.0,0.0,0.0,0.0,0.0,0.0,0.0,0.0,0.0,0.0,0.0,-1.297,-1.2916,-1.3247,-1.344,-1.2699,0.0,0.0,0.0,0.0,0.0,0.0,0.0,0.0,0.0,0.0,0.0,-0.6437,-0.659,-0.6566,-0.6217,-0.5952,-0.6361,-0.7788,-0.8002,-0.8672,-1.0301,-1.0854,-1.145,0.0,0.0,0.0,0.0,0.0,0.0,0.0,0.0,0.0,0.0,0.0,0.0,0.0,0.0,0.0,0.0,0.0,0.0,0.0,0.0,0.0,0.0,0.0,0.0,0.0,0.0,0.0,0.0,0.0,0.0,0.0,0.0,-1.0349,-1.0604,0.0,0.0,0.0,0.0,0.0,0.0,0.0,0.0,0.0,0.0,0.0,0.0,0.0,-1.0137,-0.8324,-0.9398,-0.884,-0.6868,-0.6956,-0.7055,-0.7069,-0.6978,-0.6919,-0.6702,-0.692,0.0,-0.6361,-0.6723,0.0,0.0,0.0,0.0,0.0,0.0,0.0,0.0,0.0,0.0,0.0,0.0,0.0,0.0,0.0,0.0,0.0,0.0,0.0,0.0,0.0,0.0,-1.346,-1.3206,-1.34,-1.3614,-1.3413,-1.2975,-1.2368,-1.156,-1.1057,-1.0438,0.0,0.0,0.0,0.0,0.0,0.0,-0.6305,-0.6529,-0.6485,-0.5922,-0.5827,-0.6102,-0.6854,-0.7587,-0.842,-0.9402,-1.0262,-1.1192,-1.2326,-1.2304,0.0,0.0,0.0,0.0,0.0,0.0,0.0,0.0,0.0,0.0,0.0,0.0,0.0,0.0,0.0,0.0,0.0,0.0,0.0,0.0,0.0,0.0,0.0,0.0,0.0,0.0,0.0,0.0,0.0,-0.9737,-1.0785,-1.1287,-1.0716,-0.9873,0.0,0.0,0.0,0.0,0.0,0.0,0.0,0.0,0.0,-1.1111,-1.1482,-1.1204,-1.0372,-1.063,-0.9805,-0.7979,-0.7396,-0.7059,-0.6881,-0.6898,-0.6873,-0.695,-0.6763,-0.8221,-1.0704,-1.0912,-1.1911,-1.3297,0.0,0.0,0.0,0.0,-1.0811,-1.1243,-1.2769,-1.3818,-1.43,-1.3146,0.0,0.0,0.0,0.0,0.0,0.0,0.0,-1.3536,-1.3131,-1.3206,-1.3367,-1.324,-1.3307,-1.34,-1.34,-1.332,-1.3167,-1.2763,-1.2587,-1.2039,-1.061,-0.9581,0.0,0.0,0.0,-0.6637,-0.64,-0.6585,-0.639,-0.5857,-0.58,-0.6025,-0.6622,-0.7502,-0.835,-0.9268,-1.0534,-1.1948,-1.3437,-1.3204,-1.3928,0.0,0.0,0.0,0.0,0.0,0.0,0.0,0.0,0.0,0.0,0.0,0.0,0.0,0.0,0.0,0.0,0.0,0.0,0.0,0.0,0.0,0.0,0.0,0.0,0.0,0.0,0.0,0.0,-0.9669,-1.0991,-1.1655,-1.1433,-1.0842,0.0,0.0,0.0,0.0,0.0,0.0,-1.0412,-1.0739,-1.1318,-1.2453,-1.2276,-1.1897,-1.143,-1.1229,-1.0258,-0.8357,-0.7495,-0.6983,-0.6805,-0.6652,-0.6729,-0.6912,-0.6486,-0.9119,-1.3632,-1.3939,-1.4131,-1.4118,-1.4069,-1.4095,-1.413,-1.4061,-1.4076,-1.4104,-1.4097,-1.409,-1.4138,-1.442,-1.43,-1.3884,-1.3229,0.0,0.0,0.0,0.0,-1.332,-1.332,-1.3206,-1.3093,-1.3093,-1.3093,-1.3093,-1.3093,-1.332,-1.3554,-1.3627,-1.3707,-1.3343,-1.2031,-1.0809,0.0,-0.8617,-0.7527,-0.6743,-0.6582,-0.6579,-0.6421,-0.5985,-0.5827,-0.5972,-0.636,-0.7405,-0.8291,-0.8947,-1.0595,-1.2409,-1.4188,-1.4038,-1.4997,-1.7363,0.0,0.0,0.0,0.0,0.0,0.0,0.0,0.0,0.0,0.0,0.0,0.0,0.0,0.0,0.0,0.0,0.0,0.0,0.0,0.0,0.0,0.0,0.0,0.0,0.0,0.0,0.0,0.0,0.0,-1.1236,-1.168,0.0,0.0,0.0,0.0,-0.9989,-0.9908,-1.0416,-1.1911,-1.2927,-1.3444,-1.3559,-1.3546,-1.2406,-1.004,-1.0816,-0.9759,-0.6867,-0.7053,-0.7064,-0.706,-0.6577,-0.6352,-0.6362,-0.6315,-0.8631,-1.2516,-1.3601,-1.4096,-1.4068,-1.4062,-1.4139,-1.4062,-1.4075,-1.4068,-1.4062,-1.4102,-1.4095,-1.4068,-1.4153,-1.3868,-1.3621,-1.3594,-1.3594,0.0,0.0,-1.3614,-1.3539,-1.3539,-1.32,-1.2849,-1.2849,-1.2849,-1.2849,-1.2849,-1.3013,-1.3313,-1.3587,-1.3874,-1.3968,-1.3566,0.0,-1.0264,-0.9872,-0.809,-0.675,-0.6606,-0.6589,-0.6548,-0.6303,-0.5971,-0.5739,-0.5658,-0.7096,-0.8027,-0.8091,-0.995,-1.2014,-1.4197,-1.4522,-1.5534,-1.7383,-1.7334,0.0,0.0,0.0,0.0,0.0,0.0,0.0,0.0,0.0,0.0,0.0,0.0,0.0,0.0,0.0,0.0,0.0,0.0,0.0,0.0,0.0,0.0,0.0,0.0,0.0,0.0,0.0,0.0,-1.2308,-1.2824,0.0,-1.1772,-1.1061,-1.0903,-1.1407,-1.146,-1.1939,-1.2972,-1.3389,-1.3554,-1.3367,-1.3252,-1.2694,-1.1786,-1.0551,-0.9471,-0.8369,-0.7144,-0.6577,-0.6577,-0.6362,-0.6338,-0.6335,-0.6294,-0.8585,-1.2355,-1.2792,-1.3365,-1.4387,-1.7172,-1.8267,-1.7968,-1.5112,-1.4088,-1.4102,-1.4132,-1.4088,-1.4088,-1.4088,-1.4015,-1.3928,-1.3928,-1.3928,-1.3888,-1.3701,-1.3559,-1.3554,-1.3166,-1.2906,-1.2775,-1.2505,-1.2458,-1.2458,-1.2458,-1.2699,-1.2946,-1.3046,-1.346,-1.3768,-1.3579,-1.1925,-1.0363,-0.9994,-0.8279,-0.694,-0.661,-0.5286,-0.4854,-0.6149,-0.6064,-0.5888,-0.5739,-0.7219,-0.8112,-0.8112,-0.9928,-1.1963,-1.4197,-1.4563,-1.5692,-1.7783,-1.7519,-1.709,0.0,0.0,0.0,0.0,0.0,0.0,0.0,0.0,0.0,0.0,0.0,0.0,0.0,0.0,0.0,0.0,0.0,0.0,0.0,0.0,0.0,0.0,0.0,0.0,0.0,-0.9509,-1.0589,-1.197,-1.3052,-1.3389,-1.2344,-1.205,-1.2081,-1.2425,-1.223,-1.2419,-1.3426,-1.35,-1.336,-1.3144,-1.2936,-1.2815,-1.2616,-1.1129,-0.9646,-0.8237,-0.6945,-0.6338,-0.6338,-0.6338,-0.6328,-0.6311,-0.6308,-0.8551,-1.2318,-1.2322,-1.2756,-1.3921,-1.8074,-1.9678,-1.9316,-1.6077,-1.4434,-1.3811,-1.3728,-1.3698,-1.3774,-1.4104,-1.4028,-1.387,-1.4186,-1.4028,-1.3748,-1.3554,-1.342,-1.3247,-1.2929,-1.2748,-1.2545,-1.2351,-1.2305,-1.2305,-1.2305,-1.2458,-1.2625,-1.2802,-1.3233,-1.3559,-1.3559,-1.1916,-1.0509,-1.0211,-0.8367,-0.6629,-0.5682,-0.4146,-0.3885,-0.6066,-0.6146,-0.5989,-0.5888,-0.7351,-0.8338,-0.8338,-1.0202,-1.2236,-1.4322,-1.4554,-1.5685,-1.793,-1.7734,-1.7519,-1.7307,0.0,0.0,0.0,0.0,0.0,0.0,0.0,0.0,0.0,0.0,0.0,0.0,0.0,0.0,0.0,0.0,0.0,0.0,0.0,0.0,0.0,0.0,0.0,-0.7953,-0.9299,-1.0269,-0.9974,-1.2355,-1.3834,-1.3267,-1.2457,-1.2255,-1.3147,-1.2141,-1.2056,-1.3114,-1.32,-1.3138,-1.2905,-1.2898,-1.2692,-1.2283,-1.2194,-1.0193,-0.6497,-0.6342,-0.6338,-0.6338,-0.6338,-0.6311,-0.6343,-0.6453,-0.8684,-1.2276,-1.2264,-1.2283,-1.2714,-1.648,-1.7965,-1.7872,-1.6867,-1.5103,-1.3246,-1.2975,-1.2936,-1.3173,-1.4258,-1.3967,-1.3437,-1.4343,-1.3967,-1.3206,-1.32,-1.2979,-1.2822,-1.2732,-1.2518,-1.2298,-1.2224,-1.2305,-1.2305,-1.2305,-1.2305,-1.2385,-1.2755,-1.3206,-1.3539,-1.3641,-1.1911,-1.06,-1.06,-0.8348,0.0,-0.3853,-0.3379,-0.3992,-0.6054,-0.6139,-0.6037,-0.6037,-0.7618,-0.8634,-0.8639,-1.0704,-1.2769,-1.4627,-1.4643,-1.566,-1.7969,-1.8037,-1.8223,-1.8633,0.0,0.0,0.0,0.0,0.0,0.0,0.0,0.0,0.0,0.0,0.0,0.0,0.0,0.0,0.0,0.0,0.0,0.0,0.0,0.0,0.0,-0.9704,-0.9209,-0.8332,-0.9271,-1.0392,-1.1243,-1.2557,-1.3387,-1.3227,-1.2955,-1.2968,-1.3213,-1.2883,-1.2785,-1.2886,-1.2956,-1.2815,-1.2513,-1.2425,-1.2445,-1.2329,-0.9427,-0.8856,-1.0599,-0.7687,-0.6338,-0.6338,-0.6338,-0.6311,-0.6426,-0.9408,-1.1295,-1.2276,-1.2264,-1.2283,-1.2678,-1.653,-1.8,-1.7996,-1.8183,-1.6521,-1.4137,-1.3338,-1.3574,-1.418,-1.4491,-1.4872,-1.5173,-1.4724,-1.4421,-1.4066,-1.3165,-1.2889,-1.2616,-1.1633,-1.1825,-1.215,-1.1391,-1.1768,-1.2305,-1.2305,-1.2305,-1.2325,-1.2412,-1.2732,-1.3133,-1.3567,-1.1767,-1.0368,-1.0447,-0.845,-0.6295,-0.4265,-0.4937,-0.5836,-0.6217,-0.623,-0.6499,-0.7251,-0.8185,-0.9073,-0.9867,-1.1171,-1.287,-1.5138,-1.5333,-1.6517,-1.8926,-1.9302,-1.9592,0.0,0.0,0.0,0.0,0.0,0.0,0.0,0.0,0.0,0.0,0.0,0.0,0.0,0.0,0.0,0.0,0.0,0.0,0.0,0.0,0.0,0.0,-0.9616,-0.8857,-0.7863,-0.9096,-1.0295,-1.1095,-1.2395,-1.316,-1.3026,-1.3019,-1.2966,-1.2839,-1.2826,-1.2752,-1.2565,-1.264,-1.256,-1.2305,-1.2305,-1.2291,-1.2273,-0.8307,-0.7495,-0.9781,-0.7447,-0.6338,-0.6338,-0.6338,-0.63,-0.6551,-1.0545,-1.2287,-1.2297,-1.2318,-1.2283,-1.2657,0.0,0.0,0.0,0.0,-1.6672,-1.4162,-1.3577,-1.3798,-1.4313,-1.4682,-1.5197,-1.5634,-1.5486,-1.4899,-1.405,-1.3344,-1.2852,-1.2443,-1.1658,-1.1848,-1.215,-1.1545,-1.1842,-1.2305,-1.2305,-1.2305,-1.2305,-1.2305,-1.2545,0.0,-1.338,-1.164,-1.0228,-1.0483,-0.8589,-0.6711,-0.5521,-0.6128,-0.6644,-0.6551,-0.6454,-0.6914,-0.7928,-0.8826,0.0,0.0,0.0,-1.3388,-1.5386,-1.661,0.0,0.0,0.0,0.0,0.0,0.0,0.0,0.0,-1.9683,-1.9416,0.0,0.0,0.0,0.0,0.0,0.0,0.0,0.0,0.0,0.0,0.0,0.0,0.0,0.0,0.0,0.0,-0.8998,-0.811,-0.7011,-0.8742,-1.0123,-1.0123,-1.1894,-1.2999,-1.2802,-1.2768,-1.2585,-1.2318,-1.2305,-1.2305,-1.2305,-1.2305,0.0,0.0,0.0,-1.2324,-1.2283,-0.833,-0.6322,-0.6338,-0.6338,-0.6335,-0.6328,-0.6328,-0.628,-0.65,-1.0587,-1.2322,-1.2305,-1.2305,-1.2535,-1.329,-1.6678,-1.8023,-1.7959,-1.782,-1.6202,-1.4027,-1.3882,0.0,0.0,-1.5092,-1.5446,-1.5658,-1.6349,-1.5296,-1.3818,-1.3745,-1.3025,-1.2305,-1.215,-1.2224,-1.2305,-1.215,-1.2224,-1.2305,-1.2305,-1.2305,-1.2305,-1.2305,-1.2545,-1.2923,-1.316,-1.1542,-1.0273,-1.0575,-0.8591,-0.7052,-0.7039,-0.6912,-0.6822,-0.6802,-0.6709,0.0,-0.8483,-0.9371,-1.0428,-1.1822,-1.2975,-1.4277,-1.5683,-1.8138,-1.9434,-1.9434,-2.0875,-2.1776,-2.2178,-2.3147,-2.3672,-2.3638,-2.0575,-2.0022,0.0,0.0,0.0,0.0,0.0,0.0,0.0,0.0,0.0,0.0,0.0,0.0,0.0,0.0,0.0,-1.0259,-0.9251,-0.8272,-0.7097,-0.8509,-0.9662,-0.9662,-1.133,-1.2452,-1.2392,-1.2385,-1.2365,-1.2305,-1.2305,-1.2305,-1.2305,-1.2305,-1.2305,-1.2305,-1.2305,-1.2324,-1.2283,-0.833,-0.6322,-0.6338,-0.6338,0.0,-0.6283,-0.6283,-0.6304,-0.6514,-1.0565,-1.233,-1.2305,-1.2305,-1.4126,-1.6971,-1.7681,-1.8008,-1.7862,-1.6835,-1.6262,-1.593,-1.5155,-1.5438,-1.607,-1.628,-1.6862,-1.7364,-1.6784,-1.579,0.0,-1.3954,-1.3025,-1.2077,-1.1316,-1.1694,-1.2077,-1.1316,-1.1694,-1.2305,-1.2305,-1.2305,-1.2305,-1.2305,-1.2545,-1.2923,-1.316,-1.1542,-1.0273,-1.0575,-0.8591,-0.7061,-0.6946,-0.6905,-0.6841,-0.6715,-0.6702,-0.7514,-0.9452,-0.9776,-1.075,-1.2803,-1.4963,-1.6329,-1.6644,-1.9047,-2.0312,-2.0312,-2.2158,-2.3132,-2.322,-2.4192,-2.4707,-2.4707,-2.3234,-2.2754,0.0,0.0,0.0,0.0,0.0,0.0,0.0,0.0,0.0,0.0,0.0,-1.4775,-1.4132,0.0,-1.1249,-1.0172,-0.8713,-0.7446,-0.6791,-0.8324,-0.9531,-0.9531,-1.1175,-1.2305,-1.2305,-1.2305,-1.2305,-1.2305,-1.2305,-1.2305,-1.2305,-1.2305,-1.2305,-1.2305,-1.2305,-1.2324,-1.2283,-0.833,-0.6322,-0.6338,-0.6338,-0.6325,-0.6384,-0.8363,-0.9337,-0.9391,-1.1465,-1.2311,-1.2298,-1.2304,-1.4217,-1.706,-1.7065,-1.7472,-1.793,-1.7326,-1.6826,-1.6558,-1.607,-1.6219,-1.6636,-1.6636,-1.7217,-1.794,-1.7432,-1.6298,-1.5092,-1.4593,-1.3375,-1.215,-1.1694,-1.1922,-1.215,-1.1694,-1.1922,-1.2305,-1.2305,-1.2418,-1.2525,-1.2525,-1.2886,-1.3247,-1.34,-1.223,-1.1075,-1.0677,-0.8615,-0.7112,-0.7044,-0.7034,-0.7004,-0.6929,-0.6919,-0.7847,-1.0021,-1.1366,-1.2459,-1.3566,-1.5286,-1.6573,-1.7053,-1.884,-2.0079,-2.0566,-2.2279,-2.336,-2.3884,-2.5133,-2.602,-2.6541,-2.6069,-2.5262,0.0,0.0,0.0,0.0,0.0,0.0,0.0,0.0,-1.4561,-1.5842,-1.6293,-1.6104,-1.493,-1.3172,-1.1426,-1.0095,-0.8212,-0.6855,-0.6568,-0.8173,-0.9471,-0.9471,-1.1145,-1.2305,-1.2305,-1.2305,-1.2305,-1.2305,-1.2305,-1.2305,-1.2305,-1.2305,-1.2305,-1.2305,-1.2305,-1.2324,-1.2283,-0.833,-0.6322,-0.6338,-0.6338,-0.6328,-0.6391,-0.9658,-1.1569,-1.2306,-1.2296,-1.2291,-1.2291,-1.231,-1.372,-1.5919,-1.6123,-1.6945,-1.8008,-1.8008,-1.7501,-1.6853,-1.6853,-1.6853,-1.6853,-1.6853,-1.7354,-1.794,-1.7794,-1.6507,-1.5163,-1.495,-1.3665,-1.2305,-1.2305,-1.2305,-1.2305,-1.2305,-1.2345,-1.2385,-1.2385,-1.2625,-1.2916,-1.2916,-1.3273,-1.3559,-1.3559,-1.2847,-1.1895,-1.0783,-0.879,-0.7404,-0.7139,-0.7139,-0.7139,-0.7139,-0.7139,-0.8009,-1.0438,-1.2778,-1.4088,-1.4088,-1.5195,-1.6291,-1.736,-1.8574,-1.9752,-2.082,-2.2142,-2.3324,-2.4475,-2.582,-2.7037,-2.8109,-2.821,-2.7273,-1.8064,-1.6221,-1.4847,-1.4922,-1.3994,-1.3543,0.0,-1.5984,-1.6773,-1.7764,-1.8038,-1.7652,-1.6228,-1.4248,-1.2159,-1.0176,-0.8742,-0.7517,-0.6631,-0.8143,-0.9332,-0.9332,-1.1117,-1.2305,-1.2305,-1.2305,-1.2305,-1.2305,-1.2305,-1.2305,-1.2305,-1.2305,-1.2305,-1.2305,-1.2305,-1.2324,-1.2283,-0.833,-0.6322,-0.6338,-0.6338,-0.6294,-0.6291,-0.6757,-0.891,-1.2331,-1.2318,-1.2311,-1.2291,-1.231,-1.3475,-1.5392,-1.621,-1.7129,-1.8008,-1.8008,-1.794,-1.7862,-1.7862,-1.7862,-1.7862,-1.7862,-1.794,-1.7862,-1.6991,-1.6009,-1.5021,-1.4099,-1.3091,-1.2305,-1.2305,-1.2305,-1.2305,-1.2305,-1.2505,-1.2775,-1.2775,-1.2939,-1.316,-1.316,-1.342,-1.3559,-1.3559,-1.2847,-1.1895,-1.0783,-0.9492,-0.8277,-0.7228,-0.7139,-0.7139,-0.7139,-0.7139,-0.8009,-1.0438,-1.2778,-1.4088,-1.4088,-1.5311,-1.6638,-1.7904,-1.9221,-2.0514,-2.1738,-2.2696,-2.3806,-2.4915,-2.5995,-2.7037,-2.8109,-2.8612,-2.8424,-1.9701,-1.7497,-1.5482,-1.5367,-1.4335,-1.3911,-1.5989,-1.6643,-1.738,-1.9282,-1.9382,-1.8616,-1.6674,-1.4873,-1.2766,-0.9963,-0.864,-0.7737,-0.7352,-0.844,-0.9523,-1.0115,-1.1615,-1.2492,-1.2318,-1.2305,-1.2305,-1.2305,-1.2305,-1.2291,-1.2293,-1.23,-1.23,-1.23,-1.23,-1.2319,-1.229,-0.833,-0.6322,-0.6338,-0.6338,-0.6304,-0.6395,-0.8746,-1.0674,-1.2305,-1.2305,-1.2305,-1.2298,-1.2318,-1.2781,-1.369,-1.5192,-1.6009,-1.6515,-1.7588,-1.8008,-1.8008,-1.8008,-1.7647,-1.7217,-1.7217,-1.6793,-1.6298,-1.5869,-1.5092,-1.4243,-1.381,-1.3025,-1.2345,-1.2518,-1.2559,-1.2605,-1.2786,-1.2926,-1.3019,-1.3019,-1.3253,-1.346,-1.346,-1.3701,-1.3901,-1.3901,-1.3037,-1.1895,-1.0783,-0.9666,-0.8715,-0.8189,-0.7577,-0.7404,-0.8101,-0.889,-1.0093,-1.1767,-1.3598,-1.4596,-1.4596,-1.5136,-1.6314,-1.8192,-1.876,-1.9969,-2.1885,-2.2506,-2.3669,-2.5509,-2.612,-2.7399,-2.9089,-2.9327,-2.9302,-2.0937,-1.8443,-1.6158,-1.5895,-1.4799,-1.4316,-1.6532,-1.7009,-1.7716,-2.009,-2.0127,-1.9023,-1.68,-1.5362,-1.3512,-1.0307,-0.918,-0.8556,-0.8385,-0.9103,-0.9992,-1.0813,-1.1993,-1.2699,-1.2565,-1.2478,-1.2458,-1.2463,-1.2384,-1.23,-1.2325,-1.2267,-1.2434,-1.2782,-1.2441,-1.2267,-1.2267,-0.8326,-0.6285,-0.6301,-0.6301,-0.6267,-0.6443,-1.0456,-1.2279,-1.23,-1.23,-1.23,-1.23,-1.23,-1.2296,-1.2472,-1.3872,-1.5073,-1.605,-1.6812,-1.7306,-1.7579,-1.7295,-1.6932,-1.6567,-1.628,-1.572,-1.5163,-1.4879,-1.4305,-1.3807,-1.3521,-1.3,-1.2599,-1.2819,-1.2872,-1.2933,-1.316,-1.3273,-1.3327,-1.3327,-1.3561,-1.3768,-1.3768,-1.3941,-1.4088,-1.4088,-1.3379,-1.2534,-1.1824,-1.0357,-0.9209,-0.846,-0.7705,-0.7645,-0.8878,-1.0286,-1.1663,-1.2827,-1.4193,-1.4963,-1.4963,-1.5037,-1.6135,-1.8477,-1.8663,-1.9852,-2.2142,-2.2529,-2.3571,-2.5529,-2.6211,-2.7464,-2.9365,-2.9624,-2.9792,-2.1502,-1.8985,-1.6768,-1.7146,-1.5621,-1.4643,-1.6838,-1.7317,-1.7883,-2.0157,-1.9893,-1.8682,-1.6757,-1.5723,-1.4263,-1.1591,-1.0883,-1.0494,-0.974,-1.0264,-1.0883,-1.1147,-1.212,-1.2936,-1.3153,-1.2997,-1.2852,-1.289,-1.2544,-1.2338,-1.2293,-1.2305,-1.2837,-1.4008,-1.2929,-1.2307,-1.2295,-0.8295,-0.6329,-0.6261,-0.6261,-0.6292,-0.6445,-1.0466,-1.2299,-1.2293,-1.2293,-1.2293,-1.2293,-1.2293,-1.2289,-1.2318,-1.2396,-1.4682,-1.7649,-1.5667,-1.5625,-1.6498,-1.5587,-1.586,-1.6428,-1.5517,-1.5234,-1.5021,-1.4027,-1.3969,-1.3998,-1.3106,-1.3024,-1.3186,-1.3193,-1.32,-1.32,-1.3206,-1.3427,-1.3627,-1.3627,-1.3868,-1.4075,-1.4075,-1.4082,-1.4088,-1.4088,-1.4088,-1.4097,-1.4376,-1.2275,-0.9883,-0.7422,-0.7272,-0.7902,-0.9156,-1.0505,-1.1822,-1.3109,-1.4315,-1.4963,-1.4963,-1.5224,-1.6541,-1.8943,-1.9372,-2.0639,-2.3018,-2.3115,-2.3694,-2.4851,-2.5964,-2.7046,-2.8176,-2.9275,-2.9792,-2.126,-1.9061,-1.6784,-1.7162,-1.5718,-1.4657,-1.6772,-1.7342,-1.7908,-2.0157,-2.0107,-1.8995,-1.68,-1.6105,-1.4847,-1.1735,-1.1112,-1.107,-1.101,-1.1062,-1.1467,-1.238,-1.2982,-1.338,-1.3487,-1.3233,-1.2923,-1.2495,-1.3113,-1.3457,-1.3487,-1.35,-1.3689,-1.4061,-1.3689,-1.35,-1.35,-0.9076,-0.6848,-0.6871,-0.6798,-0.85,-1.1519,-1.2909,-1.3484,-1.3484,-1.3484,-1.3484,-1.3484,-1.3484,-1.345,-1.3468,-1.3084,-1.3698,-1.4829,-1.5064,-1.4912,-1.4651,-1.5468,-1.5501,-1.5209,-1.4917,-1.4395,-1.3808,-1.3432,-1.3431,-1.3436,-1.3131,-1.3126,-1.3253,-1.3447,-1.35,-1.3547,-1.3748,-1.3868,-1.3941,-1.3941,-1.4015,-1.4088,-1.4088,-1.4088,-1.4148,-1.4342,-1.3745,-1.3037,-1.258,-1.1711,-1.0232,-0.7724,-0.8214,-0.925,-1.0534,-1.2021,-1.3379,-1.459,-1.5239,-1.5538,-1.5538,-1.5631,-1.6772,-1.9225,-1.943,-2.0674,-2.3047,-2.3135,-2.3627,-2.4787,-2.5964,-2.7046,-2.8096,-2.9275,-2.9792,-2.1188,-1.9373,-1.7232,-1.7158,-1.586,-1.5032,-1.6288,-1.692,-1.7819,-1.9678,-1.9955,-1.9163,-1.68,-1.6012,-1.4903,-1.2356,-1.1889,-1.1988,-1.2339,-1.2141,-1.223,-1.3247,-1.3621,-1.3841,-1.3948,-1.3695,-1.3378,-1.2988,-1.3622,-1.4069,-1.4076,-1.409,-1.409,-1.409,-1.409,-1.4076,-1.4138,-0.9455,-0.7097,-0.7119,-0.8809,-1.1194,-1.4104,-1.4137,-1.4082,-1.4082,-1.4082,-1.4082,-1.4082,-1.4082,-1.4082,-1.4068,-1.3675,-1.3521,-1.3608,-1.4597,-1.4452,-1.3853,-1.4699,-1.4794,-1.4569,-1.4194,-1.366,-1.3213,-1.3213,-1.328,-1.3367,-1.3367,-1.344,-1.3567,-1.3754,-1.3801,-1.3848,-1.4041,-1.4088,-1.4088,-1.4088,-1.4088,-1.4122,-1.4222,-1.4242,-1.4335,-1.4629,-1.4123,-1.3417,-1.2384,-1.2204,-1.1455,-0.9274,-0.977,-1.0739,-1.2047,-1.3111,-1.4215,-1.5458,-1.5718,-1.5832,-1.5832,-1.5832,-1.6929,-1.9405,-1.9497,-2.0674,-2.3047,-2.3135,-2.3474,-2.4211,-2.5294,-2.6461,-2.7533,-2.8688,-2.9443,-2.1178,-1.9684,-1.8035,-1.7061,-1.622,-1.5509,-1.5365,-1.6275,-1.7585,-1.8709,-1.9354,-1.9056,-1.6968,-1.5632,-1.4456,-1.3317,-1.3154,-1.3333,-1.3539,-1.3333,-1.334,-1.3552,-1.3928,-1.4215,-1.4496,-1.43,-1.4147,-1.4168,-1.4115,-1.4108,-1.4108,-1.4095,-1.4088,-1.4088,-1.4088,-1.4128,-1.413,-0.947,-0.7215,-0.7492,-1.1716,-1.3906,-1.4097,-1.4083,-1.4088,-1.4088,-1.4088,-1.4088,-1.4088,-1.4088,-1.4088,-1.4088,-1.4088,-1.4088,-1.4088,-1.4088,-1.4088,-1.4008,-1.3447,-1.3866,-1.4394,-1.3564,-1.3253,-1.3253,-1.3253,-1.3447,-1.3667,-1.3667,-1.3868,-1.4088,-1.4088,-1.4088,-1.4088,-1.4088,-1.4095,-1.4108,-1.4108,-1.4122,-1.4215,-1.4489,-1.4556,-1.4656,-1.4937,-1.5224,-1.5034,-1.3701,-1.3815,-1.3412,-1.1728,-1.1682,-1.2288,-1.3532,-1.3832,-1.4465,-1.573,-1.5832,-1.5832,-1.5832,-1.5832,-1.6929,-1.9405,-1.9497,-2.0674,-2.3047,-2.3135,-2.3135,-2.3135,-2.4211,-2.5378,-2.6472,-2.7602,-2.8688,-1.9889,-1.8572,-1.7096,-1.6511,-1.5242,-1.437,-1.516,-1.5901,-1.6878,-1.8249,-1.9515,-2.0008,-1.877,-1.7113,-1.5036,-1.2161,-1.2939,-1.3572,-1.2716,-1.3118,-1.3641,-1.3941,0.0,-1.4436,-1.4509,-1.4777,-1.4922,-1.4763,-1.4335,-1.4117,-1.4117,-1.411,-1.4088,-1.4088,-1.4088,-1.4128,-1.413,-0.9434,-0.8827,-1.2255,-1.0024,-1.0711,-1.407,-1.4108,-1.4088,-1.4088,-1.4088,-1.4088,-1.4088,-1.4088,-1.4088,-1.4088,-1.4088,-1.4088,-1.4088,-1.4088,-1.4088,-1.4068,-1.3915,-1.402,-1.4179,-1.3944,-1.3861,-1.3861,-1.3861,-1.3915,-1.3975,-1.3975,-1.4028,-1.4088,-1.4088,-1.4088,-1.4088,-1.4088,-1.4255,-1.4409,-1.4409,-1.4583,-1.4763,-1.4836,-1.5023,-1.5197,-1.5271,-1.5524,-1.5617,-1.5233,-1.5292,-1.4417,-1.2076,-1.2682,-1.3492,-1.3784,-1.4715,-1.5439,-1.5737,-1.5832,-1.5832,-1.5832,-1.5832,-1.6929,-1.9405,-1.9497,-2.0674,-2.3047,-2.3135,-2.3135,-2.3135,-2.4211,-2.4957,-2.5294,-2.7186,-2.8255,-1.9912,-1.9089,-1.7973,-1.6817,-1.5693,-1.4896,-1.4588,-1.5427,-1.6409,-1.7236,-1.9093,-2.0184,-1.87,-1.6748,-1.4692,-1.2457,-1.2778,-1.3318,-1.3324,-1.3819,-1.4282,-1.4449,-1.473,-1.4903,-1.4903,-1.5219,-1.5418,-1.5357,-1.507,-1.4599,-1.4141,-1.4077,-1.4117,-1.4088,-1.4088,-1.4128,-1.413,-1.1472,-1.0474,-1.1,-1.0424,-1.1577,-1.4142,-1.4102,-1.4088,-1.4088,-1.4088,-1.4088,-1.4088,-1.4088,-1.4088,-1.4088,-1.4088,-1.4088,-1.4088,-1.4088,-1.4088,-1.4088,-1.4088,-1.4088,-1.4088,-1.4088,-1.4088,-1.4088,-1.4088,-1.4088,-1.4088,-1.4088,-1.4088,-1.4088,-1.4088,-1.4182,-1.4282,-1.4282,-1.4502,-1.4716,-1.4716,-1.4843,-1.4997,-1.513,-1.5391,-1.5585,-1.5585,-1.5718,-1.5832,-1.5832,-1.5832,-1.5248,-1.3788,-1.4268,-1.4752,-1.4752,-1.5337,-1.5832,-1.5832,-1.5832,-1.5832,-1.5832,-1.5832,-1.6929,-1.9405,-1.9497,-2.0674,-2.3047,-2.3135,-2.3135,-2.3135,-2.3714,-2.4296,-2.4872,-2.6614,-2.7683,-2.0498,-2.0042,-1.9032,-1.726,-1.6583,-1.5833,-1.4035,-1.4785,-1.5929,-1.5899,-1.7976,-1.9136,-1.7236,-1.4871,-1.3008,-1.2614,-1.2454,-1.2785,-1.4242,-1.4746,-1.4963,-1.4963,-1.5217,-1.5398,-1.5398,-1.5658,-1.5832,-1.5832,-1.5805,-1.5413,-1.4373,-1.4307,-1.4269,-1.4208,-1.4202,-1.4242,-1.423,-1.4123,-1.2066,-0.8064,-1.2157,-1.4103,-1.4078,-1.4123,-1.4103,-1.4103,-1.4103,-1.4103,-1.4103,-1.4103,-1.4103,-1.4103,-1.4103,-1.4103,-1.4103,-1.4103,-1.4103,-1.4103,-1.4103,-1.4103,-1.409,-1.4108,-1.4088,-1.4088,-1.4088,-1.4088,-1.4095,-1.4135,-1.4142,-1.4155,-1.4195,-1.4389,-1.4583,-1.4583,-1.4803,-1.5023,-1.5023,-1.505,-1.515,-1.5404,-1.5658,-1.5832,-1.5832,-1.5832,-1.5832,-1.5832,-1.5832,-1.5832,-1.5832,-1.5832,-1.5832,-1.5832,-1.5832,-1.5832,-1.5832,-1.5832,-1.5832,-1.5832,-1.5832,-1.6929,-1.9405,-1.9497,-2.0674,-2.3047,-2.3135,-2.3135,-2.3135,-2.3135,-2.3637,-2.4628,-2.5714,-2.6871,-2.0127,-1.8782,-1.7243,-1.6546,-1.5238,-1.4035,-1.3641,-1.4041,0.0,-1.4483,-1.4899,-1.5115,-1.4717,-1.1204,-0.8459,-0.8798,-1.0598,-1.2299,-1.31,-1.4282,-1.4963,-1.4963,-1.5217,-1.5398,-1.5398,-1.5658,-1.5832,-1.5832,-1.5785,-1.5712,-1.5474,-1.5521,-1.5267,-1.4816,-1.481,-1.4823,-1.483,-1.4359,-1.3667,-1.2859,-1.3673,-1.4135,-1.4089,-1.4108,-1.4103,-1.4103,-1.4103,-1.4103,-1.4103,-1.4103,-1.4103,-1.4103,-1.4103,-1.4103,-1.4103,-1.4103,-1.4103,-1.4103,-1.4103,-1.4103,-1.4128,-1.4143,-1.4088,-1.4088,-1.4088,-1.4088,-1.4135,-1.4376,-1.4442,-1.4502,-1.475,-1.485,-1.4883,-1.4883,-1.511,-1.5317,-1.5317,-1.5504,-1.5691,-1.5745,-1.5792,-1.5832,-1.5832,-1.5832,-1.5832,-1.5832,-1.5832,-1.5832,-1.5832,-1.5832,-1.5832,-1.5832,-1.5832,-1.5832,-1.5832,-1.5832,-1.5832,-1.5832,-1.5832,-1.6929,-1.9405,-1.9497,-2.0674,-2.3047,-2.3135,-2.3135,-2.3135,-2.3135,-2.3222,-2.3377,-2.4542,-2.5714,-2.0312,-1.8979,-1.7493,-1.6954,-1.6008,-1.494,-1.4076,0.0,0.0,-1.4129,-1.4112,-1.4075,-1.4126,-1.2221,-1.0041,-0.7875,-0.8828,-1.0973,-1.3963,-1.4955,-1.5418,-1.5418,-1.5538,-1.5618,-1.5618,-1.5745,-1.5832,-1.5832,-1.5832,-1.5812,-1.5828,-1.5833,-1.5576,-1.5156,-1.506,-1.506,-1.5066,-1.4856,-1.4491,-1.4059,-1.4097,-1.4395,-1.496,-1.4993,-1.4963,-1.4963,-1.4963,-1.4963,-1.4963,-1.4963,-1.4963,-1.4963,-1.4963,-1.4963,-1.4963,-1.4963,-1.4963,-1.4963,-1.4963,-1.4963,-1.5006,-1.4933,-1.4831,-1.4543,-1.4543,-1.4543,-1.4576,-1.471,-1.475,-1.4783,-1.493,-1.5077,-1.519,-1.519,-1.5411,-1.5618,-1.5618,-1.5732,-1.5832,-1.5832,-1.5832,-1.5832,-1.5832,-1.5832,-1.5832,-1.5832,-1.5832,-1.5832,-1.5832,-1.5832,-1.5832,-1.5832,-1.5832,-1.5832,-1.5832,-1.5832,-1.5832,-1.5832,-1.5832,-1.6929,-1.9405,-1.9497,-2.0674,-2.3047,-2.3135,-2.3135,-2.3135,-2.3135,-2.3135,-2.3135,-2.4296,-2.5126,-2.0732,-1.9496,-1.8136,-1.7546,-1.6927,-1.6108,-1.4846,-1.433,0.0,-1.4085,-1.4062,-1.4108,-1.409,-1.4109,-1.2549,0.0,-0.8509,-1.0843,-1.4671,-1.5527,-1.5832,-1.5832,-1.5832,-1.5832,-1.5832,-1.5832,-1.5832,-1.5832,-1.5832,-1.5833,-1.5817,-1.5796,-1.5659,-1.5352,-1.5248,-1.5241,-1.5345,-1.5291,-1.505,-1.4443,-1.4443,-1.4947,-1.5777,-1.5833,-1.577,-1.577,-1.577,-1.577,-1.577,-1.577,-1.577,-1.577,-1.577,-1.577,-1.577,-1.577,-1.577,-1.577,-1.577,-1.577,-1.577,-1.577,-1.5479,-1.5163,-1.506,-1.506,-1.5073,-1.5044,-1.5057,-1.507,-1.5137,-1.5317,-1.5491,-1.5491,-1.5665,-1.5832,-1.5832,-1.5832,-1.5832,-1.5832,-1.5832,-1.5832,-1.5832,-1.5832,-1.5832,-1.5832,-1.5832,-1.5832,-1.5832,-1.5832,-1.5832,-1.5832,-1.5832,-1.5832,-1.5832,-1.5832,-1.5832,-1.5832,-1.5832,-1.6929,-1.9405,-1.9497,-2.0674,-2.3047,-2.3135,-2.3135,-2.3135,-2.3135,-2.3135,-2.3135,-2.4049,-2.4542,-2.1279,-1.9643,-1.7963,-1.7829,-1.6731,-1.5816,-1.59,0.0,-1.4083,-1.4096,-1.4065,-1.4088,-1.4095,-1.411,-1.2667,-0.8299,0.0,-1.4284,-1.3522,-1.4796,-1.5832,-1.5832,-1.5832,-1.5832,-1.5832,-1.5832,-1.5832,-1.5832,-1.5832,-1.5818,-1.5792,-1.5772,-1.5758,-1.5752,-1.5752,-1.5752,-1.5752,-1.5704,-1.5674,-1.5667,-1.5667,-1.5674,-1.5787,-1.5839,-1.5758,-1.5758,-1.5758,-1.5758,-1.5758,-1.5758,-1.5758,-1.5758,-1.5758,-1.5758,-1.5758,-1.5758,-1.5758,-1.5758,-1.5758,-1.5758,-1.5758,-1.5758,-1.5807,-1.5673,-1.5266,-1.5163,-1.5217,-1.5284,-1.5357,-1.5418,-1.5678,-1.5765,-1.5792,-1.5792,-1.5812,-1.5832,-1.5832,-1.5832,-1.5832,-1.5832,-1.5832,-1.5832,-1.5832,-1.5832,-1.5832,-1.5832,-1.5832,-1.5832,-1.5832,-1.5832,-1.5832,-1.5832,-1.5832,-1.5832,-1.5832,-1.5832,-1.5832,-1.5832,-1.5832,-1.6929,-1.9405,-1.9497,-2.0674,-2.3047,-2.3135,-2.3135,-2.3135,-2.3135,-2.3135,-2.3135,-2.3222,-2.38,-2.1496,-1.9996,-1.8371,-1.9048,-1.8254,-1.7286,-1.7223,-1.7365,-1.6849,-1.4874,-1.4266,-1.4099,-1.4097,-1.2991,-1.1511,-0.9975,-1.0327,-1.1399,-1.2936,-1.3814,-1.4632,-1.5724,-1.5832,-1.5832,-1.5832,-1.5832,-1.5832,-1.5832,-1.5832,-1.5832,-1.5832,-1.5832,-1.5832,-1.5832,-1.5832,-1.5832,-1.5832,-1.5819,-1.5765,-1.5765,-1.5765,-1.5765,-1.5772,-1.5778,-1.5832,-1.5832,-1.5832,-1.5832,-1.5832,-1.5832,-1.5832,-1.5832,-1.5832,-1.5832,-1.5832,-1.5832,-1.5832,-1.5832,-1.5832,-1.5832,-1.5832,-1.5832,-1.5785,-1.5797,-1.5591,-1.5584,-1.5611,-1.5625,-1.5658,-1.5685,-1.5798,-1.5832,-1.5832,-1.5832,-1.5832,-1.5832,-1.5832,-1.5832,-1.5832,-1.5832,-1.5832,-1.5832,-1.5832,-1.5832,-1.5832,-1.5832,-1.5832,-1.5832,-1.5832,-1.5832,-1.5832,-1.5832,-1.5832,-1.5832,-1.5832,-1.5832,-1.5832,-1.5832,-1.5999,-1.7215,-1.9717,-2.0025,-2.1252,-2.3446,-2.3779,-2.3789,-2.3525,-2.3525,-2.3525,-2.3525,-2.3262,-2.3299,-2.0846,-1.9806,-1.8832,-1.96,-1.9093,-1.8468,-1.8744,-1.9296,-1.8998,-1.636,-1.5319,-1.4753,-1.4475,-1.3043,-1.1772,0.0,-1.0315,-1.0197,-1.2019,-1.2587,-1.3471,-1.5166,-1.5364,-1.5473,-1.5863,-1.5879,-1.5832,-1.5832,-1.5832,-1.5832,-1.5832,-1.5832,-1.5832,-1.5832,-1.5832,-1.5832,-1.5832,-1.5832,-1.5832,-1.5832,-1.5832,-1.5832,-1.5832,-1.5832,-1.5832,-1.5832,-1.5832,-1.5832,-1.5832,-1.5832,-1.5832,-1.5832,-1.5832,-1.5832,-1.5832,-1.5832,-1.5832,-1.5832,-1.5832,-1.5832,-1.5832,-1.5832,-1.5832,-1.5832,-1.5832,-1.5832,-1.5832,-1.5832,-1.5832,-1.5832,-1.5832,-1.5832,-1.5832,-1.5832,-1.5832,-1.5832,-1.5832,-1.5832,-1.5832,-1.5832,-1.5832,-1.5832,-1.5832,-1.5905,-1.5959,-1.5959,-1.5959,-1.5992,-1.6079,-1.6012,-1.5992,-1.6079,-1.6086,-1.6019,-1.5845,-1.5912,-1.5959,-1.5959,-1.6239,-1.7538,-2.0182,-2.0429,-2.1698,-2.3884,-2.4268,-2.4268,-2.3975,-2.3975,-2.3975,-2.3965,-2.3662,-2.3693,-1.9306,-1.9049,-1.904,-1.8855,-1.8592,-1.8765,-2.0348,-2.0391,-1.9858,-1.8579,-1.7534,-1.6411,-1.5218,-1.4957,-1.421,-1.1838,-1.2538,-1.2531,-1.036,-1.134,-1.2757,-1.415,-1.4161,-1.466,-1.6168,-1.6005,-1.5832,-1.5832,-1.5832,-1.5832,-1.5832,-1.5832,-1.5832,-1.5832,-1.5832,-1.5832,-1.5832,-1.5832,-1.5832,-1.5832,-1.5832,-1.5832,-1.5832,-1.5832,-1.5832,-1.5832,-1.5832,-1.5832,-1.5832,-1.5832,-1.5832,-1.5832,-1.5832,-1.5832,-1.5832,-1.5832,-1.5832,-1.5832,-1.5832,-1.5832,-1.5832,-1.5832,-1.5832,-1.5832,-1.5832,-1.5832,-1.5832,-1.5832,-1.5832,-1.5832,-1.5832,-1.5832,-1.5832,-1.5832,-1.5832,-1.5832,-1.5832,-1.5832,-1.5832,-1.5832,-1.5832,-1.5832,-1.5832,-1.6072,-1.6266,-1.6266,-1.6266,-1.6373,-1.666,-1.6446,-1.638,-1.6667,-1.67,-1.646,-1.5879,-1.6099,-1.6266,-1.6266,-1.654,-1.7867,-2.0473,-2.057,-2.1821,-2.4312,-2.4414,-2.4414,-2.4414,-2.4414,-2.4414,-2.4414,-2.4404,-2.5027,-1.9241,-1.8704,-1.8339,-1.9052,-1.9232,-1.9385,-2.0481,-2.1247,-2.1154,-1.9129,-1.8232,-1.7365,-1.5575,-1.4449,-1.3262,-1.1864,-1.1351,-1.0895,-1.0327,-1.0728,-1.1885,-1.4222,-1.5183,-1.5771,-1.6273,-1.6005,-1.5832,-1.5832,-1.5832,-1.5832,-1.5832,-1.5832,-1.5832,-1.5832,-1.5832,-1.5832,-1.5832,-1.5832,-1.5832,-1.5832,-1.5832,-1.5832,-1.5832,-1.5832,-1.5832,-1.5832,-1.5832,-1.5832,-1.5832,-1.5832,-1.5832,-1.5832,-1.5832,-1.5832,-1.5832,-1.5832,-1.5832,-1.5832,-1.5832,-1.5832,-1.5832,-1.5832,-1.5832,-1.5832,-1.5832,-1.5832,-1.5832,-1.5832,-1.5832,-1.5832,-1.5832,-1.5832,-1.5832,-1.5832,-1.5832,-1.5832,-1.5832,-1.5832,-1.5885,-1.6092,-1.6132,-1.6192,-1.6393,-1.6506,-1.6567,-1.6567,-1.6567,-1.66,-1.6693,-1.6627,-1.6607,-1.6693,-1.6707,-1.6627,-1.644,-1.6513,-1.6567,-1.6567,-1.6847,-1.8189,-2.0933,-2.1271,-2.2477,-2.4863,-2.5166,-2.5166,-2.4863,-2.4863,-2.4707,-2.4414,-2.4414,-2.5037,-1.794,-1.7956,-1.787,-1.8588,-1.9131,-1.9793,-2.0722,-2.1842,-2.2025,-1.9605,-1.8888,-1.8184,-1.5975,-1.4366,-1.3134,-1.1991,-1.0838,-0.9979,-0.9701,-0.9739,-1.0753,-1.3556,-1.5481,-1.652,-1.6293,-1.6106,-1.5952,-1.5838,-1.5832,-1.5832,-1.5832,-1.5832,-1.5832,-1.5832,-1.5832,-1.5832,-1.5832,-1.5832,-1.5832,-1.5832,-1.5832,-1.5832,-1.5832,-1.5832,-1.5832,-1.5832,-1.5832,-1.5832,0.0,-1.5832,-1.5832,-1.5832,-1.5832,-1.5832,-1.5832,-1.5832,-1.5832,-1.5832,-1.5832,-1.5832,-1.5832,-1.5832,-1.5832,-1.5832,-1.5832,-1.5832,-1.5832,-1.5832,-1.5832,-1.5832,-1.5832,-1.5832,-1.5832,-1.5832,-1.5832,-1.5832,-1.5832,-1.5919,-1.6052,-1.6239,-1.6359,-1.6493,-1.6673,-1.68,-1.6874,-1.6874,-1.6874,-1.6914,-1.7021,-1.6941,-1.6914,-1.7021,-1.7041,-1.7041,-1.7041,-1.6934,-1.6874,-1.6874,-1.7148,-1.8614,-2.1312,-2.1628,-2.2854,-2.5322,-2.5596,-2.5596,-2.5322,-2.5322,-2.5185,-2.4912,-2.4912,-2.5278,0.0,-1.6669,-1.7598,-1.7598,-1.8503,-1.9679,-2.0935,-2.2129,0.0,-2.0133,-1.9579,-1.8772,-1.6407,-1.486,-1.3499,-1.2181,-1.0966,-0.9786,-0.8501,-0.8755,-1.0,-1.2534,-1.5469,-1.6927,-1.6359,-1.6286,-1.6152,-1.5852,-1.5832,-1.5832,-1.5832,-1.5832,-1.5832,-1.5832,-1.5832,-1.5832,-1.5832,-1.5832,-1.5832,-1.5832,-1.5832,-1.5832,-1.5832,-1.5832,-1.5832,-1.5832,-1.5832,-1.5832,-1.5832,-1.5832,-1.5832,-1.5832,-1.5832,-1.5832,-1.5832,-1.5832,-1.5832,-1.5832,-1.5832,-1.5832,-1.5832,-1.5832,-1.5832,-1.5832,-1.5832,-1.5832,-1.5832,-1.5832,-1.5832,-1.5832,-1.5832,-1.5832,-1.5832,-1.5832,-1.5845,-1.5865,-1.5865,-1.6092,-1.6313,-1.6333,-1.6553,-1.674,-1.6767,-1.6994,-1.7181,-1.7181,-1.7181,-1.7281,-1.7549,-1.7348,-1.7281,-1.7555,-1.7582,-1.7582,-1.7582,-1.7335,-1.7181,-1.7181,-1.7435,-1.8805,-2.155,-2.1752,-2.2968,-2.5635,-2.5742,-2.5742,-2.5742,-2.5742,-2.5742,-2.5742,-2.5742,-2.5742,-1.5832,0.0,-1.6292,-1.6292,-1.7217,-1.8411,0.0,-2.0845,-2.1569,0.0,0.0,-1.912,-1.7816,-1.5549,-1.3614,-1.2586,-1.1266,-0.9912,-0.88,-1.0683,-1.2435,-1.3081,-1.5584,-1.7007,-1.664,-1.64,-1.6152,-1.5852,-1.5832,-1.5832,-1.5832,-1.5832,-1.5832,-1.5832,-1.5832,-1.5832,-1.5832,-1.5832,-1.5832,-1.5832,-1.5832,-1.5832,-1.5832,-1.5832,-1.5832,-1.5832,-1.5832,-1.5832,-1.5832,-1.5832,-1.5832,-1.5832,-1.5832,-1.5832,-1.5832,-1.5832,-1.5832,-1.5832,-1.5832,-1.5832,-1.5832,-1.5832,-1.5832,-1.5832,-1.5832,-1.5832,-1.5832,-1.5832,-1.5832,-1.5832,-1.5832,-1.5832,-1.5832,-1.5832,-1.6005,-1.6166,-1.6166,-1.64,-1.6673,-1.6901,-1.7001,-1.7114,-1.7335,-1.7435,-1.7482,-1.7482,-1.7482,-1.7508,-1.7575,-1.7522,-1.7508,-1.7575,-1.7582,-1.7582,-1.7582,-1.7522,-1.7482,-1.7482,-1.7549,-1.8805,-2.155,-2.1752,-2.2968,-2.5635,-2.5742,-2.5742,-2.5742,-2.5742,-2.5742,-2.5742,-2.5742,-2.5742,-1.5832,-1.5832,-1.5832,-1.5832,-1.6763,-1.8048,-1.9222,0.0,0.0,0.0,0.0,0.0,-1.8097,-1.58,0.0,-1.2607,-1.1385,-1.0216,-0.9008,-1.0828,-1.2512,-1.3264,-1.5082,-1.649,-1.6934,-1.6767,-1.6553,-1.6253,-1.6233,-1.6172,-1.6039,-1.6032,-1.6032,-1.6032,-1.6032,-1.5965,-1.5832,-1.5832,-1.5832,-1.5832,-1.5832,-1.5832,-1.5832,-1.5832,-1.5832,-1.5832,-1.5832,-1.5832,-1.5832,-1.5832,-1.5832,-1.5832,-1.5832,-1.5832,-1.5832,-1.5832,-1.5832,-1.5832,-1.5832,-1.5832,-1.5832,-1.5832,-1.5832,-1.5832,-1.5832,-1.5832,-1.5832,-1.5832,-1.5832,-1.5865,-1.5999,-1.6032,-1.6066,-1.6199,-1.6353,-1.6473,-1.6473,-1.67,-1.6954,-1.7121,-1.7255,-1.7402,-1.7555,-1.7582,-1.7582,-1.7582,-1.7582,-1.7582,-1.7582,-1.7582,-1.7582,-1.7582,-1.7582,-1.7582,-1.7582,-1.7582,-1.7582,-1.7582,-1.7582,-1.8805,-2.155,-2.1752,-2.2968,-2.5635,-2.5742,-2.5742,-2.5742,-2.5742,-2.5742,-2.5742,-2.5742,-2.5742,-1.5832,-1.5865,-1.5885,-1.5838,-1.6574,-1.7777,-1.8948,0.0,0.0,0.0,0.0,0.0,0.0,-1.5719,0.0,0.0,-1.139,-1.0185,-0.9058,-1.0147,-1.1538,-1.2832,-1.4449,-1.5747,-1.6749,-1.7045,-1.7027,-1.6727,-1.6707,-1.66,-1.6353,-1.6339,-1.6339,-1.6339,-1.6339,-1.6219,-1.5965,-1.5965,-1.5959,-1.5863,-1.5863,-1.5856,-1.5754,-1.5754,-1.5754,-1.5754,-1.5754,-1.5754,-1.5754,-1.5754,-1.5754,-1.5843,-1.581,-1.579,-1.579,-1.5845,-1.5832,-1.5832,-1.5832,-1.5858,-1.5899,-1.5899,-1.5925,-1.5965,-1.5965,-1.5965,-1.5965,-1.5965,-1.5932,-1.5965,-1.6259,-1.6339,-1.64,-1.6647,-1.674,-1.6774,-1.6774,-1.7007,-1.7215,-1.7215,-1.7415,-1.7582,-1.7582,-1.7582,-1.7582,-1.7582,-1.7582,-1.7582,-1.7582,-1.7582,-1.7582,-1.7582,-1.7582,-1.7582,-1.7582,-1.7582,-1.7582,-1.7582,-1.7582,-1.8805,-2.155,-2.2055,-2.3384,-2.5635,-2.5742,-2.5742,-2.5742,-2.5742,-2.5742,-2.5742,-2.5742,-2.5742,-1.5832,-1.6012,-1.6146,-1.5892,-1.592,-1.6386,0.0,0.0,0.0,0.0,0.0,0.0,0.0,-1.5238,-1.2776,0.0,-1.0916,-0.9172,-0.9212,-1.0331,-1.1214,-1.1433,-1.3798,-1.5423,-1.5377,-1.651,-1.7027,-1.6727,-1.6707,-1.6687,-1.664,-1.664,-1.664,-1.664,-1.664,-1.662,-1.6573,-1.6573,-1.6461,-1.6341,-1.6341,-1.6123,-1.5793,-1.5793,-1.5793,-1.5793,-1.5793,-1.5793,-1.5793,-1.5793,-1.5793,-1.5767,-1.5752,-1.5771,-1.5835,-1.5817,-1.5832,-1.5832,-1.5832,-1.5999,-1.6206,-1.6206,-1.6373,-1.6573,-1.6573,-1.6573,-1.6573,-1.6573,-1.6393,-1.6273,-1.6567,-1.664,-1.6653,-1.6693,-1.6901,-1.7081,-1.7081,-1.7308,-1.7515,-1.7515,-1.7555,-1.7582,-1.7582,-1.7582,-1.7582,-1.7582,-1.7582,-1.7582,-1.7582,-1.7582,-1.7582,-1.7582,-1.7582,-1.7582,-1.7582,-1.7582,-1.7582,-1.7582,-1.7582,-1.8805,-2.155,-2.389,-2.5323,-2.5732,-2.5742,-2.5742,-2.5742,-2.5742,-2.5742,-2.5742,-2.5742,-2.5742,-1.5785,-1.5925,-1.6039,-1.6059,-1.6186,-1.6545,0.0,0.0,0.0,0.0,0.0,0.0,0.0,0.0,-1.3451,-1.2384,-1.0485,-0.9079,-0.9144,-0.9579,-1.0241,-1.1,-1.294,-1.4511,-1.5147,-1.6526,-1.7328,-1.7188,-1.7181,-1.7114,-1.6954,-1.6947,-1.6947,-1.6947,-1.6947,-1.7021,-1.7174,-1.7181,-1.7014,-1.6587,-1.67,-1.66,-1.648,-1.67,-1.6814,-1.6814,-1.6814,-1.6814,-1.6814,-1.6814,-1.6814,-1.68,-1.6779,-1.6612,-1.6269,-1.6248,-1.6306,-1.6306,-1.6306,-1.6393,-1.6506,-1.6506,-1.66,-1.6707,-1.6707,-1.6707,-1.674,-1.6901,-1.6734,-1.6573,-1.6867,-1.6947,-1.6987,-1.7141,-1.7281,-1.7382,-1.7382,-1.7488,-1.7582,-1.7582,-1.7582,-1.7582,-1.7582,-1.7582,-1.7582,-1.7582,-1.7582,-1.7582,-1.7582,-1.7582,-1.7582,-1.7582,-1.7582,-1.7582,-1.7582,-1.7736,-1.8068,-1.8617,-1.9413,-2.0735,-2.2667,-2.4609,-2.5742,-2.5742,-2.5742,-2.585,-2.6084,-2.6084,-2.6211,-2.6426,-2.6426,-2.6426,-1.5665,-1.5825,-1.5972,0.0,0.0,0.0,0.0,0.0,0.0,0.0,0.0,0.0,0.0,-1.4971,-1.3424,-1.1164,-0.9957,-0.9154,-0.9154,-0.9028,-0.9265,-1.0457,-1.2186,-1.3696,-1.477,-1.6499,-1.7582,-1.7582,-1.7582,-1.7482,-1.7261,-1.7248,-1.7248,-1.7248,-1.7248,-1.7361,-1.7582,-1.7582,-1.7355,-1.6907,-1.7029,-1.7137,-1.7144,-1.7482,-1.7604,-1.7604,-1.7604,-1.7604,-1.7604,-1.7604,-1.7604,-1.7597,-1.7636,-1.7223,-1.6707,-1.6707,-1.6707,-1.6707,-1.6707,-1.6747,-1.6807,-1.6807,-1.6854,-1.6907,-1.6907,-1.6907,-1.6961,-1.7188,-1.7088,-1.6961,-1.7194,-1.7248,-1.7308,-1.7528,-1.7582,-1.7582,-1.7582,-1.7582,-1.7582,-1.7582,-1.7582,-1.7582,-1.7582,-1.7582,-1.7609,-1.7675,-1.7689,-1.7716,-1.7782,-1.7796,-1.7796,-1.7796,-1.7796,-1.7796,-1.7796,-1.8016,-1.8784,-2.018,-2.129,-2.252,-2.3962,-2.5315,-2.6035,-2.6035,-2.6035,-2.6201,-2.6533,-2.6533,-2.6699,-2.7012,-2.7012,-2.7012,-1.5424,-1.5825,-1.6179,-1.5925,0.0,0.0,0.0,0.0,0.0,0.0,0.0,0.0,0.0,-1.3141,-1.1177,-0.9792,-0.936,-0.9154,-0.9154,-0.9028,-0.8937,-0.9047,-1.1538,-1.3372,-1.348,-1.5962,-1.7582,-1.7582,-1.7582,-1.7569,-1.7555,-1.7549,-1.7549,-1.7549,-1.7549,-1.7562,-1.7582,-1.7582,-1.7562,-1.7522,-1.7522,-1.7522,-1.7522,-1.7634,-1.7634,-1.7634,-1.7634,-1.7634,-1.7634,-1.7634,-1.7634,-1.7607,-1.7571,-1.7184,-1.6707,-1.6707,-1.6707,-1.6707,-1.6707,-1.6887,-1.7114,-1.7114,-1.7301,-1.7522,-1.7522,-1.7522,-1.7522,-1.7549,-1.7535,-1.7522,-1.7549,-1.7549,-1.7555,-1.7582,-1.7582,-1.7582,-1.7582,-1.7582,-1.7582,-1.7582,-1.7582,-1.7582,-1.7582,-1.7582,-1.7675,-1.7969,-1.8016,-1.8116,-1.839,-1.8424,-1.8424,-1.8424,-1.8424,-1.8424,-1.8424,-1.8444,-1.9626,-2.2348,-2.256,-2.33,-2.4887,-2.617,-2.6924,-2.6924,-2.6924,-2.6943,-2.6973,-2.6973,-2.6982,-2.7012,-2.7012,-2.7012,-1.5344,-1.5825,-1.6246,-1.6132,0.0,0.0,0.0,0.0,0.0,0.0,0.0,0.0,0.0,0.0,-0.984,-0.9343,-0.9191,-0.9154,-0.9154,-0.9028,-0.9265,-1.0131,-1.2077,-1.3588,-1.4556,-1.6393,-1.7582,-1.7582,-1.7582,-1.7582,-1.7582,-1.7582,-1.7582,-1.7582,-1.7582,-1.7582,-1.7582,-1.7582,-1.7582,-1.7582,-1.7582,-1.7582,-1.7582,-1.7582,-1.7582,-1.7582,-1.7582,-1.7582,-1.7582,-1.7582,-1.7582,-1.7575,-1.758,-1.7466,-1.7248,-1.7248,-1.7248,-1.7248,-1.7248,-1.7321,-1.7422,-1.7422,-1.7495,-1.7582,-1.7582,-1.7582,-1.7582,-1.7582,-1.7582,-1.7582,-1.7582,-1.7582,-1.7582,-1.7582,-1.7582,-1.7582,-1.7582,-1.7582,-1.7582,-1.7582,-1.7736,-1.7869,-1.7869,-1.8023,-1.819,-1.831,-1.8323,-1.8364,-1.8477,-1.849,-1.849,-1.849,-1.849,-1.8564,-1.8744,-1.9619,-2.1003,-2.3291,-2.2996,-2.3808,-2.6153,-2.6695,-2.7012,-2.7012,-2.7012,-2.7148,-2.7422,-2.7422,-2.7549,-2.7812,-2.7812,-2.8212,-1.5451,-1.5892,-1.6293,0.0,0.0,0.0,0.0,0.0,0.0,0.0,0.0,0.0,0.0,0.0,-0.9086,-0.9086,-0.9086,-0.9086,-0.9086,-0.9001,-0.9482,-1.0891,-1.2403,-1.3804,-1.531,-1.6717,-1.7582,-1.7582,-1.7582,-1.7582,-1.7582,-1.7582,-1.7582,-1.7582,-1.7582,-1.7582,-1.7582,-1.7582,-1.7582,-1.7582,-1.7582,-1.7582,-1.7582,-1.7582,-1.7582,-1.7582,-1.7582,-1.7582,-1.7582,-1.7582,-1.7582,-1.7582,-1.7582,-1.7582,-1.7582,-1.7582,-1.7582,-1.7582,-1.7582,-1.7582,-1.7582,-1.7582,-1.7582,-1.7582,-1.7582,-1.7582,-1.7582,-1.7582,-1.7582,-1.7582,-1.7582,-1.7582,-1.7582,-1.7582,-1.7582,-1.7609,-1.7709,-1.7729,-1.7756,-1.7849,-1.8043,-1.819,-1.819,-1.8357,-1.8524,-1.8611,-1.8631,-1.8657,-1.8758,-1.8771,-1.8771,-1.8771,-1.8771,-1.907,-1.97,-2.0703,-2.2227,-2.4361,-2.4013,-2.4916,-2.7308,-2.7412,-2.7412,-2.7412,-2.7412,-2.7568,-2.7861,-2.7861,-2.8018,-2.8291,-2.8698,-2.9408,-1.5745,-1.6046,0.0,0.0,0.0,0.0,0.0,0.0,0.0,0.0,0.0,-1.4915,-1.3578,-1.0891,-0.894,-0.894,-0.894,-0.894,-0.894,-0.894,-0.9482,-1.0891,-1.2403,-1.3911,-1.531,-1.6711,-1.7582,-1.7582,-1.7582,-1.7582,-1.7582,-1.7582,-1.7582,-1.7582,-1.7582,-1.7582,-1.7589,-1.7589,-1.7589,-1.7589,-1.7589,-1.7589,-1.7589,-1.7589,-1.7589,-1.7589,-1.7589,-1.7589,-1.7589,-1.7589,-1.7589,-1.7589,-1.7582,-1.7582,-1.7582,-1.7582,-1.7582,-1.7582,-1.7582,-1.7582,-1.7582,-1.7582,-1.7582,-1.7582,-1.7582,-1.7582,-1.7582,-1.7582,-1.7589,-1.7589,-1.7589,-1.7589,-1.7589,-1.7589,-1.7589,-1.7675,-1.7989,-1.805,-1.8136,-1.8437,-1.8497,-1.8497,-1.8497,-1.8497,-1.8597,-1.8885,-1.8925,-1.9032,-1.9332,-1.9366,-1.9366,-1.9366,-1.9366,-2.0033,-2.1472,-2.1578,-2.2919,-2.5927,-2.6155,-2.6825,-2.8291,-2.8291,-2.8291,-2.8291,-2.8291,-2.8291,-2.8291,-2.8291,-2.8291,-2.8398,-2.9713,-3.0317,-1.5558,-1.5892,0.0,0.0,0.0,0.0,0.0,0.0,0.0,0.0,-1.8615,-1.4967,-1.3583,-1.1755,-1.0131,-0.9047,-0.894,-0.894,-0.894,-0.894,-0.9809,-1.2403,-1.3048,-1.4234,-1.6711,-1.7364,-1.7582,-1.7582,-1.7582,-1.7582,-1.7582,-1.7582,-1.7582,-1.7582,-1.7582,-1.7689,-1.7909,-1.7909,-1.8016,-1.8223,-1.8223,-1.811,-1.7909,-1.7668,-1.7774,-1.7978,-1.7727,-1.7605,-1.7585,-1.7626,-1.7554,-1.7642,-1.7556,-1.7582,-1.7582,-1.7582,-1.7582,-1.7582,-1.7582,-1.7582,-1.7582,-1.7582,-1.7582,-1.7582,-1.7582,-1.7582,-1.7582,-1.7582,-1.7742,-1.7909,-1.7909,-1.8063,-1.817,-1.7956,-1.807,-1.8243,-1.8337,-1.8357,-1.8384,-1.847,-1.8657,-1.8791,-1.8791,-1.8965,-1.9138,-1.9225,-1.9232,-1.9265,-1.9359,-1.9366,-1.9815,-2.0809,-2.0923,-2.1593,-2.3039,-2.4147,-2.5151,-2.6045,-2.7051,-2.7843,-2.8291,-2.8291,-2.8291,-2.8291,-2.8291,-2.8291,-2.8291,-2.9207,-2.9713,-2.9713,-3.1122,-3.2241,-1.6046,0.0,0.0,0.0,0.0,0.0,0.0,0.0,0.0,0.0,-1.8303,-1.4955,-1.3583,-1.1647,-0.9915,-0.9047,-0.894,-0.894,-0.894,-0.9372,-1.0672,-1.3053,-1.3804,-1.5097,-1.7364,-1.7582,-1.7582,-1.7582,-1.7582,-1.7582,-1.7582,-1.7582,-1.7642,-1.7762,-1.7769,-1.7916,-1.8223,-1.8223,-1.831,-1.849,-1.849,-1.8457,-1.839,-1.8038,-1.8077,-1.836,-1.836,-1.836,-1.8346,-1.8303,-1.7985,-1.7592,-1.7888,-1.7943,-1.7943,-1.7943,-1.7943,-1.7943,-1.7943,-1.7943,-1.7943,-1.7943,-1.7943,-1.7943,-1.7943,-1.7943,-1.7943,-1.7943,-1.8076,-1.8223,-1.8223,-1.8444,-1.8584,-1.8297,-1.8364,-1.8524,-1.8637,-1.8664,-1.8698,-1.8818,-1.8978,-1.9098,-1.9098,-1.9252,-1.9366,-1.9366,-1.9924,-2.0256,-2.0256,-2.0823,-2.1487,-2.2371,-2.2476,-2.3039,-2.4599,-2.5608,-2.6391,-2.6943,-2.7843,-2.8291,-2.8291,-2.8291,-2.8291,-2.8291,-2.8291,-2.8601,-2.9102,-2.9911,-3.0618,-3.1122,-3.2543,-3.3563,0.0,0.0,0.0,0.0,0.0,0.0,0.0,0.0,-2.2976,-2.1752,0.0,-1.5028,-1.3578,-1.1105,-0.9265,-0.8937,-0.894,-0.8937,-0.9047,-1.0241,-1.1647,-1.3264,-1.4663,-1.5956,-1.7477,-1.7582,-1.7582,-1.7582,-1.7582,-1.7582,-1.7582,-1.7609,-1.7756,-1.8036,-1.807,-1.823,-1.8524,-1.8531,-1.8544,-1.8571,-1.8571,-1.8711,-1.8951,-1.8664,-1.8544,-1.8577,-1.9195,-1.9452,-1.9445,-1.9424,-1.878,-1.7779,-1.8373,-1.8608,-1.8608,-1.8497,-1.849,-1.849,-1.849,-1.849,-1.849,-1.849,-1.849,-1.849,-1.849,-1.849,-1.849,-1.849,-1.851,-1.8531,-1.8531,-1.8744,-1.8898,-1.8631,-1.8571,-1.8644,-1.8905,-1.8965,-1.9045,-1.9319,-1.9366,-1.9366,-1.9366,-1.9366,-1.9482,-1.9591,-2.0702,-2.1699,-2.1805,-2.2927,-2.3822,-2.3941,-2.4044,-2.4599,-2.6155,-2.6291,-2.6853,-2.8184,-2.8291,-2.8291,-2.8291,-2.8291,-2.8291,-2.8291,-2.8398,-2.9102,-3.0317,-3.0525,-3.1327,-3.2543,-3.397,-3.4581,0.0,0.0,0.0,0.0,0.0,0.0,0.0,0.0,-2.0444,-2.0135,-1.8471,-1.6374,-1.3804,-1.2724,-1.1647,-0.9265,-0.894,-0.9265,-1.0457,-1.0891,-1.2077,-1.4663,-1.5204,-1.5956,-1.7477,-1.7582,-1.7582,-1.7582,-1.7582,-1.7582,-1.7582,-1.7816,-1.7976,-1.8043,-1.827,-1.8537,-1.8824,-1.8831,-1.8951,-1.9178,-1.9178,-1.9212,-1.9259,-1.8958,-1.8951,-1.9178,-1.9307,-1.9428,-1.9415,-1.9439,-1.9217,-1.9063,-1.9209,-1.9244,-1.9126,-1.8863,-1.8621,-1.849,-1.849,-1.849,-1.849,-1.849,-1.849,-1.849,-1.849,-1.849,-1.849,-1.849,-1.8651,-1.8831,-1.8831,-1.9052,-1.9259,-1.9192,-1.9178,-1.9199,-1.9259,-1.9272,-1.9292,-1.9359,-1.9366,-1.9366,-1.9366,-1.9366,-1.9815,-2.0916,-2.1365,-2.2032,-2.3151,-2.3599,-2.4275,-2.5516,-2.5617,-2.6164,-2.7726,-2.7843,-2.796,-2.8291,-2.8291,-2.8291,-2.8291,-2.8291,-2.8291,-2.8291,-2.9303,-3.0016,-3.0317,-3.2454,-3.3674,-3.397,-3.5367,-3.5966,0.0,0.0,0.0,0.0,0.0,0.0,0.0,-1.8603,-1.8603,-1.8603,-1.7549,-1.5849,-1.3696,-1.2729,-1.1538,-0.9265,-0.894,-0.9372,-1.0891,-1.1755,-1.294,-1.5091,-1.6062,-1.6717,-1.7582,-1.7582,-1.7582,-1.7582,-1.7722,-1.7802,-1.7802,-1.8096,-1.8323,-1.8464,-1.8617,-1.8838,-1.9132,-1.9132,-1.9219,-1.9366,-1.9366,-1.9366,-1.9366,-1.9205,-1.9219,-1.9366,-1.9366,-1.9366,-1.9359,-1.9456,-1.9395,-1.9381,-1.936,-1.9419,-1.9419,-1.9165,-1.9038,-1.9018,-1.978,-1.9991,-1.9991,-1.9991,-1.9991,-1.9991,-1.9991,-1.9449,-1.9131,-1.978,-1.9566,-1.9132,-1.9132,-1.9252,-1.9366,-1.9366,-1.9366,-1.9366,-1.9366,-1.9366,-1.9366,-1.9366,-1.9366,-1.9366,-1.9366,-2.004,-2.0923,-2.2484,-2.3255,-2.4036,-2.482,-2.5489,-2.6282,-2.7079,-2.7168,-2.7501,-2.8184,-2.8291,-2.8291,-2.8291,-2.8291,-2.8291,-2.8291,-2.89,-2.9313,-2.9313,-2.9911,-3.0927,-3.2252,-3.3674,-3.4775,-3.5367,-3.6061,-3.6358,0.0,0.0,0.0,0.0,0.0,0.0,-1.7973,-1.7826,-1.7687,-1.7891,-1.681,-1.531,-1.3588,-1.2295,-1.0891,-0.9154,-0.9154,-0.9809,-1.1324,-1.2724,-1.425,-1.5696,-1.69,-1.7682,-1.7736,-1.7742,-1.7742,-1.7742,-1.7976,-1.8123,-1.8123,-1.8404,-1.8677,-1.8918,-1.8971,-1.9118,-1.9366,-1.9366,-1.9366,-1.9366,-1.9366,-1.9366,-1.9366,-1.9366,-1.9366,-1.9366,-1.9366,-1.9366,-1.9366,-1.9366,-1.9366,-1.9366,-1.9441,-1.9421,-1.9428,-2.0026,-2.0026,-2.0113,-2.1472,-2.2032,-2.2032,-2.2032,-2.2032,-2.2032,-2.2032,-2.1145,-2.0371,-2.1365,-2.0702,-1.97,-1.9482,-1.9366,-1.9366,-1.9366,-1.9591,-1.97,-1.9482,-1.9366,-1.9366,-1.9366,-1.9591,-1.9809,-2.0155,-2.1145,-2.2476,-2.3933,-2.5261,-2.6182,-2.6582,-2.7549,-2.832,-2.8398,-2.834,-2.8291,-2.8291,-2.8291,-2.8291,-2.8291,-2.8291,-2.8291,-2.8291,-2.9608,-3.0463,-3.0745,-3.097,-3.2151,-3.4385,-3.4581,-3.5271,-3.6358,-3.6358,-3.6358,0.0,0.0,0.0,0.0,0.0,0.0,0.0,0.0,-1.7891,-1.9117,-1.829,-1.6499,-1.3804,-1.3156,-1.2077,-0.9375,-1.0025,-1.1324,-1.2837,-1.4234,-1.5725,-1.7397,-1.7875,-1.8083,-1.8343,-1.837,-1.837,-1.837,-1.8404,-1.843,-1.843,-1.8704,-1.8885,-1.8925,-1.9172,-1.9325,-1.9366,-1.9366,-1.9366,-1.9366,-1.9366,-1.9366,-1.9366,-1.9366,-1.9366,-1.9366,-1.9366,-1.9366,-1.9366,-1.9366,-1.9366,-1.9345,-1.9374,-1.9407,-1.9763,-2.2294,-2.2615,-2.2073,-2.3103,-2.3487,-2.3487,-2.3487,-2.3487,-2.3487,-2.3487,-2.3375,-2.3047,-2.1919,-2.1472,-2.1031,-1.97,-1.9366,-1.9366,-1.9366,-2.0364,-2.0923,-1.9707,-1.9366,-1.9366,-1.9366,-2.0479,-2.1699,-2.3047,-2.3375,-2.4044,-2.5599,-2.5927,-2.6728,-2.8334,-2.8398,-2.8428,-2.8789,-2.8506,-2.8291,-2.8291,-2.8291,-2.8291,-2.8291,-2.8291,-2.8291,-2.8291,-2.9608,-3.112,-3.2786,-3.3496,-3.408,-3.4385,-3.5571,-3.625,-3.6358,-3.6358,-3.6358,0.0,0.0,0.0,0.0,0.0,-1.8151,-1.8777,-1.8352,-1.8002,-1.8443,-1.7996,-1.6935,-1.4883,-1.4449,-1.3846,-1.1899,-1.2137,-1.3162,-1.4724,-1.5516,-1.6454,-1.8051,-1.8297,-1.8343,-1.8477,-1.849,-1.849,-1.849,-1.8644,-1.8731,-1.8731,-1.9011,-1.9172,-1.9172,-1.9299,-1.9366,-1.9366,-1.9366,-1.9366,-1.9366,-1.9366,-1.9366,-1.9366,-1.9366,-1.9366,-1.9366,-1.9366,-1.9366,-1.9359,-1.9456,-1.9395,-1.9374,-1.9378,-2.1474,-2.4561,-2.5819,-2.6033,-2.5593,-2.5238,-2.5041,-2.5041,-2.5041,-2.5041,-2.5041,-2.5041,-2.4488,-2.3822,-2.4036,-2.3479,-2.2702,-2.2047,-2.182,-2.182,-2.182,-2.2379,-2.2597,-2.2047,-2.182,-2.182,-2.182,-2.2371,-2.3255,-2.482,-2.5041,-2.5599,-2.706,-2.7276,-2.7762,-2.8748,-2.876,-2.8809,-2.9238,-2.9121,-2.9004,-2.9004,-2.9748,-3.0268,-3.0268,-3.1084,-3.138,-3.1042,-3.259,-3.3743,-3.4307,-3.4339,-3.4931,-3.5917,-3.621,-3.6358,-3.637,-3.6684,-3.6822,0.0,0.0,0.0,0.0,0.0,-1.8699,0.0,0.0,-1.861,-1.8376,-1.8016,-1.7482,-1.6384,-1.5785,-1.5144,-1.3899,-1.4082,-1.4849,-1.6157,-1.6646,-1.7247,-1.8473,-1.8597,-1.8631,-1.8704,-1.8711,-1.8711,-1.8711,-1.8918,-1.9038,-1.9038,-1.9245,-1.9366,-1.9366,-1.9366,-1.9366,-1.9366,-1.9366,-1.9366,-1.9366,-1.9366,-1.9591,-1.9924,-1.9924,-2.0148,-2.0486,-2.0148,-2.0148,-2.0465,-1.9728,-1.9892,-2.0535,-2.1413,-2.4378,-2.83,-2.8344,-2.8315,-2.8129,-2.6992,-2.6608,-2.6608,-2.6608,-2.6608,-2.6608,-2.6608,-2.5827,-2.516,-2.5936,-2.527,-2.4267,-2.3933,-2.3822,-2.3822,-2.3822,-2.4044,-2.4267,-2.3933,-2.3822,-2.3933,-2.4267,-2.4378,-2.482,-2.6381,-2.6608,-2.7051,-2.8174,-2.8291,-2.8486,-2.9014,-2.8984,-2.9231,-3.0207,-3.0167,-3.0319,-3.074,-3.1692,-3.233,-3.233,-3.3365,-3.384,-3.3398,-3.507,-3.5878,-3.5616,-3.5425,-3.5905,-3.7186,-3.6772,-3.6571,-3.6584,-3.7136,-3.7387,0.0,0.0,0.0,-1.7896,0.0,0.0,0.0,-2.0691,-2.0468,-2.0345,-1.929,-1.8444,-1.8333,-1.6967,-1.5344,-1.3925,-1.511,-1.6169,-1.6298,-1.7452,-1.8479,-1.8871,-1.8905,-1.9011,-1.9292,-1.9325,-1.9325,-1.9325,-1.9332,-1.9345,-1.9345,-1.9359,-1.9366,-1.9366,-1.9366,-1.9366,-1.9366,-1.9366,-1.9366,-1.9366,-1.9366,-2.0148,-2.1472,-2.1472,-2.2258,-2.3487,-2.2145,-2.2258,-2.3343,-2.0543,-2.1056,-2.383,-2.6756,-2.8038,-2.8285,-2.833,-2.834,-2.833,-2.8194,-2.8184,-2.8184,-2.8184,-2.8184,-2.8184,-2.8184,-2.8174,-2.7833,-2.649,-2.6045,-2.5599,-2.4156,-2.3822,-2.3822,-2.3822,-2.4931,-2.5599,-2.4156,-2.3822,-2.4267,-2.5709,-2.5936,-2.649,-2.795,-2.8184,-2.8184,-2.8291,-2.8291,-2.8594,-2.9434,-2.918,-2.9769,-3.2027,-3.1965,-3.2222,-3.3682,-3.3892,-3.3892,-3.3892,-3.3997,-3.3986,-3.3964,-3.5245,-3.6224,-3.6689,-3.7454,-3.7578,-3.7186,-3.7149,-3.7149,-3.7149,-3.7713,-3.7965,0.0,0.0,0.0,-1.7555,-1.8235,-1.8814,-1.9027,-1.9167,-1.9174,-1.8979,-1.8673,-1.849,-1.849,-1.7942,-1.748,-1.7085,-1.7541,-1.8013,-1.8313,-1.8695,-1.9092,-1.9199,-1.9205,-1.9252,-1.9359,-1.9366,-1.9366,-1.9366,-1.9366,-1.9366,-1.9366,-1.9366,-1.9366,-1.9366,-1.9366,-1.9366,-1.9366,-1.9366,-1.9924,-2.0809,-2.0809,-2.1593,-2.3039,-2.3039,-2.3822,-2.527,-2.471,-2.4258,-2.3686,-2.2656,-2.2836,-2.4133,-2.7098,-2.834,-2.833,-2.833,-2.8291,-2.8291,-2.8291,-2.8291,-2.8291,-2.8291,-2.8291,-2.8291,-2.8291,-2.8291,-2.8184,-2.7618,-2.7501,-2.7394,-2.6834,-2.6726,-2.6726,-2.6726,-2.706,-2.7394,-2.6834,-2.6726,-2.6834,-2.7394,-2.7501,-2.7726,-2.8184,-2.8291,-2.8291,-2.8291,-2.8291,-2.8603,-2.9463,-3.0289,-3.1271,-3.2731,-3.3558,-3.4218,-3.4751,-3.5718,-3.625,-3.625,-3.7128,-3.7515,-3.7176,-3.7927,-3.8255,-3.8107,-3.8441,-3.8467,-3.8266,-3.7889,-3.7713,-3.7726,-3.8291,-3.9028,-1.6072,0.0,0.0,0.0,-1.7845,-1.8213,-1.8306,-1.8844,-1.9126,-1.8601,-1.8644,-1.8784,-1.8784,-1.8784,-1.8811,-1.8911,-1.9005,-1.9145,-1.9339,-1.9366,-1.9366,-1.9366,-1.9366,-1.9366,-1.9366,-1.9366,-1.9366,-1.9366,-1.9366,-1.9366,-1.9366,-1.9366,-1.9366,-1.9366,-1.9366,-1.9366,-1.9366,-1.9366,-2.0148,-2.1586,-2.1586,-2.2589,-2.4599,-2.4599,-2.538,-2.6825,-2.6825,-2.6273,-2.5261,-2.5277,-2.5306,-2.555,-2.7533,-2.8291,-2.8291,-2.8291,-2.8291,-2.8291,-2.8291,-2.8291,-2.8291,-2.8291,-2.8291,-2.8291,-2.8291,-2.8291,-2.8291,-2.8291,-2.8291,-2.8291,-2.8291,-2.8591,-2.9006,-2.9006,-2.9303,-2.9608,-2.9608,-2.89,-2.8291,-2.8291,-2.8291,-2.8291,-2.8291,-2.8291,-2.8291,-2.8291,-2.8408,-2.876,-2.9482,-3.0982,-3.2437,-3.3658,-3.5178,-3.6283,-3.6715,-3.7701,-3.8243,-3.8243,-3.9141,-3.9534,-3.9157,-3.9496,-3.9521,-3.9157,-3.9145,-3.9145,-3.9145,-3.858,-3.8304,-3.8316,-3.9346,-4.0756,0.0,0.0,0.0,0.0,-1.8223,-1.9258,-1.8931,-1.9729,-2.0333,-1.955,-1.9352,-1.9359,-1.9366,-1.9366,-1.9272,-1.8985,-1.9178,-1.9366,-1.9366,-1.9366,-1.9366,-1.9366,-1.9366,-1.9366,-1.9366,-1.9366,-1.9366,-1.9366,-1.9366,-1.9366,-1.9366,-1.9366,-1.9366,-1.9366,-1.9366,-1.9366,-1.9366,-1.9482,-2.0263,-2.1699,-2.1692,-2.3255,-2.6155,-2.6155,-2.6943,-2.8291,-2.8291,-2.8291,-2.8291,-2.8291,-2.8291,-2.8291,-2.8291,-2.8291,-2.8291,-2.8291,-2.8291,-2.8291,-2.8291,-2.8291,-2.8291,-2.8291,-2.8291,-2.8291,-2.8291,-2.8291,-2.8291,-2.8291,-2.8291,-2.8291,-2.8398,-2.9303,-3.0317,-3.0317,-3.1327,-3.2342,-3.2353,-3.0224,-2.8398,-2.8398,-2.8301,-2.831,-2.831,-2.832,-2.833,-2.833,-2.8672,-2.9092,-2.9531,-3.1238,-3.3208,-3.5134,-3.6703,-3.8125,-3.9581,-3.9697,-3.9697,-3.9697,-3.9697,-3.9697,-3.9697,-3.9697,-3.9697,-3.9697,-3.9697,-3.9697,-3.9788,-3.9246,-3.8995,-3.9007,-4.0872,-4.3026,-1.5832,0.0,0.0,0.0,0.0,0.0,-1.7573,-1.8047,-1.8521,-1.8715,-1.8898,-1.9112,-1.9325,-1.9366,-1.9339,-1.9259,-1.9312,-1.9366,-1.9366,-1.9366,-1.9366,-1.9366,-1.9366,-1.9366,-1.9366,-1.9366,-1.9366,-1.9366,-1.9366,-1.9366,-1.9366,-1.9366,-1.9366,-1.9366,-1.9366,-1.9366,-1.9366,-2.0479,-2.1699,-2.3151,-2.4378,-2.5818,-2.7726,-2.7726,-2.795,-2.8291,-2.8291,-2.8291,-2.8291,-2.8291,-2.8291,-2.8291,-2.8291,-2.8291,-2.8291,-2.8291,-2.8291,-2.8291,-2.8291,-2.8291,-2.8291,-2.8291,-2.8291,-2.8291,-2.8291,-2.8291,-2.8291,-2.8291,-2.8291,-2.8495,-2.9503,-3.0016,-3.0514,-3.1531,-3.2028,-3.2432,-3.2915,-3.1987,-3.0927,-2.9911,-2.915,-2.875,-2.875,-2.9014,-2.9219,-2.9219,-2.9316,-2.9541,-2.9971,-3.2301,-3.4305,-3.5244,-3.7595,-3.9245,-3.9697,-3.9697,-3.9697,-3.9697,-3.9697,-3.9697,-3.9697,-3.9697,-3.9697,-3.9697,-3.9697,-4.0173,-4.1032,-4.0976,-4.0885,-4.0898,-4.3231,-4.4734,-1.592,-1.5832,-1.5899,-1.6199,0.0,0.0,-1.7141,-1.7368,-1.7609,-1.8343,-1.8624,-1.8838,-1.9125,-1.9185,-1.9225,-1.9352,-1.9366,-1.9412,-1.9533,-1.9546,-1.9593,-1.9713,-1.9619,-1.9546,-1.9546,-1.9439,-1.9366,-1.9366,-1.9366,-1.9366,-1.9366,-1.9366,-1.9366,-1.9366,-1.9366,-1.9366,-1.9366,-2.0809,-2.2363,-2.3822,-2.5371,-2.6825,-2.8291,-2.8291,-2.8291,-2.8291,-2.8291,-2.8291,-2.8291,-2.8291,-2.8291,-2.8291,-2.8291,-2.8291,-2.8291,-2.8291,-2.8291,-2.8291,-2.8291,-2.8291,-2.8291,-2.8291,-2.8291,-2.8291,-2.8291,-2.8291,-2.8398,-2.9006,-2.9503,-3.012,-3.0927,-3.1531,-3.2241,-3.2955,-3.365,-3.4186,-3.4716,-3.4175,-3.3208,-3.2077,-3.0735,-2.9816,-3.0106,-2.9828,-2.957,-2.957,-2.9717,-3.0138,-3.1033,-3.3308,-3.5181,-3.6128,-3.836,-3.9697,-3.9697,-3.9697,-3.9697,-3.9697,-3.9697,-3.9697,-3.9697,-3.9697,-3.9697,-3.9697,-4.0275,-4.1406,-4.3218,-4.207,-4.2168,-4.3218,-4.4734,-4.5689,-1.6298,-1.5947,-1.5932,-1.6166,-1.6072,0.0,-1.7208,-1.7261,-1.7335,-1.817,-1.837,-1.8477,-1.8771,-1.8851,-1.8958,-1.9225,-1.9325,-1.9466,-1.976,-1.98,-1.9907,-2.0194,-2.0007,-1.9846,-1.9846,-1.9586,-1.9412,-1.9412,-1.9611,-1.9707,-1.9931,-1.9802,-1.9686,-1.9713,-1.955,-1.9543,-1.9713,-2.0994,-2.243,-2.4044,-2.5599,-2.7051,-2.8291,-2.8291,-2.8291,-2.8291,-2.8291,-2.8291,-2.8291,-2.8291,-2.8291,-2.8291,-2.8291,-2.8291,-2.8291,-2.8291,-2.8291,-2.8291,-2.8291,-2.8291,-2.8291,-2.8291,-2.8291,-2.8291,-2.8291,-2.8291,-2.8601,-2.9911,-3.1122,-3.2129,-3.2431,-3.3464,-3.4483,-3.4581,-3.562,-3.6609,-3.7161,-3.6346,-3.5372,-3.4797,-3.2838,-3.1507,-3.2028,-3.0972,-3.0043,-3.0043,-3.0246,-3.1041,-3.2347,-3.4241,-3.6054,-3.7358,-3.8804,-3.9697,-3.9697,-3.9697,-3.9697,-3.9697,-3.9697,-3.9697,-3.9697,-3.9697,-3.9788,-3.9878,-4.1319,-4.3122,-4.5403,-4.3122,-4.3218,-4.5584,-4.5584,-4.6255,-1.7478,-1.6756,-1.6146,-1.5965,-1.6226,0.0,-1.6533,-1.6667,-1.6914,-1.7328,-1.7595,-1.7856,-1.8163,-1.8417,-1.8597,-1.8651,-1.9058,-1.9466,-1.976,-1.98,-1.9907,-2.0194,-2.018,-2.0147,-2.0147,-1.9887,-1.972,-1.972,-2.0621,-2.1707,-2.2934,-2.2135,-2.1707,-2.1675,-2.0267,-2.0132,-2.1675,-2.2061,-2.3341,-2.5709,-2.7168,-2.8067,-2.8291,-2.8291,-2.8291,-2.8291,-2.8291,-2.8291,-2.8291,-2.8291,-2.8291,-2.8291,-2.8291,-2.8291,-2.8291,-2.8291,-2.8291,-2.8291,-2.8291,-2.8291,-2.8291,-2.8291,-2.8291,-2.8291,-2.8291,-2.8291,-2.8601,-2.9911,-3.0525,-3.1224,-3.3464,-3.4178,-3.4678,-3.5763,-3.6493,-3.7174,-3.7726,-3.7642,-3.7717,-3.8403,-3.6004,-3.397,-3.407,-3.3097,-3.2364,-3.2364,-3.2437,-3.2612,-3.2941,-3.532,-3.7133,-3.7465,-3.8804,-3.9697,-3.9697,-3.9697,-3.9697,-3.9697,-3.9697,-3.9697,-3.9697,-3.9697,-4.0173,-4.1219,-4.3504,-4.4918,-4.5403,-4.4918,-4.5403,-4.6931,-4.6931,-4.7019,-1.8148,-1.7916,-1.8022,-1.7208,-1.7336,0.0,0.0,-1.731,-1.7054,-1.7502,-1.7475,-1.7508,-1.7963,-1.8043,-1.8136,-1.8437,-1.8858,-1.9245,-1.9546,-1.996,-2.0347,-2.0635,-2.0541,-2.0454,-2.0454,-2.0187,-2.0366,-2.1187,-2.2921,-2.3819,-2.3796,-2.3764,-2.416,-2.5281,-2.1451,-2.0579,-2.2982,-2.3035,-2.3712,-2.4933,-2.7201,-2.8291,-2.8291,-2.8291,-2.8291,-2.8291,-2.8291,-2.8428,-2.8751,-2.8456,-2.8319,-2.83,-2.835,-2.8291,-2.8291,-2.8291,-2.8291,-2.8291,-2.8291,-2.8291,-2.8291,-2.8291,-2.8291,-2.8291,-2.8291,-2.8261,-2.8545,-2.9953,-3.1338,-3.2655,-3.408,-3.4884,-3.5571,-3.6263,-3.6784,-3.7337,-3.7889,-3.8228,-3.8693,-3.9534,-3.8362,-3.6873,-3.6212,-3.5011,-3.4181,-3.4181,-3.4181,-3.4515,-3.5156,-3.6584,-3.7796,-3.8465,-3.9245,-3.9697,-3.9697,-3.9697,-3.9697,-3.9697,-3.9697,-3.9697,-3.9697,-4.0262,-4.1505,-4.3504,-4.4734,-4.5689,-4.6344,-4.6344,-4.6638,-4.7309,-4.7309,-4.7309,-1.9076,-1.9252,-1.9927,-1.8925,-1.8977,-1.9262,0.0,0.0,0.0,-1.7702,-1.7448,-1.7295,-1.7782,-1.7669,-1.7675,-1.8223,-1.8564,-1.8858,-1.9158,-2.0132,-2.0883,-2.1175,-2.1472,-2.1635,-2.1635,-2.1234,-2.1639,-2.3055,-2.5061,-2.593,-2.4953,-2.5532,-2.6679,-2.8208,-2.3672,-2.2292,-2.4658,-2.4648,-2.4694,-2.4694,-2.7163,-2.8291,-2.8291,-2.8291,-2.8291,-2.8301,-2.8252,-2.8603,-2.8945,-2.8449,-2.8282,-2.8305,-2.8271,-2.835,-2.8291,-2.8291,-2.8349,-2.828,-2.828,-2.8337,-2.8288,-2.8261,-2.8339,-2.8291,-2.8291,-2.8278,-2.8585,-3.0223,-3.2241,-3.408,-3.4678,-3.5571,-3.6383,-3.6496,-3.6935,-3.75,-3.8052,-3.863,-3.9157,-3.9609,-3.9697,-3.9362,-3.8137,-3.6703,-3.5727,-3.5727,-3.5727,-3.6162,-3.7358,-3.7796,-3.836,-3.9581,-3.9697,-3.9697,-3.9697,-3.9697,-3.9697,-3.9697,-3.9697,-3.9697,-3.9697,-4.1119,-4.3026,-4.5312,-4.5689,-4.6255,-4.7309,-4.7309,-4.7309,-4.7309,-4.7309,-4.7309,-2.1229,-2.0728,-2.0429,-2.0013,-2.0581,-2.0869,-1.9125,0.0,-1.8593,-1.7096,0.0,-1.7174,-1.7241,0.0,0.0,-1.7635,-1.7943,-1.825,-1.8551,-2.0224,-2.1423,-2.1855,-2.3541,-2.4723,-2.4723,-2.4521,-2.4436,-2.467,-2.59,-2.7343,-2.8821,-2.9055,-2.8888,-2.8369,-2.7651,-2.7437,-2.7791,-2.7758,-2.7785,-2.7785,-2.8165,-2.8291,-2.8291,-2.8291,-2.8291,-2.831,-2.8269,-2.8314,-2.8382,-2.8319,-2.8252,-2.8334,-2.8295,-2.8329,-2.8291,-2.8291,-2.8278,-2.8277,-2.8277,-2.8347,-2.831,-2.8261,-2.8315,-2.8291,-2.8291,-2.8262,-2.884,-3.1316,-3.2342,-3.3143,-3.5559,-3.6263,-3.6483,-3.6973,-3.7513,-3.8065,-3.8642,-3.9207,-3.9622,-3.9685,-3.9697,-3.9697,-3.9465,-3.8243,-3.7252,-3.7252,-3.7252,-3.7358,-3.7465,-3.8687,-3.9478,-3.9685,-3.9697,-3.9697,-3.9697,-3.9697,-3.9697,-3.9697,-3.9697,-3.9697,-3.9697,-4.1985,-4.3975,-4.5403,-4.6535,-4.7121,-4.7309,-4.7309,-4.7309,-4.7309,-4.7309,-4.7309,-2.1805,-2.2062,-2.2644,-2.1722,-2.2188,-2.249,-2.0772,-1.9776,-1.892,-1.7741,0.0,0.0,0.0,0.0,0.0,0.0,-1.7842,-1.8293,-1.9262,-2.0944,-2.2165,-2.1982,-2.3589,-2.4743,-2.5271,-2.6133,-2.6728,-2.6946,-2.8022,-2.9155,-3.0312,-3.0374,-3.0172,-2.987,-2.977,-2.9277,-2.8315,-2.8266,-2.8261,-2.8291,-2.8291,-2.8291,-2.8291,-2.8291,-2.8281,-2.825,-2.8276,-2.8612,-2.9064,-2.8512,-2.8924,-2.9707,-2.8668,-2.8319,-2.8262,-2.8344,-2.8252,-2.8712,-3.1863,-3.3028,-3.2712,-3.1164,-3.0572,-3.0753,-3.1234,-3.1381,-3.1544,-3.2185,-3.2844,-3.3831,-3.532,-3.6316,-3.6973,-3.7525,-3.809,-3.858,-3.8818,-3.9308,-3.9697,-3.9697,-3.9697,-3.9697,-3.9697,-3.9141,-3.8804,-3.8804,-3.8804,-3.8804,-3.8804,-3.9362,-3.9697,-3.9697,-3.9697,-3.9697,-3.9697,-3.9697,-3.9697,-3.9697,-4.0364,-4.1119,-4.1887,-4.3598,-4.5207,-4.6447,-4.7019,-4.7309,-4.7309,-4.7309,-4.7309,-4.7309,-4.7309,-4.7309,-2.3248,-2.3621,-2.4404,-2.3542,-2.3777,-2.3764,-2.1929,-2.0676,-1.949,-1.8034,-1.7348,0.0,0.0,0.0,-1.7241,-1.7535,0.0,-1.8759,-1.9768,-2.1651,-2.2921,-2.2783,-2.4403,-2.5417,-2.5225,-2.6973,-2.8196,-2.8219,-2.9316,-3.0283,-3.0859,-3.0886,-3.0863,-3.0863,-3.0887,-3.0326,-2.8988,-2.8564,-2.8343,-2.8339,-2.8339,-2.8339,-2.8339,-2.8339,-2.8247,-2.8368,-2.879,-2.94,-2.9896,-2.9231,-2.975,-3.076,-2.8996,-2.9182,-3.0379,-2.8847,-2.925,-3.1084,-3.5017,-3.6427,-3.6106,-3.4058,-3.3104,-3.2802,-3.3545,-3.3545,-3.3229,-3.2912,-3.3563,-3.4602,-3.5499,-3.6456,-3.7362,-3.8078,-3.8567,-3.8906,-3.9057,-3.9421,-3.9697,-3.9697,-3.9697,-3.9697,-3.9697,-3.9697,-3.9697,-3.9697,-3.9697,-3.9697,-3.9697,-3.9697,-3.9697,-3.9697,-3.9697,-3.9697,-3.9697,-3.9697,-3.989,-4.0173,-4.1406,-4.2641,-4.3975,-4.4918,-4.5973,-4.7309,-4.7309,-4.7309,-4.7309,-4.7309,-4.7309,-4.7309,-4.7309,-4.7309,-2.6256,-2.5594,-2.5049,-2.5049,-2.5295,-2.4818,-2.1897,-2.1387,-2.0734,-1.7832,-1.7382,-1.7562,-1.7582,-1.7341,-1.7241,-1.7535,-1.8466,0.0,0.0,-2.1988,-2.4025,-2.4828,-2.7163,-2.7716,-2.5111,-2.7361,-2.8621,-2.7921,-2.8899,-2.9971,-3.084,-3.0879,-3.0869,-3.0869,-3.0883,-3.0913,-3.0779,-2.9151,-2.834,-2.8331,-2.8331,-2.8331,-2.8331,-2.8331,-2.834,-2.8378,-3.0113,-3.0847,-3.0852,-3.0827,-3.086,-3.0691,-2.9016,-3.1508,-3.5533,-3.021,-3.1661,-3.6186,-3.6333,-3.6443,-3.6346,-3.6309,-3.5055,-3.3703,-3.3715,-3.3094,-3.2655,-3.3981,-3.4385,-3.4798,-3.6637,-3.7186,-3.7462,-3.858,-3.8856,-3.9019,-3.9546,-3.9685,-3.9697,-3.9697,-3.9697,-3.9697,-3.9697,-3.9697,-3.9697,-3.9697,-3.9697,-3.9697,-3.9697,-3.9697,-3.9697,-3.9697,-3.9697,-3.9697,-3.9697,-3.9697,-4.0275,-4.1505,-4.2738,-4.3975,-4.5298,-4.5403,-4.5973,-4.7309,-4.7309,-4.7309,-4.7309,-4.7309,-4.7309,-4.7309,-4.7309,-4.7309,-2.674,-2.6256,-2.6072,-2.5342,-2.5176,-2.4756,-2.2823,-2.2302,-2.1569,-1.8925,-1.8534,-1.8466,-1.7752,-1.7502,-1.7775,-1.8797,-1.9229,-2.0107,0.0,-2.4126,-2.4914,-2.3537,-2.6347,-2.7882,-2.624,-2.7753,-2.893,-2.904,-2.9414,-2.9824,-3.04,-3.0723,-3.0889,-3.0889,-3.0897,-3.0952,-3.0953,-3.0344,-2.9996,-3.0013,-3.0013,-3.0013,-3.0013,-3.0013,-2.9711,-2.9138,-2.9726,-3.0,-3.0145,-3.1309,-3.2579,-3.3863,-3.4445,-3.5791,-3.7168,-3.4587,-3.4802,-3.6444,-3.6413,-3.6418,-3.6418,-3.6418,-3.5973,-3.5514,-3.5514,-3.5235,-3.515,-3.5571,-3.6022,-3.643,-3.7478,-3.8015,-3.8492,-3.9233,-3.9421,-3.9471,-3.9647,-3.9697,-3.9697,-3.9697,-3.9697,-3.9697,-3.9697,-3.9697,-3.9697,-3.9697,-3.9697,-3.9697,-3.9697,-3.9697,-3.9697,-3.9697,-4.0453,-4.0932,-4.0932,-4.169,-4.2363,-4.2834,-4.4069,-4.4918,-4.5403,-4.6255,-4.6829,-4.7309,-4.7309,-4.7309,-4.7309,-4.7309,-4.7309,-4.7309,-4.7988,-4.8293,-2.8443,-2.788,-2.7579,-2.6848,-2.6661,-2.6131,-2.424,-2.3727,-2.2907,-2.0297,-1.993,-1.9882,-1.9177,-1.9109,-1.9317,-2.0238,-2.0743,-2.1862,0.0,-2.559,-2.5597,-2.3554,-2.6106,-2.7454,-2.5842,-2.7453,-2.8877,-2.9307,-2.9482,-2.9756,-3.0176,-3.0635,-3.0889,-3.0889,-3.0889,-3.0897,-3.0902,-3.0902,-3.0918,-3.0937,-3.0937,-3.0937,-3.0937,-3.0937,-3.0399,-2.9624,-2.9321,-2.9662,-3.0659,-3.1818,-3.3829,-3.6461,-3.7959,-3.8562,-3.844,-3.7356,-3.6713,-3.6406,-3.6701,-3.6641,-3.6395,-3.6584,-3.6521,-3.6358,-3.6358,-3.6358,-3.6358,-3.6358,-3.6759,-3.7312,-3.7864,-3.8442,-3.9007,-3.9559,-3.9697,-3.9697,-3.9697,-3.9697,-3.9697,-3.9697,-3.9697,-3.9697,-3.9697,-3.9697,-3.9697,-3.9697,-3.9697,-3.9697,-3.9697,-3.9697,-3.989,-4.0364,-4.1119,-4.1789,-4.2266,-4.3409,-4.4163,-4.4163,-4.5403,-4.6062,-4.6062,-4.6829,-4.7309,-4.7309,-4.7309,-4.7309,-4.7309,-4.7309,-4.7452,-4.7834,-4.8527,-4.9215]}]]